GFSSE_250_spd_000.txt.gz
Wind_Speed
33 35 35 32 29 31 32 34 37 39 41 40 42 45 46 48 50 51 52 52 52 50 52 52 53 52 50 51 51 52 51 53 56 52 49 46 46 47 46 46 45 46 46
37 37 39 39 37 37 37 38 40 39 40 42 44 49 49 49 51 51 50 51 50 47 47 49 49 47 45 46 44 48 49 49 52 50 44 47 47 46 46 45 45 46 47
38 39 42 44 45 43 42 44 44 41 41 42 45 50 50 50 50 50 48 47 44 40 40 42 40 42 42 40 41 41 43 45 47 46 49 49 48 46 46 47 47 47 46
40 39 42 42 44 46 45 44 40 41 43 44 47 49 50 47 48 46 43 42 38 36 39 39 40 41 37 37 39 38 40 44 46 45 46 46 45 46 47 47 49 44 33
44 45 46 42 43 43 41 41 43 44 47 52 51 51 49 46 44 42 40 37 37 37 37 37 37 41 40 42 39 38 41 44 45 42 42 41 43 43 44 44 43 34 31
47 47 48 47 49 49 48 51 50 52 52 53 52 52 47 41 40 40 38 39 37 36 35 37 38 39 40 37 40 39 40 44 46 42 41 41 42 41 41 40 32 32 32
51 53 52 50 53 54 53 55 54 55 56 54 54 51 44 36 37 38 37 39 35 36 37 39 42 41 37 40 38 38 39 39 40 39 38 38 40 39 36 32 32 33 34
54 53 55 59 58 59 57 56 54 55 56 52 48 47 38 32 35 38 39 33 29 38 38 35 36 40 40 41 40 41 41 38 38 38 40 40 40 38 35 34 34 35 37
60 64 63 63 62 61 59 57 55 55 50 46 46 42 32 30 35 38 36 40 37 40 41 43 43 44 42 44 45 44 41 40 38 39 41 42 41 40 38 36 37 37 39
66 63 62 63 63 63 58 57 53 51 46 44 43 37 29 31 36 36 36 40 46 43 45 45 43 43 46 49 46 46 44 42 41 40 43 44 42 42 41 39 39 40 43
65 65 64 65 62 59 55 53 48 44 43 43 40 34 29 32 36 36 38 39 38 40 41 43 45 48 50 47 47 46 45 42 43 44 44 43 43 43 43 42 43 46 47
62 61 59 58 55 52 45 42 39 41 41 42 37 32 29 33 36 39 40 37 39 40 45 48 48 43 45 49 49 47 44 46 47 46 44 41 44 45 45 46 48 49 51
56 52 50 49 48 44 37 36 37 40 41 39 35 32 30 34 38 42 40 39 40 44 46 45 43 47 51 50 51 49 48 47 46 44 43 40 39 42 46 48 51 53 55
44 42 43 41 40 34 30 34 36 38 38 36 33 33 30 36 41 47 45 45 45 44 44 46 50 52 52 54 52 51 49 48 46 45 44 42 42 44 48 51 54 57 60
39 40 38 35 31 28 28 32 35 37 35 34 33 33 31 36 42 44 48 49 51 49 52 53 54 55 55 54 53 53 52 51 48 46 47 48 49 50 52 55 57 60 60
39 36 34 31 27 27 28 29 33 35 33 31 32 33 32 35 40 47 50 51 54 56 58 58 56 56 56 56 57 55 54 54 53 50 50 53 55 57 58 60 61 62 63
35 30 28 27 26 27 28 30 30 32 30 30 32 33 35 38 41 44 47 48 48 53 54 56 57 59 59 58 58 59 58 57 57 56 55 57 60 64 66 66 68 70 72
28 24 23 23 23 24 28 33 30 29 29 30 31 33 36 39 41 43 45 49 52 52 55 57 59 60 59 58 60 60 62 62 62 59 60 61 64 68 71 75 76 77 79
24 23 22 22 24 27 30 31 29 28 27 27 30 33 36 40 42 45 48 50 52 54 55 55 56 57 59 62 62 63 64 65 64 63 64 67 69 72 75 77 80 83 85
27 26 23 22 24 28 30 30 28 27 27 28 29 33 37 41 44 45 48 48 48 49 53 56 59 62 64 64 64 65 64 63 63 66 69 72 76 79 81 84 87 89 94
27 25 23 25 27 29 30 31 30 27 27 29 30 32 35 39 42 44 46 47 49 53 56 60 63 62 62 60 59 61 64 66 70 71 75 78 81 85 88 90 94 97 98
26 26 26 27 28 30 32 32 33 32 30 31 32 33 35 38 41 43 46 50 54 57 59 60 60 60 63 64 64 64 65 70 75 78 81 85 88 92 95 98 102 104 106
27 27 27 28 29 32 32 33 35 37 37 37 38 38 40 42 45 49 52 54 56 59 61 60 62 64 65 69 73 73 73 75 76 83 88 92 95 99 102 107 110 114 117
29 30 31 31 31 34 35 35 35 36 39 41 42 43 45 46 49 51 55 56 59 60 61 65 68 70 72 74 77 82 84 84 83 81 89 95 100 105 109 112 116 119 123
32 35 33 34 35 36 36 36 38 39 40 40 41 43 45 48 50 53 55 58 60 63 67 70 73 76 79 81 83 86 90 95 99 100 96 104 108 113 113 114 117 120 123
30 35 37 37 37 38 39 41 42 41 41 41 43 45 46 48 51 54 58 62 66 69 73 76 79 82 86 90 93 96 100 103 107 110 111 110 113 112 116 117 121 126 130

GFSSE_250_spd_003.txt.gz
Wind_Speed
28 28 30 33 36 37 36 34 35 38 39 40 40 41 41 43 44 47 50 50 50 51 52 55 54 52 53 53 51 53 55 55 55 55 57 56 57 55 50 46 48 47 49
33 32 31 33 36 37 39 42 44 42 43 44 45 42 43 43 45 49 51 51 50 51 51 51 50 49 49 48 50 48 49 49 48 50 52 51 51 51 49 48 47 49 48
39 38 37 36 37 38 38 38 38 37 42 41 42 41 42 44 50 50 50 50 50 49 48 47 44 41 42 45 44 43 43 43 44 44 45 45 45 46 49 49 47 45 45
41 42 43 44 43 43 43 42 40 41 42 42 45 46 48 49 51 52 52 51 48 47 44 43 38 37 42 42 42 43 41 41 42 43 46 46 43 43 43 43 43 44 46
47 49 50 50 49 46 45 44 44 45 47 50 52 54 54 55 54 54 52 47 46 45 42 38 36 41 42 42 40 41 39 38 41 42 42 44 45 43 43 42 43 44 44
45 49 52 52 50 50 49 49 49 50 53 53 53 54 56 56 53 49 49 44 44 42 38 37 40 42 39 38 40 42 39 39 38 42 42 43 43 41 42 42 41 41 42
47 48 51 51 51 53 53 53 55 56 58 56 55 56 55 52 49 48 44 40 40 39 38 43 38 38 41 42 42 39 37 38 39 43 43 42 42 40 41 42 41 40 39
52 51 53 56 53 56 58 57 59 59 59 58 55 54 51 47 47 45 37 35 38 37 39 42 38 41 41 38 39 43 41 40 43 43 43 43 43 42 42 43 42 41 39
56 55 59 56 57 60 62 65 64 63 61 57 54 51 46 44 44 40 34 33 37 39 39 32 34 43 41 44 44 43 40 46 48 45 44 45 44 44 43 43 44 43 42
58 57 57 58 62 66 65 65 66 62 55 52 48 43 40 41 40 36 33 34 36 37 37 42 40 46 50 46 48 40 47 50 49 45 44 44 45 46 46 45 43 46 46
61 61 59 65 67 67 66 62 60 54 49 43 39 37 38 39 37 34 33 34 35 38 40 39 46 43 41 46 48 52 52 50 49 47 44 45 46 45 47 45 44 46 50
62 65 67 66 64 63 57 55 48 45 43 37 35 36 38 38 35 33 34 35 35 38 37 39 43 45 47 49 54 50 48 53 51 48 47 45 43 43 43 43 44 47 50
67 67 64 62 59 53 48 46 42 39 36 31 34 37 38 37 34 32 33 34 36 40 38 39 41 45 48 50 48 49 53 55 52 50 48 49 46 43 43 43 44 46 49
62 61 57 52 47 45 43 41 38 36 31 32 35 35 36 36 33 32 35 38 41 43 43 41 44 47 48 47 50 54 57 57 55 53 53 52 50 46 45 47 48 48 50
56 50 46 45 45 44 40 37 36 33 31 33 34 33 35 35 34 33 35 39 42 46 49 50 51 52 54 58 59 62 60 60 59 57 57 56 53 52 50 50 52 54 56
41 39 42 42 44 41 36 37 34 32 31 36 36 34 35 34 34 33 35 38 44 50 52 56 58 59 61 60 62 65 65 62 62 60 58 58 58 58 57 56 57 58 60
37 40 42 42 39 34 33 32 29 31 34 37 38 35 35 34 33 34 35 37 43 50 54 57 60 63 66 68 66 61 63 64 62 60 62 63 63 63 64 62 61 62 65
40 42 41 39 32 32 29 28 29 31 34 36 36 36 34 33 34 36 38 41 45 52 55 57 56 60 59 59 61 63 63 62 64 66 68 67 66 65 63 63 64 66 68
41 40 38 32 31 29 27 28 29 33 34 34 35 35 34 33 34 36 39 43 46 47 48 51 53 55 58 59 59 60 63 65 67 69 67 65 63 63 64 66 68 72 75
39 39 32 32 30 29 28 30 30 32 32 32 33 35 37 36 35 37 39 41 44 48 51 52 54 54 55 57 60 63 66 68 66 63 64 66 67 68 69 72 75 78 82
28 28 29 31 31 33 34 31 31 33 32 32 33 36 37 38 38 38 39 42 44 47 49 50 53 56 60 63 63 65 66 65 68 68 68 70 73 75 78 80 83 86 88
24 27 28 29 32 33 33 32 33 35 35 36 38 37 38 41 42 41 42 44 46 48 51 55 59 62 65 66 66 66 65 70 72 74 75 78 80 82 85 88 91 95 97
21 28 29 30 33 33 35 35 36 36 36 37 39 40 43 44 45 46 47 50 52 55 58 60 61 64 65 68 70 70 71 73 74 79 82 85 87 91 93 97 99 104 107
22 22 29 34 36 37 37 37 38 38 37 39 42 42 44 44 45 47 51 53 56 58 60 62 64 66 68 70 74 78 81 82 82 81 87 90 94 96 98 101 106 110 114
24 24 27 26 30 36 40 41 40 39 40 42 43 45 47 48 49 50 52 56 59 62 64 66 68 72 75 78 80 83 85 88 92 93 90 96 99 103 106 107 110 114 118
29 28 27 28 31 33 35 39 42 43 44 46 47 47 47 50 53 57 59 62 65 69 71 73 76 79 82 84 87 91 93 94 96 98 100 102 104 106 111 111 114 117 121

GFSSE_250_spd_006.txt.gz
Wind_Speed
35 32 27 28 28 28 30 32 35 35 35 38 41 41 41 42 44 44 45 45 47 48 50 51 52 52 54 56 56 54 55 57 56 56 57 59 60 58 55 56 57 56 56
35 33 32 32 32 33 32 32 33 35 36 36 38 39 43 43 43 44 45 46 48 51 54 54 52 52 53 54 51 50 51 51 52 53 50 49 46 47 48 48 49 47 49
36 33 36 37 37 39 41 40 39 40 40 40 40 41 43 46 44 45 48 50 53 55 56 57 54 52 50 51 46 44 45 46 46 45 46 43 45 44 45 45 45 43 43
31 32 32 35 42 45 46 46 47 45 44 43 44 44 43 46 50 54 56 58 58 58 57 55 53 50 48 44 41 41 45 45 45 46 41 42 43 43 43 42 42 43 42
36 38 42 44 45 49 50 50 50 51 50 50 50 49 51 54 53 54 56 57 57 55 52 52 52 48 44 39 40 41 45 46 45 41 41 41 39 43 43 42 42 41 42
42 44 47 48 48 49 48 52 53 54 54 51 53 55 58 58 57 57 55 55 55 52 51 50 49 45 40 39 41 44 45 42 42 43 43 40 42 46 44 43 42 42 41
47 46 50 50 50 49 47 49 52 55 53 55 56 59 59 60 60 58 55 53 53 51 49 48 46 42 39 41 43 41 44 44 46 40 42 42 45 44 45 44 44 42 43
51 47 49 50 53 54 54 55 52 53 57 60 61 63 62 63 61 53 52 50 50 49 47 45 43 41 41 42 36 37 43 43 39 43 43 43 46 49 48 47 43 43 43
50 50 51 53 55 57 54 59 60 60 61 66 68 66 64 60 54 49 45 46 48 47 44 42 39 38 40 38 38 44 47 49 47 47 45 47 47 47 47 45 45 45 46
51 53 55 59 59 59 61 62 63 67 67 68 65 64 60 50 44 42 40 45 45 42 39 37 37 35 36 38 40 47 50 50 49 46 48 49 50 49 45 45 45 47 48
61 59 60 61 60 60 64 64 69 68 68 66 63 56 47 43 41 37 40 42 41 37 36 37 38 41 42 40 41 49 46 46 48 51 55 57 52 52 47 45 46 46 46
64 65 66 66 67 66 68 67 69 68 65 60 52 46 42 40 38 38 39 40 39 37 37 38 39 42 43 41 42 47 49 52 53 56 52 49 53 52 49 49 47 46 46
63 63 66 64 65 68 66 68 67 62 54 51 47 41 39 38 39 38 39 38 38 37 38 39 41 45 48 47 44 49 51 54 54 51 52 54 58 54 54 53 51 49 47
64 67 65 67 68 64 64 61 59 53 50 49 40 38 37 39 40 40 39 37 36 37 38 39 41 44 42 43 46 50 54 52 54 53 58 62 64 61 57 57 54 52 52
66 67 68 64 64 60 53 52 51 49 46 39 38 36 37 40 42 42 41 39 37 37 38 41 44 47 47 50 50 52 54 56 61 64 65 68 66 68 62 60 58 58 59
68 68 63 61 55 49 47 49 50 45 38 35 36 37 40 39 40 41 42 41 38 38 38 42 46 49 54 54 58 58 64 66 66 69 70 69 67 67 65 60 61 63 65
64 60 58 50 46 44 47 48 46 37 33 34 36 39 38 39 38 39 42 42 40 39 40 42 46 50 53 57 64 68 72 72 72 72 71 65 67 67 64 66 69 69 68
54 49 45 42 43 44 47 43 36 34 34 36 39 39 38 38 37 38 39 42 42 41 41 42 45 51 56 61 65 67 68 69 69 67 67 69 67 66 68 71 71 68 68
43 41 38 40 42 45 45 35 36 35 36 39 38 38 37 37 37 38 38 39 42 43 43 44 46 50 56 58 60 61 63 62 64 65 66 66 68 70 72 71 69 72 72
35 36 36 39 44 44 35 35 36 38 39 38 38 37 36 36 38 39 40 41 43 43 44 46 49 51 53 54 56 58 60 64 64 66 68 71 73 73 73 73 75 77 78
34 35 34 37 36 32 31 33 36 37 38 38 38 38 37 37 37 39 43 44 44 45 47 48 49 51 54 55 57 60 63 67 68 71 73 74 75 76 76 79 82 83 86
34 36 37 34 29 31 30 32 35 36 37 38 39 39 39 38 39 41 42 43 44 47 49 51 54 57 59 61 62 64 67 72 73 75 75 77 77 79 83 86 88 91 92
33 32 30 24 26 30 33 34 35 37 37 37 38 40 41 41 43 44 44 45 46 49 50 52 56 58 62 66 68 68 70 70 72 77 79 82 85 87 90 93 95 98 100
28 27 24 25 23 25 26 28 31 37 39 40 41 43 44 45 46 47 48 49 50 51 52 56 59 62 64 68 72 76 77 77 78 76 82 87 90 92 96 101 103 105 106
29 26 24 24 24 25 26 27 30 32 35 38 41 42 44 45 47 48 51 53 55 56 57 60 63 66 68 71 73 77 80 84 87 88 84 90 94 97 96 99 102 105 109
29 29 29 26 27 28 30 32 34 36 38 40 42 44 46 49 51 52 53 56 59 61 64 67 69 72 74 77 79 81 83 87 90 90 86 84 86 93 99 102 107 110 115

GFSSE_250_spd_009.txt.gz
Wind_Speed
34 35 33 31 30 31 30 29 30 31 32 31 33 36 36 38 38 40 41 44 47 47 49 50 51 52 52 54 58 57 59 61 61 59 60 60 59 58 57 58 59 57 56
37 37 35 30 30 34 34 33 33 34 35 36 36 37 40 41 42 41 43 45 46 47 47 48 51 54 59 58 59 59 59 61 60 55 56 55 53 53 51 51 48 48 50
40 41 38 35 33 33 36 38 38 39 40 41 43 43 44 43 45 48 47 46 48 52 55 57 59 60 62 61 59 59 59 58 52 48 50 49 48 47 45 43 45 47 47
45 44 46 40 32 31 34 37 41 43 45 47 47 47 52 53 51 52 53 54 57 57 57 59 60 61 59 59 59 58 58 55 47 44 48 48 48 44 42 43 44 45 44
48 46 41 37 35 37 40 42 44 47 49 51 52 53 54 54 56 58 60 60 63 64 61 61 60 60 59 58 60 59 56 49 44 45 47 48 46 43 42 43 44 46 48
47 46 46 43 43 43 43 46 45 48 46 47 50 51 53 54 56 59 59 61 65 63 64 65 61 59 57 58 58 57 49 43 43 46 49 49 48 45 45 43 47 46 46
49 44 42 45 48 50 50 48 48 49 50 53 55 54 52 56 59 63 66 67 65 65 64 59 55 53 54 55 55 49 42 44 47 47 50 49 49 48 43 45 44 44 47
52 51 49 44 48 50 52 47 49 52 54 56 58 58 59 61 64 68 68 63 66 61 57 52 49 50 51 51 49 43 42 47 49 49 49 48 50 44 47 44 45 47 47
58 52 45 46 52 53 49 50 52 56 59 61 60 62 62 67 67 64 65 64 55 51 48 47 48 49 49 48 46 44 45 47 48 48 49 53 55 50 50 46 48 48 48
53 49 49 51 55 54 52 57 59 62 66 68 68 69 66 68 65 67 58 51 46 44 45 48 48 48 46 45 44 44 45 46 51 51 50 51 58 57 54 55 54 54 50
52 54 55 56 56 58 59 62 65 67 68 68 69 69 69 66 64 55 49 42 41 45 46 46 47 47 44 44 45 46 47 48 50 47 53 60 59 55 57 57 58 52 51
61 60 62 62 62 62 62 64 64 64 67 72 70 68 66 61 55 50 40 38 42 45 45 46 45 45 45 45 47 48 46 46 48 48 53 56 56 58 61 60 55 55 58
65 66 67 67 66 64 63 65 66 65 69 70 68 62 60 55 51 39 37 41 43 45 46 46 44 43 43 45 47 49 50 51 50 52 55 58 61 63 61 58 58 64 62
69 70 68 68 67 67 67 68 66 69 69 65 60 58 56 53 42 37 41 44 42 44 45 45 44 43 44 45 48 50 55 57 55 52 56 60 62 62 61 63 64 69 66
65 68 67 67 69 70 71 72 73 68 61 57 57 55 51 44 37 41 44 45 43 42 43 43 44 43 44 47 50 54 54 57 55 54 56 60 62 65 67 69 70 72 74
71 70 69 68 67 69 69 69 65 60 54 54 53 52 43 38 39 43 44 45 43 43 43 42 44 45 44 47 51 53 56 58 60 61 63 65 70 73 74 76 79 77 75
73 71 68 67 65 65 65 61 58 52 51 51 50 40 38 39 42 43 45 44 42 43 43 42 43 45 45 47 51 55 59 65 66 67 70 73 74 78 80 82 84 79 73
74 70 69 68 68 66 59 51 49 49 49 50 43 40 41 43 43 41 40 41 41 42 42 43 42 43 46 48 51 53 58 62 65 71 74 77 79 77 80 79 77 78 78
66 62 63 59 57 53 46 43 44 48 49 43 39 41 43 41 40 38 38 39 40 40 42 43 43 44 45 47 50 52 54 58 61 64 66 69 70 72 72 74 76 78 78
53 50 49 46 44 41 39 39 45 45 39 40 40 40 39 40 42 39 39 40 39 37 38 40 42 43 45 48 50 53 56 57 61 63 66 68 71 72 74 76 78 81 84
43 42 41 39 34 34 36 40 40 32 36 38 38 38 39 40 41 41 40 41 42 44 44 45 45 46 45 46 49 54 58 60 63 66 69 72 74 77 80 82 84 86 88
36 35 33 31 32 33 36 36 35 36 37 38 37 39 40 40 41 42 44 46 48 49 49 49 50 53 54 53 54 55 57 63 64 67 72 74 76 78 81 85 87 89 91
32 32 31 31 32 32 31 30 31 33 35 35 38 40 40 41 42 43 45 46 48 49 50 51 53 55 58 60 60 61 63 66 67 73 78 81 82 85 87 90 94 97 99
32 29 26 26 26 28 28 30 30 32 32 31 32 34 36 38 40 42 44 46 49 51 53 55 56 57 60 64 67 68 69 69 72 70 78 85 88 91 94 98 101 103 107
33 29 28 28 27 26 28 29 31 32 32 34 36 37 40 41 42 45 47 49 51 54 56 58 60 63 64 66 69 72 74 78 79 77 75 85 90 95 96 99 101 104 106
34 28 28 30 30 30 32 32 34 36 38 40 41 43 46 49 51 53 55 57 59 61 62 63 65 66 69 71 73 75 77 82 85 87 87 87 88 92 96 99 102 106 109

GFSSE_250_spd_012.txt.gz
Wind_Speed
40 38 37 38 37 34 33 35 35 34 32 31 33 34 36 37 39 40 43 44 46 47 47 48 50 51 52 53 56 57 59 58 60 62 65 66 67 66 66 67 64 62 59
44 42 42 40 39 36 36 36 37 36 36 34 35 36 38 40 43 46 47 47 49 50 52 54 54 54 54 56 59 60 62 65 65 66 68 67 67 66 66 64 58 55 50
49 45 42 42 40 38 38 38 39 37 38 38 39 40 42 44 45 47 51 53 56 56 57 58 59 60 60 61 61 65 67 66 67 66 65 65 66 63 56 55 50 46 45
53 51 46 47 46 43 42 41 36 33 37 40 41 44 47 49 50 51 54 56 58 58 60 62 64 63 67 69 67 63 65 65 64 64 64 64 62 53 51 51 51 46 44
54 52 49 49 49 46 47 42 40 39 40 42 47 48 46 46 49 52 52 55 58 61 62 64 66 66 65 64 66 64 64 61 61 64 64 62 54 50 51 52 52 48 48
55 55 53 52 51 44 41 43 45 45 44 46 46 45 48 49 52 55 57 57 60 61 64 67 68 68 67 66 63 63 60 59 59 62 62 57 50 52 51 52 52 52 50
61 58 55 54 51 47 49 51 51 49 48 47 48 51 52 54 57 62 63 63 64 65 69 70 67 66 65 61 59 57 58 58 60 60 59 54 51 50 53 55 52 51 51
62 60 58 57 54 51 51 48 51 48 51 50 50 53 55 60 66 69 70 71 70 70 70 68 65 59 56 55 55 55 55 57 58 58 56 53 51 52 53 54 51 55 52
67 63 61 60 58 55 51 51 48 49 54 55 56 58 62 64 65 68 71 69 68 68 64 60 56 52 50 52 52 53 54 55 55 53 52 51 51 54 55 52 54 58 59
68 69 65 60 61 59 55 50 49 53 55 58 61 62 65 64 65 67 68 71 65 63 59 55 49 48 50 51 52 52 53 54 53 51 50 51 53 54 52 54 55 61 61
67 61 52 52 67 54 56 54 55 58 61 63 66 67 66 65 67 69 70 69 63 58 54 47 44 47 50 51 52 53 52 51 51 50 51 52 52 55 58 56 59 66 63
67 67 67 60 53 51 53 56 59 63 65 68 70 70 70 72 70 72 68 64 58 54 46 43 45 48 50 52 52 52 51 50 51 51 53 54 53 56 59 53 59 61 63
70 68 62 64 64 62 60 62 62 66 68 71 74 74 74 73 71 69 64 60 52 46 43 44 48 50 49 49 50 51 51 50 51 53 55 57 55 56 57 58 60 63 66
72 72 70 66 65 65 66 66 65 66 68 73 74 73 72 70 68 65 61 55 48 42 44 46 48 49 49 48 48 50 51 51 52 53 57 60 60 59 60 59 60 66 68
75 74 72 70 69 68 68 70 68 68 70 69 70 68 67 67 63 59 55 46 41 43 44 48 49 48 48 48 46 49 50 52 53 56 59 63 66 66 65 65 62 66 70
72 71 70 65 65 66 66 67 69 70 72 70 68 70 66 60 58 56 48 43 43 44 46 47 45 45 46 45 46 47 49 51 54 58 61 65 68 72 71 72 70 71 74
74 68 69 63 64 69 70 70 74 72 71 69 69 67 58 57 57 50 44 44 45 42 43 42 43 42 43 43 45 46 46 48 52 54 60 64 68 72 76 76 79 81 83
75 74 71 71 73 73 72 75 75 72 71 69 63 54 56 53 50 44 44 42 42 41 41 41 41 40 41 43 44 45 46 47 49 52 55 59 65 72 78 84 85 86 89
70 73 71 69 72 73 73 71 71 63 58 53 51 52 53 45 44 41 43 43 44 43 43 43 42 43 46 46 47 47 47 48 50 52 55 57 60 64 68 73 78 81 83
50 57 63 67 69 66 64 66 63 56 49 47 47 48 40 41 42 41 41 41 45 48 47 48 48 48 50 51 53 54 54 54 56 57 59 61 63 66 69 72 76 79 81
42 44 47 50 52 50 51 53 51 42 44 44 46 42 39 41 41 42 44 47 47 49 51 51 52 51 51 53 55 58 59 59 62 63 65 67 69 72 74 76 79 82 84
41 40 43 43 44 45 44 42 39 40 41 43 42 39 41 39 39 40 45 46 45 46 47 48 50 52 52 53 56 59 62 64 65 66 69 72 74 78 82 84 87 89 91
39 37 38 39 39 36 35 36 37 38 40 36 35 36 37 38 37 38 40 42 42 43 45 48 51 54 55 55 57 59 62 66 69 74 77 79 80 83 86 90 93 95 98
37 37 37 36 33 33 34 33 34 36 35 35 36 38 39 38 38 41 43 44 45 48 50 52 55 58 62 63 64 65 66 66 68 69 79 85 87 89 92 94 97 101 104
39 37 37 34 34 29 28 30 32 34 37 38 39 40 42 43 44 44 46 47 50 53 55 57 59 61 64 67 69 71 73 74 75 72 71 80 88 91 94 98 103 105 107
40 39 38 38 34 34 34 34 35 38 40 41 42 44 44 44 45 49 50 53 55 58 61 65 67 69 72 73 74 75 77 80 82 83 81 81 82 87 95 100 104 105 107

GFSSE_250_spd_015.txt.gz
Wind_Speed
41 41 39 39 37 36 36 36 35 34 36 33 34 36 36 34 36 38 39 42 44 46 48 50 52 54 55 58 58 58 57 58 58 60 62 63 63 66 68 68 67 68 68
49 48 48 47 44 40 38 40 38 37 41 40 38 39 40 39 38 40 42 43 46 48 51 54 56 59 61 61 63 64 62 61 63 63 64 66 66 68 67 68 67 68 67
54 53 52 51 47 42 40 42 42 42 44 43 42 35 32 37 39 41 45 46 49 50 54 56 58 61 62 64 65 66 64 66 68 70 69 69 67 66 67 67 67 67 67
57 57 56 54 50 48 45 43 47 46 45 45 44 34 39 43 44 47 46 48 50 49 51 54 59 61 63 64 68 69 66 67 70 70 68 68 67 67 65 64 66 66 62
58 58 58 57 55 50 47 46 50 47 48 47 44 41 43 46 45 48 48 53 54 55 59 64 64 66 68 67 69 70 70 70 68 69 68 68 66 65 64 62 64 62 53
60 61 60 58 57 54 51 49 51 53 48 45 45 46 47 49 51 51 54 57 61 63 67 69 70 72 70 71 70 72 72 70 69 69 65 63 61 62 63 61 60 55 51
66 64 62 60 57 55 53 55 55 55 51 48 50 57 55 52 56 52 58 60 64 66 67 71 69 68 69 69 69 68 66 62 61 60 60 59 60 59 62 61 55 51 51
71 69 65 63 60 60 61 58 57 58 55 52 48 51 54 54 56 59 57 63 68 69 71 68 67 73 71 67 65 61 59 55 53 54 54 56 58 59 58 56 53 53 53
69 71 70 67 65 64 62 63 61 60 58 57 51 49 52 57 60 61 65 68 70 67 69 71 71 70 65 62 59 55 53 51 51 52 53 55 56 58 57 54 53 56 56
69 66 67 73 69 66 64 65 63 64 60 60 55 52 56 59 63 66 70 73 75 76 70 74 72 66 62 58 52 51 48 49 50 52 54 55 56 54 54 54 53 54 54
79 76 70 66 68 68 65 61 58 54 61 62 55 56 61 63 66 70 74 77 79 74 73 73 69 64 57 52 49 48 50 51 52 53 53 54 54 52 52 54 53 54 55
81 78 76 70 67 70 70 62 61 60 59 52 56 59 61 65 70 72 75 73 71 69 74 71 67 56 51 48 48 49 50 52 52 52 52 52 53 51 52 55 55 56 56
82 78 77 76 73 67 66 67 69 66 64 62 66 67 66 70 72 71 73 73 70 74 75 66 55 49 46 47 49 50 51 51 50 51 50 51 52 52 52 55 59 61 59
81 80 77 77 75 73 70 68 69 66 66 67 68 70 70 72 73 74 73 72 73 75 68 59 52 46 47 49 50 48 46 47 48 48 48 49 52 53 54 57 61 64 65
79 81 76 78 77 75 74 73 72 70 69 70 71 71 69 71 74 76 73 72 73 69 62 52 45 45 46 48 46 44 44 45 45 45 46 48 51 54 57 60 62 68 70
73 76 78 76 76 74 75 74 74 72 71 73 72 69 72 72 76 79 73 70 66 61 52 46 42 41 43 44 43 43 44 45 45 46 47 46 48 51 55 61 65 68 71
66 71 75 73 73 73 73 71 71 73 68 71 69 72 71 75 76 68 66 64 61 51 42 41 43 43 45 45 46 43 44 46 47 48 49 50 51 51 53 56 60 67 73
59 61 68 72 72 70 68 66 65 63 65 70 73 74 75 74 72 67 59 57 47 42 41 42 44 46 50 53 52 51 53 54 54 54 54 55 55 55 57 59 60 62 66
56 56 53 59 69 73 74 70 69 71 70 70 72 72 72 68 62 56 55 46 42 42 42 44 47 49 51 52 54 54 56 57 57 57 58 60 61 63 63 64 65 67 69
55 55 54 57 55 58 68 72 72 71 69 69 69 66 59 56 54 51 47 43 45 45 45 45 46 48 49 51 52 53 54 57 58 59 60 63 64 67 70 70 72 73 76
55 51 49 50 49 51 56 57 57 56 59 59 56 53 51 48 48 46 43 43 41 40 42 42 44 44 47 50 52 54 56 59 61 63 65 67 69 72 74 75 77 80 82
55 52 49 48 48 43 41 44 45 48 49 50 49 48 46 45 43 40 40 39 41 43 44 45 47 48 49 51 53 55 58 61 63 67 70 73 74 77 79 80 82 85 87
54 52 49 48 47 42 40 40 44 45 45 44 43 42 42 40 38 40 41 43 43 45 46 48 51 53 54 54 58 60 63 67 70 76 78 80 81 82 84 85 88 89 91
53 50 49 47 43 39 38 38 40 40 39 39 39 36 36 38 40 41 43 45 48 49 51 54 57 59 61 64 67 68 70 72 74 75 84 87 87 87 89 92 94 97 98
53 49 48 46 41 37 37 38 38 38 37 35 35 36 38 41 42 45 47 50 51 52 54 57 61 65 68 71 74 76 79 82 83 83 81 84 88 91 91 93 95 98 100
54 51 48 45 40 38 38 38 38 37 36 36 38 39 42 43 46 48 52 54 55 57 60 63 67 70 74 77 81 83 86 90 95 96 93 90 86 85 90 94 97 100 104

GFSSE_250_spd_018.txt.gz
Wind_Speed
51 47 43 40 37 36 34 33 33 31 33 34 34 34 32 34 35 37 36 36 37 39 41 43 45 48 49 52 55 56 58 61 65 65 67 67 67 66 66 65 64 66 67
54 54 50 46 43 43 42 43 41 38 36 38 39 37 37 38 39 40 42 42 41 43 42 43 46 47 52 52 51 56 59 62 64 66 66 68 68 67 70 69 70 70 70
57 55 55 52 49 49 48 49 47 43 39 40 43 43 40 40 41 34 35 39 42 45 46 47 51 51 54 58 62 64 66 66 69 68 68 68 70 69 69 70 70 69 68
60 57 55 55 53 52 52 52 51 48 45 44 45 47 43 43 42 42 41 44 45 49 51 53 56 57 58 63 67 68 73 67 66 66 69 70 67 69 72 70 68 68 67
63 63 59 56 56 55 55 54 53 52 50 49 49 49 44 45 47 47 46 48 51 53 55 54 56 58 64 66 70 69 65 68 68 66 65 66 67 67 67 66 66 65 64
64 65 64 61 59 58 57 57 56 55 54 51 51 51 47 47 47 51 54 58 59 56 56 57 55 62 64 67 71 69 70 70 66 62 63 61 59 59 59 61 61 60 59
68 68 67 65 61 60 60 59 58 57 57 54 53 53 50 51 51 56 58 59 58 57 59 61 67 69 75 77 72 72 73 66 61 57 57 55 53 52 52 53 56 58 57
71 71 68 68 67 65 64 62 62 60 58 57 56 56 56 57 57 51 51 52 54 59 61 64 69 72 77 73 70 73 71 63 59 54 51 48 47 46 47 50 51 54 56
75 73 72 70 70 70 67 67 65 63 63 62 62 61 62 62 61 56 55 55 56 61 66 68 74 77 74 71 73 75 68 59 53 48 47 46 46 47 49 50 53 55 55
73 72 73 73 72 73 71 72 71 69 66 66 65 61 63 65 63 63 59 59 60 62 66 73 73 73 70 71 75 69 59 52 48 45 45 47 49 49 49 50 51 53 54
80 79 77 77 74 73 69 69 69 68 70 67 65 60 55 45 55 57 58 58 63 68 69 72 74 69 68 71 72 64 54 47 45 45 48 49 47 47 48 48 48 50 51
80 82 83 79 77 74 73 70 67 66 65 66 66 63 60 62 66 67 63 68 69 72 72 72 75 72 70 70 66 54 47 46 46 48 47 44 45 45 45 45 46 47 49
74 79 82 81 79 76 76 76 78 77 72 67 63 65 67 67 68 69 69 70 70 74 75 72 77 74 68 67 57 48 47 45 46 47 46 44 44 44 44 44 46 47 48
79 78 77 78 79 79 77 77 77 75 74 74 70 67 66 66 69 69 69 72 73 74 73 75 74 67 67 58 47 41 41 42 42 42 43 45 45 46 46 44 45 47 47
73 76 78 78 79 79 78 77 79 77 76 75 73 72 72 72 72 71 71 72 75 75 73 73 74 67 59 45 40 43 43 43 43 43 43 44 44 45 47 48 49 50 48
69 67 70 73 74 77 80 76 77 77 76 73 73 73 73 73 74 70 70 73 72 71 68 69 65 61 45 40 38 41 44 46 47 48 49 51 52 53 54 54 54 54 53
70 65 63 64 68 71 74 76 77 73 74 71 70 70 71 71 68 65 67 69 70 67 65 62 59 51 43 42 41 45 47 48 49 50 51 52 53 54 55 57 58 60 60
70 68 65 63 64 63 66 70 74 74 70 69 67 66 66 62 62 65 70 70 69 63 60 57 53 47 45 44 45 46 46 46 47 48 50 52 54 55 56 57 59 61 62
73 69 66 63 61 59 60 60 63 66 68 66 66 63 63 63 66 71 70 69 61 57 53 50 48 46 43 43 45 46 47 47 48 51 53 55 56 58 60 62 64 67 69
75 72 66 63 62 61 59 56 55 52 57 64 69 71 71 71 73 72 66 58 53 53 47 44 43 42 44 46 47 47 50 51 52 53 55 57 59 61 65 66 68 71 74
75 72 67 62 61 58 53 52 53 53 56 57 60 63 66 65 65 59 54 52 50 46 42 42 43 44 47 49 50 51 53 56 58 61 64 67 69 71 74 75 78 81 83
72 71 69 64 59 57 51 47 47 47 49 51 52 52 52 53 52 51 51 48 45 43 42 43 46 48 50 53 55 57 59 61 64 68 70 74 76 79 81 84 87 90 92
70 69 68 65 60 55 51 47 46 47 48 47 46 47 48 47 47 47 45 42 41 42 43 46 48 52 54 57 59 59 61 65 67 76 80 82 83 87 89 93 97 99 100
68 68 66 65 61 54 49 47 47 48 48 47 46 44 44 44 43 42 41 42 41 44 48 51 53 56 58 62 63 66 67 68 71 74 86 93 96 99 103 108 109 108 104
64 67 67 63 61 55 49 48 46 45 46 45 43 42 40 40 41 41 42 42 46 50 53 55 59 61 65 66 70 73 75 77 80 79 77 90 98 105 110 110 103 99 98
63 64 65 64 61 54 50 47 45 44 46 43 41 40 40 41 42 42 44 47 51 55 58 61 64 67 69 71 75 77 81 83 90 93 92 95 98 107 108 100 99 100 100

GFSSE_250_spd_021.txt.gz
Wind_Speed
49 48 48 49 46 41 38 35 33 32 32 32 29 30 31 31 30 30 32 34 37 39 40 41 42 42 41 41 44 49 51 53 55 57 63 63 65 65 67 66 64 64 66
53 54 51 50 51 48 44 40 40 38 41 40 38 38 36 36 36 34 36 37 37 38 37 39 43 44 43 46 51 52 54 56 57 62 64 64 63 64 63 63 66 67 67
57 56 56 52 53 53 51 48 45 46 47 47 46 42 41 40 39 38 38 39 38 40 41 42 44 48 50 52 52 55 54 55 60 67 64 63 64 66 67 66 63 64 67
62 58 60 57 54 55 55 53 52 51 50 50 49 47 46 45 45 42 42 42 43 44 48 48 51 54 54 55 56 57 59 64 67 69 66 65 69 68 63 63 63 63 64
66 63 61 60 58 58 58 57 56 54 54 54 53 51 49 48 49 48 46 43 47 48 50 53 56 57 55 53 57 63 64 68 72 69 68 71 70 63 58 57 58 60 60
69 68 65 64 62 61 60 60 59 58 56 55 55 53 53 51 49 49 50 49 48 50 54 57 58 56 52 56 59 62 69 70 69 64 68 70 65 58 54 53 52 52 51
72 72 71 69 66 64 63 62 61 60 59 58 59 58 55 53 52 51 51 50 53 54 53 52 50 51 55 59 61 65 68 69 64 65 69 64 58 52 47 44 43 44 44
67 75 77 73 70 68 66 65 64 64 63 63 62 62 60 57 55 53 53 57 58 60 60 57 58 56 59 60 65 69 68 68 65 67 65 58 50 45 42 40 42 43 44
77 64 72 79 74 71 70 69 66 66 67 66 66 64 62 61 59 57 56 53 60 61 54 52 56 57 59 65 69 71 71 71 68 68 62 51 44 41 41 43 45 44 45
76 78 69 62 69 78 73 71 68 68 68 69 70 70 67 65 65 64 57 59 55 52 56 58 62 64 66 70 71 73 70 70 68 64 54 46 44 43 45 44 42 43 44
75 76 81 78 74 66 66 75 73 71 70 69 70 71 70 70 66 65 62 61 65 63 66 68 68 70 70 72 72 71 68 71 68 58 48 46 45 44 44 43 43 42 41
70 73 77 79 77 77 75 72 70 70 70 71 69 69 67 66 60 60 59 63 64 66 67 66 69 69 71 73 71 69 68 68 62 49 42 42 42 41 41 42 43 41 41
69 74 72 75 77 80 79 78 77 75 75 76 74 74 69 70 72 72 69 65 65 64 66 68 70 73 71 69 69 65 64 64 51 41 43 41 38 37 37 38 39 37 39
66 68 76 75 74 73 75 76 78 79 80 79 77 74 72 72 70 70 69 71 71 71 70 72 71 72 68 67 66 61 62 57 44 41 39 39 39 39 40 42 43 43 44
70 68 67 73 75 73 73 74 75 76 79 80 79 77 74 72 72 73 70 70 71 73 71 72 70 68 67 67 65 59 59 49 43 40 42 42 42 42 42 43 44 44 45
74 72 66 65 68 72 73 74 74 75 76 76 77 76 74 73 71 71 70 70 70 70 69 68 66 67 67 65 62 58 51 44 44 43 43 42 42 43 44 45 46 46 47
76 74 71 66 63 65 65 66 69 72 76 78 78 77 79 76 70 67 66 65 66 67 65 64 66 67 69 63 58 54 48 45 42 43 44 43 43 45 47 47 48 49 49
75 76 72 68 66 64 64 63 62 62 63 66 71 73 74 74 72 67 64 63 64 62 63 64 67 69 64 58 55 51 43 42 42 45 46 46 47 48 49 50 51 54 55
72 74 73 70 69 66 63 63 62 61 57 55 56 58 59 60 61 63 65 63 64 64 66 69 69 66 59 54 52 47 44 44 47 48 49 49 51 54 55 58 60 63 66
70 73 72 72 70 68 66 64 60 60 58 55 54 53 53 50 54 60 64 65 66 68 68 66 64 58 54 51 47 47 46 47 51 53 54 56 58 59 61 62 64 68 70
69 70 69 71 71 68 67 65 60 57 54 55 52 51 50 50 54 57 58 61 62 61 60 60 55 53 52 48 48 48 50 52 56 59 60 62 63 65 67 70 72 75 78
69 69 68 69 70 68 67 65 61 57 55 53 50 48 48 47 51 55 56 57 55 54 55 53 51 50 48 49 50 52 55 56 59 63 66 68 70 73 76 78 80 84 86
67 70 69 67 67 67 66 64 62 59 56 53 51 49 48 49 50 50 50 50 51 52 51 50 48 46 48 51 54 56 59 62 65 71 73 74 76 81 83 86 87 92 94
63 67 68 66 64 65 66 64 62 58 56 51 50 48 49 50 51 51 49 49 50 50 48 48 46 49 52 55 58 61 64 67 68 70 79 85 86 89 91 94 98 102 106
58 62 63 65 62 62 64 65 58 59 56 51 49 49 50 50 49 48 48 47 47 47 47 48 50 53 56 60 63 67 71 72 73 72 75 85 90 95 98 101 106 111 115
56 56 57 61 63 60 62 63 62 58 54 50 50 50 50 50 48 47 45 46 48 48 49 52 54 57 60 64 68 72 76 78 81 81 80 83 87 94 102 107 114 119 122

GFSSE_250_spd_024.txt.gz
Wind_Speed
46 46 45 43 42 42 43 42 40 38 36 34 35 37 37 31 30 29 29 29 29 29 32 35 36 39 40 41 43 43 45 47 50 51 54 57 57 59 62 65 62 61 63
52 50 50 50 49 46 46 47 45 44 43 41 39 41 39 39 38 38 36 35 36 35 35 36 38 39 41 42 44 46 50 51 51 54 57 59 59 65 68 68 64 64 68
59 57 56 54 54 52 49 48 50 48 46 46 44 45 44 44 46 43 40 41 39 40 40 40 40 42 45 48 50 52 53 54 53 55 58 60 67 69 65 64 65 67 66
63 62 60 58 57 57 55 52 51 53 51 49 50 50 51 50 49 47 44 45 44 44 45 43 45 46 48 50 53 56 55 54 54 58 58 64 66 63 60 66 68 66 61
66 66 65 64 64 61 60 60 56 55 56 54 52 53 54 54 54 52 48 47 47 47 48 46 48 49 51 55 56 57 55 54 59 58 64 66 67 66 66 69 65 60 55
69 70 70 69 67 65 64 63 62 59 59 58 57 56 54 55 54 54 52 50 50 51 52 51 52 51 54 54 54 50 50 54 56 65 68 69 71 68 69 68 61 54 48
73 73 73 72 72 70 69 66 66 65 62 62 61 59 58 57 57 55 56 55 54 53 53 54 54 57 60 61 52 51 55 57 64 68 68 72 69 68 67 65 52 45 41
76 77 77 74 74 74 72 71 70 68 66 66 64 63 62 60 59 59 58 59 59 58 56 54 57 59 54 51 53 57 62 64 69 72 72 71 65 68 66 58 46 42 42
78 80 79 80 78 69 71 74 73 72 70 68 68 66 66 64 62 62 62 62 62 61 61 63 58 55 56 60 60 64 65 67 69 71 71 68 65 62 61 50 44 44 46
75 80 80 83 81 80 70 57 71 73 77 74 71 71 69 68 66 65 66 66 65 65 67 66 61 61 62 66 65 67 65 70 68 70 67 64 61 62 53 44 45 45 44
68 71 74 79 83 84 80 71 62 64 80 75 74 74 72 70 69 70 66 66 66 65 66 61 58 61 62 63 64 64 69 70 68 67 66 63 60 57 43 43 42 37 36
66 65 65 68 74 76 81 83 74 65 61 60 65 75 73 70 68 67 66 66 66 65 64 64 69 68 68 68 69 72 69 70 67 65 62 60 59 50 46 45 41 36 35
68 68 66 65 69 76 74 72 82 80 77 73 71 70 69 68 68 68 70 71 72 72 70 69 70 67 67 68 70 71 70 66 65 65 63 59 54 48 46 44 42 40 41
72 71 69 65 63 66 70 73 73 76 80 79 80 78 79 76 75 76 77 77 75 75 73 71 73 70 68 69 70 70 67 64 64 64 61 57 50 46 45 43 42 40 41
73 73 71 67 64 62 63 68 72 73 78 81 81 80 79 77 78 78 78 79 76 75 74 72 73 71 69 67 69 67 66 65 65 65 58 54 51 48 44 41 40 39 40
66 70 71 71 67 64 63 62 64 70 73 74 77 78 77 76 76 77 76 75 75 74 76 71 72 68 65 63 64 64 65 66 67 61 57 53 49 45 41 41 42 42 42
62 64 69 71 71 69 65 63 63 64 68 74 72 70 71 72 72 73 73 75 77 77 74 73 69 65 65 61 63 65 66 68 67 57 54 49 47 45 44 45 47 47 47
61 62 64 69 71 70 69 66 65 66 64 63 64 68 68 64 66 69 70 71 72 72 73 71 66 64 62 63 66 66 69 67 62 55 52 49 49 48 49 51 52 53 54
57 62 63 64 68 69 70 69 68 67 65 62 59 58 57 57 55 53 53 55 56 58 60 62 64 64 64 67 67 65 64 60 57 53 53 51 52 52 55 56 59 59 60
58 60 62 63 63 64 69 70 70 68 66 65 62 60 58 57 55 53 53 54 56 57 56 59 62 64 66 66 63 62 59 57 55 52 55 54 56 57 60 60 62 65 67
58 60 61 61 61 62 64 67 69 68 64 64 63 62 60 58 54 52 53 53 52 52 54 55 58 61 60 61 60 57 56 56 54 55 56 57 60 61 64 66 68 70 71
63 61 63 62 59 59 62 64 65 67 64 56 60 62 62 58 56 54 53 53 52 52 53 54 54 54 57 58 58 57 55 54 55 56 59 62 65 67 70 72 74 75 75
58 61 63 62 60 60 60 62 63 64 67 65 64 63 61 60 58 55 55 55 54 54 52 52 53 57 58 57 57 56 54 55 56 61 64 67 68 71 75 77 79 80 82
59 60 61 63 61 62 62 63 63 61 63 65 63 62 62 61 59 57 55 56 55 54 54 55 56 55 54 55 55 55 56 57 59 64 71 73 76 78 81 82 85 87 89
61 58 59 61 57 59 63 66 65 61 60 63 65 63 63 61 59 57 56 57 56 56 53 54 53 51 51 53 55 57 60 62 64 67 72 79 80 84 87 92 95 99 99
62 58 56 59 56 58 63 66 67 63 56 60 66 62 62 62 59 58 58 58 58 56 55 53 50 52 55 57 59 61 64 67 71 72 74 79 83 90 94 98 102 106 108

GFSSE_250_spd_027.txt.gz
Wind_Speed
45 44 44 43 42 40 40 39 39 39 38 39 37 38 37 36 37 36 35 32 30 31 31 31 32 32 34 35 37 40 42 43 44 45 48 51 51 51 53 56 58 62 63
49 48 47 47 47 47 46 45 44 44 44 43 41 42 43 42 43 41 39 39 39 38 39 37 37 39 39 40 41 42 45 46 49 50 54 53 54 53 55 58 64 66 65
53 53 52 53 53 53 51 52 51 50 48 48 47 45 46 47 46 47 45 45 45 45 44 42 41 42 44 44 45 47 48 50 51 54 55 56 54 54 56 63 65 67 68
58 58 58 58 58 58 59 58 57 54 54 52 51 51 49 49 51 52 51 50 50 48 46 46 46 45 45 48 46 48 51 53 56 57 54 46 51 54 61 66 69 69 66
63 63 63 63 62 61 61 61 61 60 59 58 57 56 55 52 52 53 54 54 55 54 52 51 49 49 50 51 52 52 53 55 57 56 50 51 56 59 63 69 70 67 65
67 68 68 67 67 67 66 66 64 64 64 61 61 58 59 58 57 56 56 55 54 55 54 52 53 53 52 52 53 53 57 60 56 50 53 57 60 63 66 69 67 64 63
70 70 70 71 71 71 71 70 70 68 67 66 65 64 63 63 61 60 59 57 57 57 57 56 56 58 57 56 54 55 59 54 54 58 60 65 65 64 68 65 66 63 64
72 73 74 74 74 73 75 75 74 72 71 69 68 68 66 68 66 64 62 61 61 61 60 59 59 59 60 60 61 63 62 60 59 63 64 62 62 67 68 64 63 63 63
77 76 76 77 76 76 77 77 77 76 76 75 75 71 72 70 70 68 67 66 65 65 64 63 62 66 65 64 64 60 59 60 61 60 60 62 68 68 68 64 63 62 57
76 76 77 79 79 78 80 80 81 79 78 70 67 71 75 77 74 73 72 70 70 69 69 68 68 67 65 65 66 66 61 61 67 66 68 67 68 68 64 64 63 60 50
79 77 78 78 77 79 80 81 83 82 82 81 69 67 71 77 79 78 75 76 73 72 72 71 72 65 62 64 64 64 66 67 66 63 64 66 67 65 61 61 61 56 49
73 76 76 76 75 75 76 79 81 84 86 83 81 75 67 62 61 76 78 79 76 75 72 68 66 65 67 70 70 69 69 70 70 67 66 64 66 65 63 61 57 54 48
68 69 71 72 72 72 71 72 72 77 81 84 87 86 80 72 68 62 62 64 69 68 67 66 68 72 74 76 77 74 74 72 69 69 69 67 64 63 62 59 55 51 48
66 68 69 70 68 68 67 67 66 69 70 73 77 78 79 88 79 80 76 75 76 77 77 78 78 79 80 80 80 77 75 73 69 69 68 62 63 61 63 60 54 50 48
67 67 67 67 69 69 69 67 67 67 67 69 73 75 76 73 79 87 83 82 78 79 80 81 79 80 80 81 77 76 75 74 69 66 66 63 63 63 64 60 54 51 48
65 66 66 66 67 68 68 69 68 68 66 65 67 70 71 73 74 76 81 83 82 83 83 79 80 79 79 78 78 77 73 70 66 65 62 65 65 63 64 58 53 50 48
63 62 62 64 65 66 66 67 68 67 67 68 65 66 66 68 69 71 72 73 75 75 76 75 76 76 79 77 74 72 70 67 65 62 64 67 68 62 63 54 52 53 51
62 63 62 61 62 63 64 64 67 68 69 70 69 67 65 61 60 63 66 69 70 70 74 72 66 64 61 61 62 63 63 62 63 65 66 67 65 62 56 54 55 54 54
61 62 63 63 61 60 62 62 62 65 70 71 70 70 68 65 62 62 62 61 60 60 60 59 57 57 55 56 57 58 60 62 63 64 64 63 62 58 56 57 57 57 57
59 60 61 63 63 60 59 59 60 61 64 66 70 72 70 69 66 66 64 61 59 59 59 58 57 55 54 55 56 57 58 58 60 61 61 61 59 56 58 59 59 60 61
57 59 61 62 64 60 59 58 57 60 60 63 63 68 71 71 70 69 66 64 63 61 59 57 55 54 55 54 53 53 53 56 58 59 60 59 58 58 60 61 62 63 65
58 54 57 61 64 63 60 58 57 56 59 59 62 65 68 70 72 70 69 66 65 63 61 58 57 57 57 55 55 54 55 57 60 59 59 58 58 61 62 64 66 66 69
62 60 57 57 61 62 61 61 59 58 56 58 61 63 66 68 70 69 70 67 65 64 62 61 60 58 59 57 56 56 57 57 58 59 57 57 59 62 64 67 69 71 74
67 66 64 59 57 59 58 55 60 60 59 59 61 63 63 67 69 68 67 66 68 65 63 63 61 60 59 58 58 57 57 55 53 56 58 60 63 66 68 71 75 77 79
68 66 67 64 58 59 60 55 57 58 59 58 60 64 65 68 70 70 69 69 69 65 63 63 63 61 61 59 59 60 60 59 56 56 61 65 67 70 72 76 81 85 89
72 69 69 68 65 65 62 57 57 56 56 57 57 61 67 67 70 71 71 70 68 67 66 64 64 63 63 62 61 62 63 62 62 63 64 69 71 76 78 82 87 91 94

GFSSE_250_spd_030.txt.gz
Wind_Speed
41 42 41 41 41 39 37 37 36 36 37 40 38 38 38 37 37 39 38 38 37 37 36 34 34 35 36 36 37 39 40 41 41 42 43 45 46 47 50 51 52 49 48
47 47 46 45 46 45 42 42 43 41 41 40 40 41 41 41 40 42 43 44 44 42 42 43 42 41 42 41 41 42 43 44 46 46 48 49 50 51 52 53 42 46 52
50 51 51 49 48 47 47 47 47 48 48 47 47 47 47 45 44 45 46 47 48 49 47 47 48 48 47 46 45 45 45 45 46 49 50 51 51 53 58 46 49 53 56
53 54 52 53 51 51 51 51 51 52 53 54 54 53 53 50 50 49 47 49 50 52 52 52 53 53 53 52 51 49 49 49 50 52 53 53 57 58 48 51 56 59 61
53 54 55 56 55 56 55 56 57 57 57 57 58 57 56 56 55 55 55 53 53 54 55 56 55 55 54 52 52 51 52 50 50 50 52 53 56 55 54 58 61 61 59
59 59 59 58 58 59 61 62 62 63 63 63 62 62 61 60 60 59 57 58 57 57 57 57 57 56 56 55 55 55 56 55 55 55 56 57 56 55 58 59 58 59 63
65 64 63 64 65 66 66 68 67 67 68 68 67 67 66 65 64 64 63 61 62 62 61 61 60 58 58 58 59 58 57 57 56 58 60 54 56 58 57 57 61 67 64
70 69 70 71 69 70 70 70 71 71 72 72 71 71 71 70 69 67 67 67 66 66 66 66 64 63 62 62 62 62 59 63 61 59 63 59 60 60 62 63 62 63 61
72 74 73 74 75 75 74 76 75 75 75 76 75 75 75 75 74 73 72 71 70 70 71 70 69 69 68 67 67 65 63 65 61 60 62 62 63 65 62 62 59 62 59
75 77 78 78 78 77 77 79 80 79 80 79 79 78 78 77 76 76 73 75 77 76 73 74 74 74 72 73 72 70 69 67 61 59 59 63 66 67 66 63 64 65 63
76 76 78 80 79 79 79 79 81 82 81 83 83 81 82 81 79 77 78 73 70 71 76 78 79 79 78 77 76 73 69 63 62 67 68 72 72 71 70 64 66 67 62
75 74 73 77 75 76 78 78 79 79 81 84 85 86 85 84 84 83 78 74 71 70 66 65 72 79 80 79 74 70 66 63 67 73 72 75 77 76 73 66 66 63 62
72 73 73 70 69 69 68 68 72 74 77 80 81 82 86 86 86 88 85 80 77 74 74 71 67 63 66 68 68 71 72 76 76 79 80 77 73 73 74 66 62 62 59
70 70 68 68 63 64 61 62 64 67 69 73 75 76 75 76 76 75 80 84 86 88 85 79 78 76 77 80 76 78 78 78 77 80 80 77 75 71 67 65 61 62 60
70 68 67 64 62 63 62 63 62 65 67 69 70 71 70 70 69 69 71 72 74 77 78 79 85 84 81 80 81 81 81 83 80 78 80 77 73 67 66 63 63 61 63
66 66 66 65 63 61 63 62 61 62 66 69 72 71 71 70 69 67 68 68 69 71 71 74 74 75 79 80 82 82 81 79 79 78 81 72 67 66 63 62 62 63 64
64 63 64 64 63 62 60 61 61 61 62 67 69 73 73 73 72 68 67 65 67 67 70 71 72 71 71 71 70 72 74 78 70 66 61 60 56 58 60 62 63 64 61
60 60 60 59 61 61 59 58 58 59 57 63 63 68 72 75 73 71 69 67 67 67 66 65 65 66 64 63 65 63 61 61 59 58 57 56 57 57 58 60 61 60 56
57 56 55 55 57 57 57 57 56 56 56 59 59 65 66 70 73 73 72 70 70 69 67 65 63 62 60 60 59 58 59 58 56 57 56 57 58 57 59 58 57 58 57
57 55 55 53 51 54 54 53 57 56 56 58 56 58 64 68 69 71 73 74 73 72 71 69 67 64 62 59 56 55 55 55 56 56 55 54 54 54 56 56 58 57 57
63 61 55 52 51 52 51 53 54 54 56 58 57 56 59 62 65 69 71 70 73 74 73 72 71 69 66 64 60 58 56 57 57 57 56 56 55 57 57 56 58 57 58
66 66 62 58 55 55 52 51 51 51 57 57 57 56 56 58 60 64 66 69 70 71 73 72 73 73 70 67 63 61 59 59 59 58 58 58 57 57 58 57 57 57 57
66 69 69 67 64 56 59 53 48 50 54 55 59 60 58 58 58 60 63 65 67 69 70 72 73 73 71 68 65 63 61 59 61 61 61 60 59 59 59 58 59 59 61
72 71 70 70 69 65 59 57 54 51 51 55 57 57 57 59 61 61 61 64 66 67 68 70 71 71 71 68 68 65 63 62 62 63 64 63 62 62 61 62 64 65 66
78 74 73 70 70 72 64 61 58 56 51 53 56 55 55 55 59 61 64 64 66 67 67 70 71 71 71 71 71 69 66 65 64 64 66 65 65 66 67 68 70 73 74
84 79 74 73 72 72 69 65 60 62 59 60 60 58 56 55 55 58 61 62 65 68 69 70 72 74 75 74 72 70 68 66 68 67 67 67 68 73 73 74 75 77 79

GFSSE_250_spd_033.txt.gz
Wind_Speed
39 37 36 35 35 34 35 35 35 34 34 34 35 35 37 36 36 37 37 37 39 41 40 39 40 41 42 42 41 41 41 41 41 42 44 44 45 45 45 47 48 45 46
42 40 41 40 39 41 41 39 40 40 39 39 38 38 37 38 37 37 39 41 42 42 45 46 46 46 46 46 46 47 47 45 45 47 47 46 46 49 49 50 50 51 52
46 44 44 44 46 46 45 45 44 44 44 43 43 44 44 44 44 45 45 45 45 45 47 48 50 51 52 51 51 51 50 49 51 51 50 49 49 50 50 49 50 49 51
51 51 51 51 51 51 51 51 50 49 48 48 48 49 49 50 49 50 50 49 49 50 50 50 51 54 54 55 55 54 54 53 52 51 51 50 51 51 51 51 52 52 54
54 54 54 54 53 52 51 52 53 52 53 53 52 52 53 54 56 55 56 56 55 55 55 54 55 54 55 57 57 56 56 55 53 54 54 54 54 55 54 56 55 53 53
56 55 54 53 54 54 54 55 56 55 55 57 58 59 60 61 61 62 62 62 62 60 59 59 59 58 58 58 59 58 58 57 57 55 57 57 57 57 57 57 57 57 56
60 59 58 58 59 59 59 59 59 59 61 62 62 64 66 68 67 67 67 66 66 64 64 64 63 62 63 63 62 62 63 61 62 61 59 59 60 62 59 60 59 56 59
63 61 62 63 65 65 64 64 64 65 66 66 68 69 70 72 73 73 72 72 71 71 69 68 68 67 68 68 67 67 67 67 68 66 64 64 64 64 59 59 59 58 62
65 64 63 65 68 69 70 70 70 70 70 71 74 74 75 76 76 76 76 76 76 75 74 73 73 73 74 72 71 71 70 72 73 71 71 70 67 67 61 61 65 68 68
67 68 68 63 62 66 68 70 73 77 76 76 76 77 78 80 81 81 79 79 79 78 77 77 78 76 74 75 77 74 74 77 77 77 76 74 71 65 66 63 69 72 73
73 73 70 70 69 70 71 71 72 74 77 77 77 76 80 82 83 84 85 84 83 82 82 79 78 76 77 76 76 74 70 71 77 76 74 70 68 68 65 69 74 75 73
74 75 76 76 75 73 73 73 72 74 76 76 76 78 79 80 82 85 86 86 84 85 84 83 83 84 80 76 71 69 66 68 70 75 68 67 67 73 73 74 77 77 74
74 76 79 79 78 75 76 77 79 80 80 78 78 77 77 77 80 81 82 81 82 85 87 86 84 85 86 83 78 80 79 75 71 72 74 74 74 77 79 80 79 80 77
72 72 72 73 75 75 77 75 74 75 74 72 71 72 70 70 72 72 75 75 75 76 76 76 78 80 80 84 88 90 90 82 84 82 82 78 82 82 78 77 81 80 77
72 73 73 72 72 72 72 72 72 72 69 67 68 67 66 66 67 69 69 70 70 69 68 68 69 69 70 72 74 75 81 77 76 74 80 74 75 74 75 79 77 71 63
72 70 71 70 71 71 72 70 66 66 64 64 66 65 64 64 66 69 70 70 70 70 69 68 69 69 68 67 66 67 66 67 69 71 70 69 69 73 69 65 62 59 58
71 68 68 68 64 67 68 65 61 60 63 64 64 63 63 64 65 65 67 69 73 74 74 73 72 70 68 66 66 66 65 65 65 67 65 65 63 61 61 59 59 59 57
72 70 64 62 60 61 61 60 59 58 59 59 60 63 60 60 61 59 62 67 70 73 75 76 76 73 71 68 68 66 64 63 61 61 62 61 60 59 60 57 57 58 57
69 70 64 61 62 58 55 56 56 54 57 56 56 59 59 60 59 58 60 63 65 69 71 74 77 76 74 72 71 69 68 65 61 60 58 57 58 57 57 57 57 55 55
68 66 64 57 58 59 55 50 52 49 47 51 53 55 58 58 56 58 59 60 62 65 67 71 74 75 76 75 75 74 72 70 67 65 63 61 60 58 59 59 58 57 57
69 70 66 63 60 61 61 53 49 49 48 50 50 51 52 53 56 57 58 60 60 60 63 65 67 72 74 74 75 76 75 74 71 69 68 66 64 63 63 60 60 59 58
71 72 72 69 63 60 61 60 54 51 49 51 50 49 49 51 53 55 58 59 59 60 59 60 65 66 68 71 73 73 75 76 74 73 72 70 66 65 66 65 63 61 59
73 73 74 76 74 67 65 62 57 56 55 52 53 53 54 52 55 57 59 61 61 61 60 59 61 64 65 67 68 70 72 73 74 73 73 72 69 68 68 67 66 65 62
72 74 76 76 74 75 74 69 62 60 61 59 57 53 51 47 49 51 51 58 60 61 62 62 62 64 65 66 67 68 69 71 72 73 73 72 71 72 71 69 69 67 66
77 78 80 80 79 75 71 76 74 66 63 63 60 55 51 52 51 51 57 58 58 60 62 63 65 67 66 67 68 69 69 70 71 73 75 75 75 75 74 73 73 71 70
82 80 80 83 82 79 76 72 75 72 70 66 63 59 57 59 59 58 60 61 60 60 60 61 62 62 64 66 69 72 73 72 72 74 78 80 80 81 80 78 77 76 74

GFSSE_250_spd_036.txt.gz
Wind_Speed
36 35 34 33 31 31 32 32 31 31 32 32 32 34 34 33 32 33 34 34 34 35 38 40 41 41 41 41 42 42 43 44 46 46 46 46 46 45 48 48 49 50 50
41 38 39 41 40 40 37 36 38 38 38 38 38 38 38 39 38 37 37 36 37 37 39 41 43 44 45 46 46 47 47 49 49 50 50 52 50 52 52 50 49 48 49
46 45 45 45 45 43 41 41 41 43 43 43 42 42 43 42 43 43 43 45 45 45 45 44 45 46 47 48 49 50 52 53 54 53 52 52 53 52 51 51 51 52 52
50 50 49 48 47 47 46 46 48 49 49 49 48 47 47 47 47 48 48 49 49 52 52 51 50 51 51 51 52 52 54 55 56 56 56 56 55 54 54 54 55 55 56
53 54 53 53 52 52 52 52 52 53 53 52 52 51 51 52 51 52 53 53 55 58 57 58 59 58 57 57 57 56 56 57 58 58 57 57 57 57 55 54 56 56 56
57 56 56 56 56 56 55 55 56 55 54 55 55 56 56 56 57 57 58 59 61 62 64 64 64 63 64 64 62 61 62 61 62 61 61 61 60 59 58 60 61 59 60
58 58 58 57 58 58 57 58 58 57 58 58 58 59 60 61 60 62 64 67 66 67 69 70 70 70 68 69 66 67 66 65 66 66 68 66 65 65 64 66 66 66 66
60 60 60 59 59 60 59 60 61 60 61 63 64 64 64 65 66 67 68 69 72 74 74 75 75 74 74 72 73 72 72 72 72 71 71 70 72 69 70 70 72 71 69
62 62 62 63 62 62 64 65 66 66 66 66 68 68 68 69 72 73 75 76 75 76 77 78 79 79 79 75 74 74 76 76 74 74 75 74 73 72 74 75 76 75 71
64 63 63 65 65 65 65 66 65 64 65 64 66 67 69 71 73 77 78 79 79 80 79 80 81 81 81 80 80 78 80 79 76 76 77 77 77 77 71 69 74 72 72
66 65 65 65 68 68 68 67 68 70 71 73 73 73 75 75 77 79 80 80 79 79 80 80 82 83 83 82 82 82 83 83 82 80 80 78 76 69 68 72 71 70 67
69 66 69 71 72 73 74 74 75 76 75 77 80 81 82 81 80 82 85 85 84 83 82 80 80 82 82 83 82 82 83 83 83 82 81 80 82 83 79 77 73 72 77
71 72 73 73 74 75 74 73 74 78 79 80 80 80 83 85 84 84 84 85 83 80 78 79 80 81 81 79 79 79 80 81 82 84 86 86 88 88 86 85 85 83 84
75 75 75 76 76 74 74 74 76 77 79 78 79 80 81 80 79 79 79 76 74 74 74 72 72 74 74 74 73 72 73 72 71 72 72 72 75 79 84 83 84 71 69
77 76 78 79 80 80 76 75 77 79 80 79 79 79 80 78 78 76 74 70 70 71 71 69 69 69 70 71 70 69 70 68 66 67 66 65 66 66 67 66 66 68 68
77 74 75 71 74 75 76 77 77 77 78 77 77 77 77 75 74 72 69 70 68 68 69 69 69 69 70 72 71 69 71 71 70 68 66 64 63 63 64 63 65 64 62
77 76 71 72 71 71 73 73 73 73 72 72 74 72 71 71 69 67 66 68 68 68 67 66 67 69 70 71 72 72 72 74 73 71 69 67 65 65 64 63 63 61 61
71 73 71 68 68 70 70 70 71 70 69 68 66 66 66 66 66 64 63 64 65 65 65 65 65 65 68 70 71 72 73 74 75 74 73 71 68 68 67 65 62 60 59
70 70 67 69 70 69 73 69 67 64 62 64 63 62 61 61 61 61 61 62 62 63 65 64 65 65 65 67 69 70 71 72 74 75 74 74 73 73 71 70 68 65 63
70 69 70 69 67 69 66 63 61 60 59 59 57 59 59 54 51 52 56 58 60 62 63 63 64 65 64 65 68 69 70 71 73 74 75 75 75 75 74 74 72 70 68
74 73 70 67 64 66 65 64 63 61 60 60 59 57 56 55 55 49 53 53 52 57 60 62 62 63 64 64 65 66 68 69 71 72 74 75 75 74 75 76 75 74 72
80 80 77 70 68 66 66 67 65 64 62 61 60 62 62 57 52 52 53 55 55 56 58 60 60 61 62 65 67 67 66 66 68 70 71 72 74 74 75 75 76 76 74
85 84 81 77 73 70 67 69 68 65 65 63 62 63 62 56 52 55 58 60 57 59 61 58 56 59 60 61 64 68 68 67 67 68 69 71 71 73 75 75 75 76 76
88 87 85 82 78 75 71 69 70 69 68 69 71 67 62 58 56 58 61 60 59 60 62 60 64 64 60 61 63 64 64 66 69 70 70 71 71 73 73 74 75 75 76
88 87 87 88 86 81 76 70 68 69 71 70 70 70 73 70 62 59 60 61 65 63 59 61 64 64 62 62 59 60 60 62 63 66 69 72 74 76 77 78 78 78 79
94 94 92 89 87 87 83 75 70 70 71 73 75 73 69 64 67 66 66 66 67 67 67 66 67 68 67 64 61 61 60 59 60 62 65 68 72 77 80 82 83 83 84

GFSSE_250_spd_039.txt.gz
Wind_Speed
33 32 35 35 36 37 36 36 36 35 36 36 35 33 33 34 34 34 34 34 34 33 33 33 34 35 38 40 41 41 42 43 43 45 46 48 49 50 50 51 52 53 54
37 37 36 36 37 36 35 36 34 35 37 37 38 37 38 39 40 40 39 38 37 37 37 37 38 38 40 42 43 44 46 48 48 48 50 51 51 53 53 53 53 53 53
42 43 42 41 41 42 41 42 44 43 41 41 42 43 44 43 42 42 43 45 45 45 45 47 46 46 46 47 48 48 49 50 51 53 54 54 55 55 55 55 55 55 54
47 47 47 47 47 47 46 47 48 48 48 45 45 47 48 48 49 48 47 47 49 49 49 50 51 51 52 54 55 55 56 57 56 56 57 57 57 58 59 57 57 57 56
50 51 51 50 50 51 52 51 52 52 52 52 52 52 52 52 51 50 50 52 53 54 53 54 56 58 59 60 61 62 64 65 64 63 62 62 61 60 59 59 59 60 59
54 53 52 53 54 55 54 55 55 55 55 57 56 56 56 56 55 55 55 54 56 56 58 58 60 62 63 64 66 68 70 70 69 68 68 68 66 65 64 65 66 65 63
54 54 54 54 55 56 57 58 59 60 60 58 58 59 60 58 59 58 58 60 61 62 62 64 66 66 68 70 70 72 73 72 73 73 73 73 71 69 68 69 68 68 69
56 56 56 55 55 56 57 59 60 60 60 60 61 59 60 62 62 63 64 64 65 64 65 67 68 71 73 74 76 77 77 76 76 76 75 75 73 72 72 72 70 70 71
60 60 59 58 58 58 58 59 61 60 61 62 62 63 64 65 66 66 66 65 64 66 69 71 73 75 76 77 78 79 79 78 78 79 79 79 78 78 77 74 75 74 75
62 63 62 61 60 60 61 62 63 64 65 65 65 64 64 64 66 67 69 70 71 73 76 77 79 79 78 79 81 82 81 80 82 80 80 81 81 80 79 80 79 77 76
63 65 63 63 64 64 65 63 64 66 66 67 68 67 68 70 72 74 74 75 79 82 82 81 82 82 82 83 85 86 85 83 81 81 79 80 81 81 79 80 80 79 81
66 65 66 66 66 66 67 65 65 63 67 69 70 71 72 73 73 74 78 80 81 80 80 81 84 82 83 82 81 81 79 79 79 77 76 76 76 77 76 76 77 78 81
71 71 69 70 69 69 69 69 70 71 71 71 72 75 76 76 78 78 78 80 80 83 83 83 83 83 82 81 78 75 74 72 72 71 71 70 70 69 69 69 67 68 69
73 74 73 72 73 73 72 72 73 76 75 76 77 78 78 78 77 78 80 82 83 84 86 83 83 82 81 77 75 73 72 70 70 68 67 67 66 65 64 63 63 61 60
73 72 72 72 73 75 75 75 76 77 77 76 76 76 77 79 79 80 81 83 82 83 84 82 80 78 78 74 73 73 71 71 70 69 69 68 68 67 66 65 64 62 60
76 74 74 75 76 76 77 78 77 77 79 78 76 78 79 79 79 80 79 78 79 81 81 78 76 74 73 71 72 73 73 72 71 70 69 69 68 69 68 67 66 65 64
78 78 78 79 80 79 77 76 77 76 77 77 78 77 78 77 77 77 77 76 75 74 75 73 71 71 69 69 70 70 72 72 72 70 70 69 69 70 70 68 68 67 66
75 76 77 76 75 76 77 75 71 67 64 66 68 68 71 72 71 71 67 67 67 67 67 67 67 68 67 67 66 67 68 69 69 70 70 70 71 70 70 70 70 70 69
78 76 72 73 73 75 74 73 72 66 65 64 63 64 63 63 62 61 61 61 62 60 60 59 60 61 61 63 64 65 66 67 68 68 68 68 69 69 69 70 70 70 70
78 76 74 71 72 74 74 72 70 68 68 66 63 66 64 63 62 59 56 56 60 60 59 59 56 56 57 59 60 62 64 66 66 66 68 69 69 69 69 69 69 70 71
77 76 75 75 74 75 75 74 71 71 73 72 66 68 70 68 66 65 65 60 59 59 58 58 55 56 57 55 55 58 59 60 64 67 69 70 70 69 68 68 69 70 71
76 79 78 77 76 76 76 78 77 76 73 72 72 67 71 71 65 68 64 63 62 62 57 58 59 61 61 61 60 60 59 61 62 63 66 68 68 70 71 70 69 70 71
77 81 83 82 81 81 81 82 82 83 79 74 72 70 69 66 66 64 62 60 61 61 59 61 63 66 64 63 64 65 61 61 61 62 60 62 64 64 66 67 69 71 73
81 83 85 87 88 88 88 88 89 89 86 81 77 73 71 70 72 67 64 66 63 62 65 66 71 69 64 67 66 68 71 69 66 63 63 60 60 63 63 63 64 66 69
89 90 90 91 93 96 96 94 92 90 88 84 78 77 73 71 73 69 67 67 68 70 72 72 74 71 72 72 70 74 73 71 71 67 67 67 65 64 65 64 65 66 66
96 98 99 100 100 101 102 101 99 94 88 85 84 80 78 74 70 70 69 70 72 70 70 73 76 79 76 73 72 74 74 74 75 74 70 69 67 66 64 66 67 68 68

GFSSE_250_spd_042.txt.gz
Wind_Speed
30 30 31 32 33 32 32 33 32 32 33 34 34 33 34 35 36 35 33 35 36 38 39 38 38 38 38 38 38 38 40 42 43 44 44 45 46 47 48 49 50 50 51
32 34 35 34 35 36 36 37 37 38 38 38 39 36 35 36 36 36 38 39 39 41 42 43 42 43 42 41 43 45 45 45 47 48 49 50 51 52 52 54 55 55 55
36 36 36 36 36 35 37 38 39 39 40 39 37 40 41 40 42 44 44 44 44 45 44 44 44 44 47 49 48 50 51 52 52 52 54 56 56 57 58 59 59 59 58
41 39 38 39 41 42 42 42 43 44 44 43 46 48 46 46 46 47 49 48 47 48 47 47 48 48 51 52 53 54 54 55 56 57 59 60 61 62 63 62 62 62 61
45 44 42 43 44 45 47 48 49 49 50 50 50 51 52 51 52 53 53 51 51 51 51 52 52 51 53 55 57 58 57 60 62 64 64 65 67 66 66 66 67 67 65
48 49 49 48 48 48 48 49 51 51 53 54 56 56 55 56 56 56 56 56 57 56 56 56 56 58 59 60 60 61 61 64 67 69 68 70 70 70 71 71 70 70 68
52 52 51 51 51 52 54 54 53 52 52 54 55 56 57 57 57 59 60 61 60 59 59 60 61 62 62 61 62 64 67 69 72 73 72 74 75 74 75 74 75 71 70
56 56 55 54 53 52 52 54 57 57 56 56 57 57 58 58 58 59 60 60 61 62 62 61 61 62 64 66 69 72 73 74 75 75 76 77 78 77 80 78 78 77 75
59 59 58 58 57 57 56 56 56 57 58 58 58 58 59 60 62 62 62 63 63 61 60 63 65 67 69 71 75 76 74 74 77 77 77 80 80 78 81 79 77 76 76
60 61 62 60 60 59 59 59 59 60 59 59 60 62 63 64 64 64 65 65 63 65 67 68 68 69 72 74 75 76 77 76 78 78 79 79 78 76 75 75 75 75 72
61 60 61 61 61 61 62 60 60 60 61 63 63 63 65 64 62 62 63 64 66 67 68 69 71 74 73 76 76 77 78 80 81 80 80 81 77 75 73 67 68 67 68
64 62 63 63 63 62 62 62 61 62 63 65 66 66 67 67 68 68 69 70 71 72 73 73 74 75 76 78 79 80 80 82 82 80 80 78 75 72 68 65 63 63 64
63 62 64 64 64 65 66 66 66 65 65 67 68 70 71 70 71 73 74 73 73 73 74 77 76 76 79 78 80 82 83 81 81 80 78 77 74 70 67 66 65 64 62
66 66 67 67 67 68 68 69 69 70 69 69 70 70 71 72 72 74 75 75 77 78 78 76 78 81 79 83 84 80 82 82 80 78 75 73 70 69 68 67 66 66 65
72 71 71 69 70 70 70 71 70 69 69 70 72 73 73 73 74 75 77 78 77 79 80 80 80 80 81 80 79 78 77 77 73 72 72 69 67 68 68 68 67 67 66
73 73 71 72 72 73 72 71 71 71 71 74 76 75 77 79 80 81 80 78 79 77 82 79 78 76 73 73 74 72 71 70 69 66 66 66 65 65 64 63 63 64 64
77 77 74 73 73 74 74 74 75 76 76 76 75 76 78 78 79 77 78 78 77 77 72 71 70 67 64 63 64 64 65 65 64 61 63 63 64 64 64 63 62 62 62
79 79 78 75 71 75 76 76 76 76 75 73 74 74 72 72 72 72 71 70 69 71 73 68 64 58 58 59 60 60 60 58 57 57 57 59 61 62 62 63 63 62 62
78 78 77 77 76 78 77 76 74 70 67 68 70 71 71 72 71 67 66 65 68 71 69 65 63 62 64 60 58 58 57 56 53 53 53 54 55 57 58 61 63 64 65
79 79 79 78 78 78 78 77 77 75 75 75 75 74 73 72 70 71 69 69 69 73 69 68 67 64 61 60 60 57 55 54 54 54 54 57 58 57 56 59 61 63 65
80 81 81 80 80 79 78 76 76 76 76 70 70 66 67 65 70 70 71 73 75 74 71 73 66 61 61 61 60 57 56 58 61 59 57 58 58 61 62 60 59 59 61
81 82 82 82 81 79 78 79 77 76 75 75 72 72 72 70 72 76 76 77 76 72 68 68 65 64 64 65 68 62 60 66 66 63 64 64 65 66 62 62 62 61 59
78 80 81 83 83 81 79 79 79 80 80 81 82 82 83 83 79 77 79 73 73 70 69 68 70 68 68 71 67 67 68 69 66 68 69 69 70 70 67 66 66 65 64
78 79 80 80 81 83 84 82 81 84 84 85 87 88 86 86 84 83 80 74 72 72 69 70 73 73 75 72 71 72 69 69 68 70 72 73 72 74 71 69 68 67 66
81 81 82 83 84 86 88 90 88 87 88 89 91 92 92 91 90 88 86 70 70 70 73 71 72 72 73 75 77 75 73 70 72 71 73 76 75 74 74 71 72 72 71
83 86 87 88 89 90 91 93 93 94 93 93 96 97 98 98 95 91 84 80 73 73 73 73 73 75 76 76 76 75 74 74 71 71 74 77 77 78 77 77 77 75 77

GFSSE_250_spd_045.txt.gz
Wind_Speed
27 25 26 26 27 27 28 29 30 30 30 30 29 30 32 33 33 33 36 37 36 34 35 37 39 38 41 42 41 41 41 41 42 43 44 45 46 46 46 47 49 51 51
29 28 29 29 29 30 31 32 32 33 33 34 35 35 37 36 37 36 36 36 37 40 40 39 41 42 41 41 43 43 45 45 45 45 47 48 48 50 51 52 51 53 54
34 33 33 34 33 33 33 33 35 36 37 38 39 39 39 40 39 39 40 41 42 43 46 47 45 45 45 45 45 47 46 47 49 51 52 51 52 54 56 58 59 59 58
38 37 35 34 34 37 38 38 36 37 38 38 39 40 41 42 43 46 48 47 48 49 50 50 50 49 49 49 51 50 51 52 53 54 53 54 57 60 62 62 61 62 63
42 41 39 37 36 37 37 39 41 42 43 43 43 45 47 48 50 51 52 52 53 53 53 53 52 53 54 55 54 54 57 56 55 53 56 59 63 65 65 65 66 66 69
43 43 43 41 42 41 41 42 43 44 46 48 50 50 51 52 54 55 56 56 56 56 56 57 58 57 57 58 58 58 56 55 57 60 61 65 67 66 67 68 69 69 70
47 47 47 46 46 46 47 48 47 48 49 50 51 51 52 52 53 54 55 55 55 57 57 57 57 59 60 60 58 56 58 60 60 64 66 67 67 67 69 70 69 71 72
52 52 51 50 50 51 50 51 51 51 51 50 51 52 53 55 56 57 57 57 58 59 59 59 60 60 61 59 61 62 62 62 64 65 66 67 69 69 69 73 72 72 72
55 55 56 56 56 56 55 54 55 55 55 54 54 54 55 56 57 59 58 59 61 62 62 60 60 60 59 60 62 63 64 66 67 68 69 69 71 72 73 73 72 73 73
61 58 57 58 58 57 57 57 58 59 58 57 58 58 58 58 58 59 59 60 61 60 59 60 60 62 64 64 65 63 65 67 69 70 71 70 73 73 75 75 74 75 74
65 63 62 61 60 60 61 61 61 61 62 61 61 61 59 58 59 60 60 61 62 62 65 65 66 67 65 66 68 69 69 70 72 75 74 76 76 76 74 76 75 73 68
68 67 66 65 63 61 61 62 63 63 62 61 62 61 61 62 61 60 63 64 64 65 67 67 68 68 69 71 72 74 74 74 77 75 76 76 76 75 76 72 71 68 66
68 66 64 64 63 62 61 62 62 61 60 61 61 63 64 65 66 66 66 66 65 66 67 68 70 73 75 75 77 76 75 77 75 77 78 76 75 76 72 69 65 64 64
64 62 62 62 62 62 62 62 62 63 63 63 64 66 66 66 67 68 67 68 71 70 70 73 73 75 75 77 75 74 77 74 76 76 75 72 67 68 65 63 62 61 61
66 66 64 63 64 64 65 67 67 66 66 66 67 69 69 68 69 70 72 72 72 72 75 76 77 74 73 73 71 70 71 72 70 68 64 62 60 60 59 60 58 59 58
69 71 69 69 68 68 69 69 69 70 69 69 69 70 71 73 74 75 74 74 73 74 74 73 71 71 72 70 68 72 69 63 61 59 58 55 54 53 52 54 54 54 55
73 73 74 72 71 71 71 72 73 72 74 73 72 72 73 73 73 73 72 72 70 69 70 70 71 69 66 66 66 67 67 65 61 57 54 52 50 51 51 50 49 49 49
73 74 75 75 75 75 75 74 73 68 71 73 71 71 71 73 70 68 69 69 69 70 71 70 66 64 63 69 67 69 68 65 60 54 54 53 48 47 49 47 49 51 51
74 75 76 76 75 76 76 76 76 73 71 70 71 73 71 72 71 73 73 74 74 73 71 67 64 65 68 69 68 71 70 65 61 55 53 49 49 50 52 49 50 51 53
74 75 76 76 76 77 76 74 74 74 74 75 76 77 77 75 75 72 71 70 71 67 69 66 69 71 71 71 71 70 68 64 61 59 57 57 55 57 55 56 58 58 58
76 76 79 79 79 78 77 75 76 77 78 78 79 74 74 72 71 71 71 70 68 68 71 74 74 74 73 71 71 70 69 69 66 65 62 61 60 62 59 59 60 62 62
81 80 79 81 83 82 80 79 80 79 80 81 81 80 80 78 78 78 77 77 77 75 75 75 76 74 74 76 72 68 70 70 70 70 69 66 64 63 62 63 64 62 61
81 82 83 85 86 85 84 83 82 80 80 82 83 83 81 80 79 80 80 79 79 79 77 78 76 77 74 74 73 69 70 71 71 73 71 69 68 68 67 66 64 65 65
86 85 86 85 84 84 82 81 83 83 80 83 84 85 84 82 83 79 79 79 81 80 78 79 82 81 78 75 72 73 72 72 73 71 71 71 71 69 68 66 66 68 68
83 82 83 85 85 84 84 84 85 84 85 85 86 87 89 89 88 88 87 85 83 83 83 82 83 82 76 73 74 74 74 73 72 72 69 71 70 71 72 72 72 72 71
83 84 83 84 85 86 88 88 87 89 92 91 93 94 93 93 93 92 92 92 92 92 90 91 90 82 80 80 76 75 71 73 72 72 72 73 74 75 76 76 76 76 75

GFSSE_250_spd_048.txt.gz
Wind_Speed
27 26 27 27 28 28 28 27 27 27 26 27 27 29 28 29 29 30 31 33 33 34 35 35 35 37 37 38 40 41 42 41 41 43 43 44 45 46 47 48 48 48 50
29 28 28 29 30 30 29 28 28 29 29 29 30 31 31 32 34 35 37 38 38 35 36 39 40 41 44 45 44 43 42 42 42 44 46 47 48 50 50 49 49 52 56
31 29 30 30 30 29 29 30 31 32 32 32 33 34 35 37 38 39 40 41 42 41 43 46 46 47 48 50 49 48 49 49 50 51 51 52 54 53 50 51 53 57 58
36 34 34 34 33 33 33 33 33 33 33 34 35 37 38 38 39 41 42 43 44 47 50 51 51 51 52 51 52 52 52 52 53 55 56 56 54 53 55 58 58 60 58
38 37 37 37 36 36 35 35 37 38 39 40 40 40 41 42 44 45 47 49 51 53 55 56 56 55 54 55 55 54 52 53 56 57 56 55 57 59 58 61 61 60 61
41 42 40 40 40 39 39 38 38 38 39 40 42 43 44 46 48 49 51 53 54 55 56 56 56 56 56 57 56 55 57 57 58 56 57 58 58 58 60 62 62 65 65
42 44 44 43 44 44 43 43 42 42 43 44 45 46 47 48 50 51 52 54 54 55 57 58 58 57 58 58 58 59 58 57 57 57 57 59 61 62 63 63 64 65 66
48 47 46 46 45 46 46 46 45 46 47 47 48 49 49 51 51 51 51 53 53 55 57 57 59 58 57 57 56 55 56 57 59 58 60 62 63 65 64 66 68 67 69
53 52 50 50 50 48 50 51 51 52 53 53 52 53 54 54 54 54 55 56 57 57 59 58 59 59 59 58 60 62 62 63 62 61 63 65 67 68 69 71 70 71 72
56 55 56 56 55 53 53 54 56 56 56 56 57 59 59 60 60 60 60 60 60 60 60 60 61 61 61 62 63 62 62 63 64 66 66 70 70 68 72 73 72 73 74
62 60 58 59 58 58 58 59 59 59 59 61 62 61 61 61 62 62 61 60 60 61 61 62 62 63 64 63 63 64 64 66 68 67 68 71 69 72 74 72 73 74 75
68 67 64 63 62 63 64 64 64 63 64 64 62 62 61 60 60 59 60 61 62 63 63 65 65 65 64 66 65 65 68 70 70 69 72 72 69 69 71 72 71 71 69
71 70 67 66 66 66 66 66 66 64 63 62 62 61 61 61 62 62 63 64 64 65 65 65 65 67 68 67 67 68 68 66 68 71 70 68 68 66 66 65 66 64 60
73 71 68 69 69 67 67 67 64 62 61 62 61 61 64 66 66 65 66 65 65 65 68 69 68 69 70 70 68 68 67 69 70 68 67 65 64 61 59 57 56 52 52
70 68 67 66 65 65 65 63 62 63 63 63 66 67 68 68 69 68 67 68 67 69 72 71 69 69 68 67 68 68 69 67 66 63 63 62 61 61 59 54 50 48 47
69 69 68 67 66 65 66 66 65 66 67 68 69 70 71 73 73 72 70 73 70 69 70 71 69 70 68 68 70 69 66 64 64 64 61 61 61 61 58 51 49 47 44
71 69 70 70 68 69 68 67 68 69 69 71 73 73 75 76 75 74 74 72 71 70 70 72 71 70 70 71 67 66 62 64 66 64 62 62 63 60 54 50 47 47 47
70 68 67 66 66 66 67 68 69 71 72 73 73 74 73 74 74 73 72 71 71 72 73 75 74 72 71 68 67 66 64 68 66 66 66 65 63 60 56 52 53 54 53
68 67 68 68 69 70 70 70 70 71 72 73 73 73 74 73 74 74 74 74 74 75 75 75 72 70 67 65 68 68 69 69 68 68 68 70 63 61 61 60 58 58 57
73 74 74 74 74 74 71 73 73 72 75 77 76 76 76 76 76 76 77 76 77 76 73 70 69 70 67 69 70 70 71 71 71 71 72 72 65 63 63 63 63 61 60
74 73 75 79 78 77 74 75 78 76 77 78 80 80 80 81 80 80 81 81 79 77 76 71 72 72 75 74 72 73 72 71 73 74 71 68 68 68 67 66 66 64 62
79 80 80 80 80 80 81 84 86 82 82 82 83 84 86 86 85 84 84 82 81 79 78 76 76 75 76 76 76 75 72 73 75 72 71 71 71 69 70 69 67 66 63
80 81 83 85 85 87 88 89 87 85 84 85 87 88 87 86 84 83 83 83 83 81 77 76 75 76 75 76 76 76 77 77 76 73 73 72 72 71 73 71 71 69 67
85 86 88 90 90 89 91 89 89 89 91 92 92 90 89 88 88 86 86 85 83 84 83 83 82 83 82 81 81 81 80 80 76 75 72 70 74 76 73 73 72 72 70
87 89 91 89 91 92 92 92 94 93 92 94 93 92 92 91 89 88 87 87 87 87 88 88 87 85 85 86 85 84 85 84 83 79 76 76 73 72 70 70 68 70 70
91 92 91 91 91 91 91 91 91 93 92 92 92 93 96 96 96 96 96 94 93 93 92 90 88 88 89 91 91 92 89 86 79 77 73 72 73 75 74 75 75 74 74

GFSSE_250_spd_051.txt.gz
Wind_Speed
31 29 30 30 30 30 29 29 27 26 25 25 25 25 26 26 26 26 27 28 29 31 34 35 36 33 34 37 41 43 44 46 45 45 43 44 44 45 47 49 51 53 52
32 30 30 29 28 28 28 27 26 26 26 26 26 27 28 28 29 29 30 32 34 36 38 39 41 40 42 45 47 48 49 50 52 51 50 50 50 51 52 53 54 54 52
32 32 32 30 29 29 28 28 28 28 28 28 28 29 30 30 31 33 34 36 38 38 38 41 42 45 49 52 53 55 55 55 54 54 55 53 53 54 56 57 55 55 56
33 33 32 32 32 31 29 29 28 28 28 29 30 31 31 32 33 35 36 38 40 42 44 46 48 50 52 54 56 56 55 56 56 54 55 56 56 56 56 55 56 57 57
36 35 34 33 32 31 31 31 31 31 32 33 34 35 36 37 39 40 41 43 45 47 49 49 50 51 53 54 56 57 57 57 56 57 56 56 55 55 56 56 57 58 59
39 38 36 36 35 36 36 35 35 36 35 36 36 37 37 39 41 43 44 46 47 49 50 51 52 52 53 54 56 57 58 57 57 56 54 55 56 57 57 59 59 61 63
40 40 39 38 38 38 39 40 39 40 40 41 41 41 41 42 43 45 47 48 49 51 51 52 53 55 56 57 58 58 58 58 58 58 60 62 61 63 62 62 63 63 65
45 44 42 41 41 41 43 43 43 43 44 44 43 43 45 47 49 50 50 51 51 52 54 56 57 59 59 59 59 60 60 60 60 61 63 61 61 61 62 64 63 66 67
49 47 45 44 44 44 44 45 46 46 47 47 47 50 52 53 53 52 54 55 57 57 57 58 59 60 59 59 59 60 60 62 63 63 64 63 64 65 66 67 67 69 70
55 53 52 52 50 50 49 49 48 50 52 53 53 54 55 57 58 58 60 60 59 59 60 61 60 60 60 60 60 61 62 62 64 64 63 65 64 63 65 67 68 69 69
58 58 56 55 55 54 53 52 54 54 55 55 58 59 61 62 61 62 63 62 61 62 61 62 62 62 62 62 62 61 61 63 65 64 65 63 64 67 66 66 68 68 66
62 61 59 58 58 57 58 60 61 60 61 62 63 63 64 65 65 64 62 62 63 62 63 64 64 64 62 63 63 65 65 64 64 64 62 64 64 63 63 64 62 63 59
66 65 61 61 63 64 65 67 67 68 69 67 68 65 66 66 65 64 63 63 63 66 67 68 67 66 65 65 65 65 66 66 66 64 62 64 62 60 60 62 61 61 54
70 69 67 66 67 68 70 70 70 70 70 69 67 66 66 64 63 65 65 67 68 69 69 70 70 68 70 69 68 68 67 67 66 64 65 60 59 60 60 59 55 54 49
73 71 70 69 70 71 71 72 71 69 68 66 64 65 64 65 67 70 71 71 70 71 72 73 73 72 70 69 68 68 68 68 68 67 65 63 62 59 59 57 56 56 53
73 71 71 70 70 70 70 68 67 65 65 66 67 69 71 71 71 72 72 72 73 72 73 73 72 72 70 70 69 69 69 71 68 66 63 62 63 61 59 58 57 57 55
74 72 73 72 69 68 68 68 67 68 70 71 72 73 72 71 72 73 73 72 73 73 72 73 73 73 72 71 70 70 71 70 67 66 64 67 64 65 61 62 61 59 58
72 72 70 70 69 70 71 72 72 71 70 71 72 72 73 72 72 73 74 74 75 74 73 73 74 74 73 71 73 74 73 69 67 66 68 68 69 68 64 65 64 62 60
73 73 73 71 71 71 72 70 71 72 72 74 72 73 73 75 76 75 76 78 78 78 77 77 77 76 73 73 73 72 67 69 69 69 70 70 71 69 68 68 68 66 65
72 72 73 72 71 74 73 73 74 73 76 80 77 75 75 77 81 83 83 83 83 81 83 82 81 78 77 77 76 72 72 72 71 73 72 72 72 71 68 69 68 68 69
73 73 73 74 75 79 78 75 77 80 79 77 80 80 82 85 86 87 87 87 86 84 85 84 84 82 78 76 76 76 72 72 73 76 74 73 74 72 69 68 69 71 67
76 75 76 79 78 79 80 79 75 80 82 85 86 88 88 90 93 94 92 92 90 91 90 88 86 82 82 80 76 74 71 72 75 76 77 76 74 74 72 72 73 69 69
82 80 82 80 80 81 80 82 85 86 91 94 97 97 100 99 99 96 95 93 95 91 92 91 89 88 86 83 80 78 76 76 79 80 79 78 76 76 78 78 78 75 77
85 82 83 82 81 82 86 89 93 96 95 98 101 102 102 101 99 97 96 96 94 93 91 92 92 89 89 84 85 82 83 81 82 81 80 79 80 79 82 83 80 77 73
86 86 85 84 86 87 90 93 94 97 98 98 100 100 100 99 100 98 95 95 95 93 93 94 93 92 94 92 90 89 88 84 82 80 79 81 84 86 83 84 81 76 74
88 87 87 88 90 93 94 96 98 101 103 102 99 97 97 99 99 99 100 99 97 98 97 96 97 96 95 96 93 91 89 84 81 81 85 86 89 88 86 85 83 78 79

GFSSE_250_spd_054.txt.gz
Wind_Speed
31 32 32 34 34 32 32 28 28 28 29 27 28 28 25 23 24 25 24 26 26 27 29 32 34 36 37 38 39 40 44 49 49 50 51 52 51 51 52 52 49 51 52
28 29 30 30 30 30 29 28 27 26 25 22 21 22 22 24 24 26 26 27 28 31 34 35 36 38 41 43 45 47 48 49 51 52 53 55 55 54 53 54 55 54 54
31 29 29 28 27 27 26 26 24 24 24 24 24 24 24 25 26 27 28 29 31 33 35 37 40 42 45 47 48 48 51 52 53 55 55 55 55 55 55 55 55 54 54
33 31 30 29 28 27 26 26 26 25 24 25 25 25 26 26 27 28 29 31 34 36 39 41 43 45 47 48 49 50 52 53 55 56 57 57 56 55 55 53 55 57 58
34 33 31 30 29 28 27 26 25 24 25 26 27 28 29 30 31 32 33 35 38 40 41 44 46 48 49 49 51 52 53 56 57 58 59 58 57 57 57 60 61 61 61
35 34 33 31 30 29 28 27 27 29 29 30 31 32 33 34 35 36 38 38 40 42 44 46 48 50 50 52 53 54 55 57 57 58 58 59 58 58 61 61 62 61 62
39 36 35 33 33 32 32 32 32 33 34 35 36 37 38 40 40 40 40 42 45 46 47 49 51 54 55 55 55 57 57 57 57 58 58 59 60 62 62 62 63 63 63
42 40 39 37 36 36 35 36 37 37 38 39 40 41 42 43 44 44 46 49 51 52 53 54 55 57 57 57 58 58 58 59 60 61 61 60 59 61 62 63 63 62 63
46 43 41 40 39 38 38 40 40 40 41 42 41 42 44 46 48 50 51 53 56 56 57 57 59 58 58 58 58 60 61 62 62 62 61 60 61 61 62 61 60 63 63
49 48 45 44 44 43 42 42 42 43 44 45 45 46 48 50 51 52 54 57 58 59 60 62 61 59 60 62 62 64 66 64 62 61 61 61 61 61 61 59 60 60 61
51 51 51 50 49 49 48 48 48 48 49 50 51 51 53 56 58 61 63 63 62 62 62 62 62 63 62 63 66 68 66 65 64 68 66 63 61 61 60 60 58 59 59
55 55 55 54 53 53 54 52 53 54 54 55 56 58 61 63 65 65 66 64 63 63 63 63 63 64 66 69 69 68 67 67 67 66 63 63 61 62 61 60 60 57 54
61 60 57 56 55 56 56 57 57 58 59 61 62 64 66 67 68 69 69 67 66 66 64 65 66 70 70 69 69 68 67 66 66 65 64 66 65 64 62 61 60 57 55
65 63 60 60 59 60 61 61 62 64 64 64 66 68 68 70 71 71 69 68 68 68 69 71 73 71 70 69 69 69 68 69 68 69 67 68 66 65 63 60 58 56 56
69 66 65 65 65 65 65 66 67 67 69 68 69 70 72 72 72 71 68 69 71 73 72 73 72 74 72 73 71 69 70 70 68 69 70 67 68 66 62 62 61 57 57
72 70 70 69 70 69 68 68 68 69 70 71 72 73 70 70 69 69 71 71 72 72 75 76 76 75 74 74 74 73 72 71 70 70 71 70 68 63 64 63 61 59 58
73 73 73 71 69 69 70 70 72 73 73 73 71 72 70 69 69 68 71 73 73 75 77 78 77 76 78 77 76 75 75 74 73 72 73 72 67 66 67 64 64 61 62
74 74 72 72 72 72 73 73 73 72 70 72 70 69 70 69 70 75 76 77 79 79 80 79 80 81 82 80 80 81 78 76 75 75 73 70 72 69 68 68 66 64 63
76 75 74 71 70 71 70 69 71 71 73 70 69 69 71 76 78 78 80 82 83 80 81 85 85 86 87 89 86 79 81 81 79 75 73 72 70 70 68 69 69 67 66
75 73 70 69 70 71 71 70 71 71 68 69 73 77 79 81 81 81 83 84 84 87 89 92 94 95 93 90 85 84 84 80 80 77 74 75 72 69 69 69 69 70 68
71 70 71 72 74 74 73 71 66 70 71 74 79 81 82 81 83 85 87 89 93 95 97 96 96 93 93 88 86 87 82 81 80 82 81 78 75 72 68 73 73 72 71
74 75 76 76 77 75 74 74 72 71 79 84 84 84 84 83 86 89 91 95 99 98 98 102 99 93 89 89 88 86 82 81 83 83 81 79 76 75 75 73 75 73 72
77 78 78 78 77 79 81 83 83 82 81 87 90 89 90 90 91 95 100 99 100 103 105 104 95 92 90 90 89 88 86 82 83 83 83 81 80 79 79 77 76 74 74
80 80 81 82 84 84 83 86 89 89 87 85 89 92 95 98 102 105 105 105 108 107 100 96 96 92 92 93 93 90 89 86 84 83 85 84 82 80 79 78 76 75 74
84 84 85 87 87 88 89 89 90 91 92 92 93 94 98 103 106 110 114 113 110 107 101 99 96 95 95 95 98 98 97 94 89 88 87 86 84 82 79 79 77 74 79
89 89 89 90 90 90 90 91 92 93 95 97 99 101 103 106 110 112 113 113 111 107 102 102 104 102 102 102 101 103 104 103 101 95 91 87 83 83 82 78 79 81 85

GFSSE_250_spd_057.txt.gz
Wind_Speed
34 34 33 34 36 35 34 32 31 31 32 31 29 26 24 22 25 24 22 24 24 25 26 27 28 30 33 34 38 40 41 43 44 45 45 48 51 53 54 55 54 54 53
30 34 33 32 33 34 34 32 31 30 26 27 25 22 19 19 20 22 23 25 26 27 27 29 30 32 35 38 40 42 43 45 46 49 49 50 52 53 54 56 57 55 54
29 30 32 31 30 30 30 29 27 27 24 23 21 22 22 22 23 23 24 25 26 27 28 30 34 37 37 40 42 44 46 48 50 51 52 52 53 54 55 56 56 57 56
31 29 28 27 27 25 25 24 25 25 24 24 24 24 23 23 24 25 27 27 28 30 32 34 36 37 39 41 44 47 49 51 53 54 54 54 55 56 57 57 58 58 58
31 29 28 26 25 25 24 25 25 25 26 25 23 22 23 24 26 28 29 31 32 34 35 36 39 41 42 46 50 52 53 53 54 55 55 56 58 59 59 59 60 60 58
31 30 29 29 28 28 27 27 26 25 24 23 23 24 26 28 30 32 34 36 37 38 39 42 45 48 50 52 53 55 57 56 55 57 59 61 62 63 62 60 58 59 60
34 32 31 32 31 31 30 28 26 26 25 26 27 29 31 33 35 37 39 39 41 42 44 47 51 53 55 56 58 59 58 58 58 59 62 64 65 62 62 60 61 60 61
37 35 34 33 33 33 31 30 28 29 29 30 33 35 36 38 39 40 41 42 43 44 48 51 54 55 57 58 59 58 58 60 60 62 66 67 65 62 62 63 63 61 59
42 40 38 36 35 34 33 33 32 33 34 35 35 36 39 41 42 42 44 45 47 50 53 56 58 59 59 59 59 60 60 61 62 68 68 66 65 63 62 61 60 59 59
47 44 42 40 39 38 38 37 36 37 38 39 40 41 42 44 45 47 48 49 52 56 58 61 62 61 60 59 59 60 61 66 72 70 67 64 62 60 61 61 62 60 61
51 48 45 43 42 41 41 41 41 42 43 44 44 47 49 50 50 52 54 56 59 60 64 66 65 64 63 63 63 64 67 72 70 68 68 66 64 64 62 67 64 60 60
55 53 50 48 47 46 46 45 46 47 48 50 51 51 53 55 56 57 59 62 63 64 67 69 67 67 66 65 67 70 70 70 71 70 70 67 66 67 65 64 63 62 60
59 57 55 52 50 51 51 51 52 53 54 53 53 55 56 58 60 62 65 66 67 68 70 68 68 69 70 70 69 69 72 71 72 73 70 70 70 70 68 65 62 63 59
64 61 59 57 56 55 54 55 56 55 56 56 57 58 62 63 65 65 66 68 70 71 71 70 71 70 70 72 73 75 77 74 77 75 74 74 75 72 66 65 64 62 59
66 64 62 62 61 60 59 59 59 59 59 61 64 64 64 64 66 67 69 73 72 73 72 74 69 71 73 75 77 77 78 78 79 81 80 79 77 71 70 65 66 62 62
68 66 65 65 63 62 62 63 63 64 65 66 67 65 65 68 70 71 73 73 73 74 75 70 71 74 78 78 77 78 79 81 82 84 84 82 73 71 70 65 65 65 61
69 68 68 66 66 66 66 67 68 68 68 68 68 70 72 73 73 72 73 71 74 75 73 75 76 79 79 82 82 82 83 86 84 90 86 78 72 74 68 67 64 63 63
71 71 72 69 70 71 71 71 70 70 70 72 72 73 75 72 72 71 70 71 72 73 77 78 80 80 82 84 87 89 88 90 93 89 82 76 76 75 68 68 66 67 66
72 73 75 74 74 72 71 72 73 72 72 73 73 72 73 72 69 68 72 76 75 77 80 81 84 83 86 89 93 92 94 96 94 85 78 75 76 76 72 70 69 69 67
74 75 75 74 74 73 72 72 74 73 70 71 72 70 69 68 72 74 74 77 81 81 82 85 86 90 93 94 95 98 100 99 92 87 79 76 78 76 75 74 71 70 68
79 79 78 75 74 74 74 74 72 69 68 70 72 71 71 74 75 77 81 84 85 87 88 90 92 93 97 100 104 105 104 96 88 84 81 78 77 78 77 75 73 71 69
79 78 78 77 76 73 71 68 66 69 72 73 76 80 78 76 79 82 84 86 89 91 93 96 98 101 104 109 111 111 106 91 88 89 84 82 79 78 79 76 76 73 72
80 77 76 74 72 71 69 69 70 71 73 78 81 83 86 85 84 85 89 92 94 97 99 102 106 107 111 113 115 109 105 100 92 89 88 88 88 85 83 80 78 77 75
80 76 75 75 74 74 75 76 77 77 79 80 85 88 90 92 92 94 94 97 99 102 106 108 109 114 114 111 109 107 108 103 100 99 100 98 97 95 91 88 84 81 78
81 80 79 79 79 80 80 81 83 85 84 85 85 86 92 96 100 101 102 103 106 109 111 114 117 116 115 115 107 102 105 107 111 111 107 109 107 103 102 95 89 85 82
85 83 82 82 83 83 85 86 85 86 89 90 92 93 95 98 101 104 109 110 114 114 117 119 119 120 115 110 110 108 109 112 114 109 103 96 96 98 95 92 91 89 84

GFSSE_250_spd_060.txt.gz
Wind_Speed
32 32 33 34 34 35 35 35 36 36 36 37 36 33 32 30 27 22 22 22 22 22 23 24 24 25 26 28 30 33 35 37 40 43 47 49 51 53 53 54 55 56 57
32 30 33 34 32 33 31 31 32 34 35 33 30 31 29 25 20 19 20 21 23 23 23 24 24 26 28 31 33 36 38 41 45 48 50 52 55 53 54 56 57 59 59
33 30 31 33 32 31 32 34 34 34 32 32 29 26 24 21 22 23 22 22 21 22 23 25 28 31 32 34 37 40 43 46 49 52 54 55 54 54 55 58 61 62 61
34 30 28 33 33 31 32 32 33 31 30 26 25 23 23 24 24 23 22 23 24 25 27 29 32 34 36 38 42 45 48 51 51 54 55 54 55 55 59 61 64 63 61
33 31 27 28 30 30 30 29 29 27 26 25 24 25 24 23 23 24 24 26 27 29 32 34 36 37 40 43 47 49 51 53 54 55 54 55 55 58 62 64 64 62 59
34 31 30 30 28 28 28 28 27 25 24 24 24 25 24 25 26 27 28 29 32 34 35 36 37 39 42 45 51 52 55 55 55 56 55 56 57 62 64 63 63 61 56
36 34 32 32 31 30 28 28 28 27 27 26 26 26 27 28 29 30 32 34 35 37 38 39 41 44 48 50 53 55 57 57 59 57 57 60 62 64 64 64 62 61 59
39 36 35 33 32 31 30 30 30 29 28 27 28 29 30 30 32 33 35 37 39 40 42 43 46 49 52 54 58 60 61 61 59 59 62 63 64 64 64 66 65 63 61
42 39 36 35 33 33 32 32 31 31 30 30 33 34 34 33 34 36 38 41 43 44 46 48 51 54 57 60 63 66 66 63 63 64 64 64 67 66 67 67 66 66 66
44 42 40 38 36 35 34 34 34 34 34 35 36 37 37 37 38 40 43 46 47 48 51 53 55 59 61 62 65 68 67 66 66 65 65 66 68 66 67 67 69 70 71
47 46 43 42 40 39 38 37 38 38 39 40 41 41 41 42 43 46 48 49 50 53 55 58 62 64 65 68 69 71 69 70 68 67 68 68 71 71 73 72 76 75 71
50 47 47 46 45 44 43 42 43 43 44 44 44 45 46 48 50 51 51 52 55 57 59 62 63 66 69 70 72 68 70 70 70 70 72 73 75 76 73 74 80 73 67
55 54 51 49 49 48 47 45 46 47 47 47 48 50 52 54 54 55 56 58 59 61 63 64 67 69 71 72 68 70 69 72 72 73 73 75 78 78 79 81 79 72 62
56 56 55 53 53 51 51 51 51 50 51 52 53 55 57 57 57 59 60 63 62 64 67 69 70 70 72 69 69 68 71 74 76 77 77 77 80 83 83 83 81 74 63
66 56 56 56 56 56 56 56 55 55 55 56 55 57 59 60 61 63 64 64 67 69 71 71 70 71 70 70 70 72 74 76 77 80 80 81 84 86 87 86 82 75 65
68 68 63 61 61 61 61 60 60 60 60 61 62 60 61 63 65 66 66 68 71 72 70 70 71 71 70 72 74 77 77 79 78 81 84 86 87 91 92 89 81 72 65
73 71 70 69 68 65 63 63 64 63 63 63 63 64 65 67 68 69 70 72 71 70 69 69 71 72 74 75 79 80 80 81 84 86 87 89 96 93 92 87 76 70 66
74 74 73 72 71 71 69 67 66 66 65 66 67 67 69 69 70 71 73 74 69 68 71 71 73 74 77 81 84 84 85 86 88 90 93 96 97 96 94 81 74 72 69
77 77 76 75 73 71 70 69 69 67 68 69 70 71 71 72 73 74 73 71 69 73 73 74 77 79 83 86 87 90 92 93 94 96 99 103 103 99 91 82 76 74 69
81 80 79 78 76 74 72 72 72 71 70 71 73 73 72 73 73 71 70 72 75 74 76 79 82 84 87 90 91 93 95 98 101 102 106 106 102 100 91 82 77 75 73
79 79 80 80 78 76 74 73 73 74 74 74 74 74 75 73 68 68 73 76 78 80 82 85 87 87 89 94 97 99 102 105 107 110 112 108 100 90 85 86 83 81 80
81 80 78 77 77 77 76 75 75 75 74 74 74 73 69 66 69 72 75 77 82 85 87 89 90 92 95 100 104 107 108 110 114 116 113 105 93 89 90 91 94 93 90
79 77 77 78 77 76 75 75 77 78 78 77 73 71 72 73 75 75 77 82 85 88 91 94 97 99 103 105 110 114 115 116 119 105 102 96 96 93 93 98 99 94 88
84 81 78 77 76 76 75 73 71 69 69 71 73 75 78 80 80 82 84 85 88 92 95 99 103 105 108 110 112 115 118 120 110 99 98 102 105 102 100 87 80 77 76
83 83 83 82 81 80 77 77 76 75 74 75 77 79 82 84 86 89 92 93 93 95 99 103 106 108 112 113 115 119 120 111 105 102 100 104 100 91 90 85 75 70 72
85 84 83 82 82 82 82 81 81 81 81 83 83 84 85 89 92 93 96 97 99 102 103 106 107 110 114 117 119 120 115 113 109 108 99 90 89 84 87 79 80 79 76

GFSSE_250_spd_063.txt.gz
Wind_Speed
36 35 34 34 34 35 34 34 34 35 34 34 37 38 37 36 35 30 29 25 22 20 20 22 22 22 21 24 26 28 30 33 36 41 45 47 49 51 50 50 50 53 56
37 37 36 34 34 34 33 33 33 34 34 35 34 34 35 32 27 27 25 23 21 21 20 20 21 22 25 28 29 32 34 38 42 45 47 48 50 51 49 50 53 56 57
37 38 36 34 33 34 32 32 32 32 32 32 33 34 32 27 26 24 23 24 23 20 21 22 25 27 29 31 33 35 37 41 43 46 50 52 52 51 51 54 56 57 58
38 37 34 32 31 32 33 31 31 33 34 34 33 31 28 27 22 23 24 23 21 22 23 26 29 31 32 33 35 36 39 44 46 49 52 55 53 55 55 56 56 57 59
38 36 33 32 29 32 34 33 33 33 32 32 30 29 25 24 24 25 23 23 23 24 26 29 32 33 35 36 38 41 44 47 50 54 57 58 60 58 56 56 58 58 58
37 37 34 33 30 30 34 35 33 31 29 27 26 24 24 25 25 24 24 25 25 27 30 31 33 35 38 39 42 45 48 51 54 57 61 62 62 58 57 58 58 60 61
36 37 36 33 31 30 30 30 29 28 26 27 25 25 26 26 25 26 27 26 28 30 31 34 38 39 42 44 46 48 53 56 60 62 63 64 61 60 59 60 60 63 65
39 37 35 35 32 32 31 30 29 28 27 29 28 28 29 28 28 29 29 30 31 32 35 39 42 44 46 48 51 54 58 60 63 64 66 64 63 63 63 63 64 67 68
42 39 37 36 34 33 34 32 31 30 30 30 30 30 31 31 31 32 33 34 35 36 40 44 45 47 49 52 55 57 59 62 65 66 66 65 65 65 66 67 68 72 71
45 43 40 39 37 35 35 34 34 33 33 33 33 33 32 33 36 38 38 39 40 42 46 47 49 52 54 57 59 60 62 66 65 66 69 68 68 70 70 71 72 74 76
49 47 45 43 40 37 36 36 35 35 34 34 35 36 36 38 40 42 43 44 45 48 50 51 53 55 57 60 62 65 67 68 65 68 70 69 71 72 72 73 74 76 78
51 50 48 46 43 41 40 39 39 38 37 37 39 41 42 42 43 44 45 47 50 53 53 54 57 58 61 63 66 69 69 67 66 72 71 72 76 74 74 76 76 79 82
54 53 51 50 46 46 45 43 43 42 42 42 43 45 45 46 47 48 50 52 54 55 56 59 61 62 65 67 69 69 67 67 69 72 73 76 76 76 77 79 81 83 87
59 57 54 53 51 49 48 48 47 47 46 46 47 47 49 50 51 53 55 56 57 58 60 63 65 67 70 70 70 67 67 68 72 74 77 78 78 78 82 82 85 87 90
64 62 58 57 56 55 54 52 51 50 50 50 51 52 53 54 55 57 59 60 60 62 64 67 68 70 72 70 68 69 68 69 73 77 80 80 81 85 86 89 90 92 94
63 63 62 61 59 58 58 57 55 54 54 54 54 56 57 59 60 61 62 63 64 65 68 69 70 72 69 71 71 70 71 73 77 80 82 84 87 88 90 93 95 98 95
64 62 63 65 63 62 58 57 58 57 56 57 58 60 62 62 63 64 65 65 66 68 69 71 71 70 71 71 73 74 77 78 82 83 85 90 92 95 96 98 99 99 87
70 70 69 64 64 65 64 62 62 62 62 64 65 66 65 66 67 68 68 69 69 70 71 72 69 71 72 76 79 80 81 83 84 87 92 92 96 98 101 101 103 97 83
73 74 75 74 74 72 70 68 68 68 68 69 70 70 69 68 69 70 71 72 72 72 73 68 71 74 77 80 81 82 85 88 89 92 96 98 99 102 106 108 104 94 84
77 79 78 78 76 76 75 74 73 72 73 73 72 72 71 71 71 72 74 74 74 73 70 74 75 76 78 82 85 87 90 91 95 97 100 100 103 109 111 108 101 90 85
78 79 80 79 80 79 78 78 76 76 75 75 75 75 75 76 76 75 76 76 73 71 79 76 77 79 82 85 88 92 94 95 97 100 102 105 111 113 111 105 97 92 89
80 80 80 79 78 78 78 78 79 79 77 78 78 78 77 77 77 76 75 71 70 76 77 80 82 83 87 92 94 95 94 98 101 103 108 112 115 112 108 101 99 97 96
81 81 81 80 79 77 77 78 78 79 78 77 78 78 78 78 77 76 75 74 79 77 78 85 88 92 95 96 99 101 101 100 104 108 112 117 115 110 104 102 100 93 87
82 81 81 80 80 80 80 79 78 78 79 79 78 78 78 77 77 77 78 79 77 79 85 90 95 97 97 99 101 104 107 108 111 111 114 115 110 104 103 99 91 85 81
84 84 82 80 79 78 78 77 76 76 76 77 78 79 80 80 80 82 82 83 86 89 90 92 94 97 100 102 103 106 108 114 115 117 117 115 110 105 98 92 86 81 77
87 86 85 82 81 81 80 80 80 81 81 80 81 82 82 82 83 84 86 89 90 90 92 94 97 99 101 104 106 110 114 116 116 119 120 112 104 95 88 83 80 80 81

GFSSE_250_spd_066.txt.gz
Wind_Speed
38 38 36 34 33 33 34 36 34 31 33 35 36 35 34 33 33 34 31 32 26 27 21 19 17 18 18 20 22 25 26 28 30 33 36 39 43 46 50 53 53 51 52
39 38 36 34 33 32 32 33 33 33 34 34 35 33 32 31 32 35 33 28 27 24 21 18 19 19 21 24 25 27 29 30 33 37 40 43 47 49 52 54 54 52 54
39 39 36 34 33 33 32 32 32 32 31 32 32 32 32 33 31 30 28 25 26 23 22 20 21 23 25 25 27 28 31 34 37 40 43 46 50 53 56 55 55 54 55
40 40 36 35 35 35 33 33 33 31 30 29 28 26 27 29 26 26 26 24 22 23 22 22 23 24 26 27 29 32 34 37 39 43 46 50 53 54 56 58 57 56 56
41 37 35 35 35 35 32 32 32 30 29 28 29 30 29 30 29 26 23 23 23 23 24 24 25 27 29 31 34 36 38 41 44 47 51 53 55 56 58 59 58 58 61
41 38 36 36 35 34 33 30 32 31 30 29 28 30 29 27 25 24 24 24 24 25 25 26 27 29 33 35 37 39 41 44 47 50 53 55 55 59 61 60 61 62 65
41 38 36 36 36 34 32 30 30 32 31 30 29 28 25 25 24 25 25 25 26 27 27 29 30 32 36 38 39 41 44 47 49 52 55 58 59 62 63 62 64 67 69
42 39 37 37 37 34 32 32 28 28 29 29 28 26 26 27 26 27 27 28 29 29 31 32 34 37 41 42 43 47 48 50 53 56 59 61 63 64 65 65 68 69 70
44 43 41 38 37 36 33 32 29 27 27 28 28 27 28 29 29 30 30 31 32 33 35 37 39 42 45 47 48 50 53 55 58 62 63 65 67 66 68 69 71 73 73
47 45 43 40 37 36 33 31 29 30 30 31 31 31 31 31 32 32 33 35 36 38 40 42 44 47 50 51 52 55 56 59 62 65 66 67 68 68 69 72 73 74 73
49 47 45 43 40 37 35 32 32 32 33 34 34 33 33 33 34 35 37 39 41 43 44 46 48 50 53 54 56 59 61 64 64 67 67 68 69 71 71 74 75 76 77
51 50 49 46 43 40 38 37 36 35 35 35 35 35 34 35 36 38 40 42 44 46 48 50 53 53 55 57 59 62 64 67 68 67 68 69 70 71 73 76 76 78 80
55 53 52 50 46 43 42 41 40 39 38 38 38 38 38 38 40 42 43 45 47 49 51 52 54 56 58 60 63 65 66 69 68 68 69 71 72 74 76 78 80 82 84
57 55 54 52 49 47 47 45 44 44 42 42 42 41 41 42 43 45 47 48 50 52 55 57 58 60 61 63 65 67 69 70 67 69 71 73 75 77 80 83 84 86 87
61 58 56 55 53 52 51 49 49 47 46 47 47 46 46 46 47 49 51 52 53 57 59 61 62 64 64 66 67 68 70 68 69 71 76 75 78 81 84 86 87 88 89
65 62 60 59 59 57 56 53 52 51 51 50 50 51 51 50 51 52 55 56 58 61 62 63 64 65 67 69 69 71 70 70 72 75 77 80 85 87 90 90 90 92 92
69 65 64 63 62 62 61 59 57 56 56 57 57 56 56 55 54 56 59 61 63 65 66 66 66 68 69 70 72 73 72 72 75 76 80 85 87 92 92 94 94 96 97
69 69 66 65 65 64 64 63 62 61 62 58 55 56 55 56 59 62 64 65 66 67 68 68 69 71 72 73 76 75 75 76 77 80 86 88 92 93 96 95 97 99 103
72 67 67 67 66 65 63 62 64 65 65 64 62 62 62 64 67 68 70 70 70 70 72 73 73 73 75 78 77 77 78 79 82 85 90 92 94 96 97 100 102 106 108
73 71 70 70 69 66 66 65 65 64 63 64 67 69 69 70 71 72 74 75 73 74 76 75 75 77 79 80 78 80 82 84 85 90 94 95 98 99 102 106 110 110 109
78 76 77 75 74 72 72 72 71 72 73 74 74 75 74 75 75 76 77 78 77 76 77 77 79 79 80 81 79 84 84 86 91 94 95 99 100 104 107 110 112 113 111
80 81 79 78 78 77 76 76 76 76 77 77 77 77 78 78 78 79 80 80 78 78 78 79 79 80 81 82 84 83 86 91 94 97 100 101 105 108 111 112 114 112 109
86 83 81 80 80 80 79 78 78 79 80 79 78 78 77 78 79 79 79 79 79 78 78 79 79 81 81 84 88 90 90 92 95 99 102 107 109 112 114 113 112 112 105
89 87 83 81 81 81 80 80 80 81 82 81 80 80 79 78 78 79 79 78 79 79 80 80 81 82 85 88 92 95 97 98 98 99 104 106 111 113 111 111 112 106 96
88 87 85 84 83 82 82 82 81 80 81 82 82 82 81 80 79 79 79 80 81 82 83 83 84 86 90 91 94 97 100 101 104 108 105 109 113 111 109 110 105 96 86
94 90 87 85 83 82 82 82 81 81 81 80 80 80 79 80 80 81 82 83 83 85 86 87 88 90 91 94 97 100 102 103 109 107 110 111 111 108 106 102 98 88 78

GFSSE_250_spd_069.txt.gz
Wind_Speed
39 38 38 38 38 38 35 36 36 35 34 33 31 31 32 30 29 30 28 30 29 27 25 22 19 17 18 18 20 21 21 22 24 27 30 32 36 40 42 45 47 49 50
39 37 37 36 38 34 32 33 34 34 33 33 31 30 30 31 29 29 26 25 24 24 24 21 20 20 20 21 22 22 23 26 28 31 33 37 39 43 44 46 49 50 51
39 37 37 36 35 34 32 32 30 29 30 29 30 31 31 31 28 28 28 25 24 25 23 19 21 20 23 22 24 25 28 30 31 35 36 39 42 44 47 50 51 52 54
39 36 36 36 36 35 33 31 31 30 29 28 27 27 28 28 27 25 24 23 24 23 20 21 22 22 25 24 25 27 30 32 34 37 39 41 44 47 51 52 54 56 57
41 38 38 37 37 37 35 33 31 31 30 29 27 25 26 25 23 23 24 22 24 24 24 24 24 25 25 25 27 29 32 34 37 40 42 45 48 52 55 55 58 61 61
42 40 40 39 38 38 35 33 32 30 30 30 27 26 26 26 25 23 22 25 26 25 26 26 26 27 28 29 31 33 36 38 40 43 46 48 51 55 56 58 62 64 66
42 41 42 41 38 36 35 33 32 31 29 30 29 27 26 26 24 22 24 25 26 26 27 28 28 30 31 33 35 38 41 42 44 47 50 52 55 58 60 62 65 66 68
42 42 43 42 40 37 36 34 32 31 29 30 30 29 28 26 25 25 26 27 28 28 30 30 32 33 35 37 40 43 46 47 48 52 54 56 59 60 61 64 66 68 69
41 42 43 42 39 36 36 35 33 32 31 28 29 29 28 26 26 27 28 30 31 31 32 34 35 37 40 41 44 47 50 52 53 55 57 60 62 64 63 66 69 69 69
41 43 44 42 39 37 36 36 35 32 32 29 28 28 27 28 28 29 31 32 32 35 36 38 39 41 43 45 48 51 52 54 57 58 61 62 64 64 66 68 69 70 70
44 43 44 44 42 40 38 36 35 35 33 30 30 30 30 31 32 33 34 34 35 36 38 41 43 44 46 49 51 53 55 57 59 60 63 64 67 67 68 69 70 70 73
49 46 44 46 46 44 41 38 36 34 33 31 31 31 32 33 34 34 35 36 37 39 41 43 45 47 50 52 54 56 58 60 61 64 66 67 69 69 70 70 70 71 76
53 50 48 47 48 47 44 41 40 37 36 35 34 34 34 34 35 36 37 38 39 41 43 45 47 49 52 55 57 59 61 62 64 66 68 69 71 71 71 71 72 75 79
57 54 52 50 49 49 48 46 43 42 40 39 38 38 38 38 38 39 40 41 43 45 47 48 50 53 56 58 59 61 62 65 67 69 70 73 72 71 73 73 75 79 84
56 58 57 53 51 51 51 50 47 45 44 43 42 42 42 42 42 43 44 45 47 48 50 51 54 57 59 60 61 63 65 68 69 70 74 74 73 74 74 76 81 84 87
56 58 58 55 54 53 53 53 51 49 48 47 45 46 45 45 47 47 48 49 51 53 52 55 58 60 62 64 64 67 69 71 71 73 75 74 75 75 78 81 85 88 90
56 65 63 63 59 57 57 56 55 54 52 50 50 49 49 49 50 53 54 54 55 56 56 60 62 65 66 68 69 72 72 71 74 76 76 75 77 79 83 86 90 92 94
58 62 66 64 63 61 60 59 58 57 56 55 55 55 54 56 57 57 55 55 57 59 62 64 67 69 71 72 74 74 74 74 75 76 76 77 80 83 87 91 93 94 98
74 63 62 68 68 66 64 63 62 61 60 59 60 60 60 60 60 60 61 62 62 65 67 69 72 73 75 76 75 75 75 75 75 76 78 80 84 88 91 93 97 99 102
79 76 70 63 64 67 67 66 64 64 64 64 63 63 62 63 62 64 64 65 69 70 72 74 75 77 77 77 75 75 75 76 77 78 81 86 89 92 94 97 101 103 107
82 78 77 72 67 65 67 67 68 68 67 68 67 66 65 64 64 68 70 72 74 75 76 77 77 77 77 78 75 76 78 77 80 85 87 89 92 95 99 102 105 107 111
85 82 79 79 78 73 69 67 66 68 69 70 69 68 68 69 71 73 75 76 77 77 77 78 78 76 78 78 77 77 77 83 87 88 89 93 96 99 101 106 108 109 111
86 86 83 81 80 80 78 74 72 72 73 73 73 73 73 74 75 76 77 78 78 79 80 80 79 77 77 79 81 84 84 83 84 89 94 97 100 104 107 109 109 111 109
88 84 86 87 84 82 81 81 80 78 76 75 76 76 76 77 78 78 79 79 80 81 81 80 79 79 80 82 84 86 86 87 88 90 94 99 104 108 109 109 110 110 106
95 90 86 86 88 87 84 82 80 79 78 78 78 78 78 79 79 79 79 80 80 79 79 80 81 82 82 81 83 86 89 94 97 97 99 103 106 108 108 107 105 106 104
103 99 96 91 89 89 88 87 85 83 81 81 80 80 80 81 81 82 82 82 82 82 82 82 83 83 83 86 89 92 95 98 101 102 106 108 109 105 103 105 105 101 98

GFSSE_250_spd_072.txt.gz
Wind_Speed
44 40 40 38 38 37 36 36 36 36 35 35 34 32 33 32 30 30 28 28 25 26 27 22 25 25 20 20 20 22 21 21 23 25 27 29 31 33 35 39 41 45 47
44 42 41 38 38 38 37 37 38 36 35 34 34 31 30 30 30 30 30 27 23 23 23 23 23 23 21 23 21 23 22 23 25 27 29 32 35 36 40 43 45 48 50
42 40 41 39 38 38 37 36 36 36 36 32 30 29 30 31 32 28 25 23 24 23 22 21 25 25 24 25 22 24 23 25 28 30 31 36 38 40 43 46 48 51 53
42 38 38 39 38 38 36 36 35 36 34 30 29 29 27 28 29 27 26 26 23 21 22 25 26 25 26 26 24 25 27 28 31 32 35 39 42 45 47 49 50 53 56
43 40 37 38 37 36 36 37 36 36 33 31 30 29 28 27 26 23 22 21 22 22 24 26 26 27 27 27 27 28 31 33 34 37 39 42 45 48 50 52 54 56 57
44 43 41 40 38 37 37 37 36 36 34 32 31 30 29 27 24 24 25 25 23 24 26 27 28 30 29 30 30 31 34 37 39 41 44 47 48 51 54 55 57 59 61
44 43 43 41 40 40 38 38 37 37 35 34 30 29 30 27 26 26 26 25 25 27 27 29 31 31 32 33 34 36 37 41 43 45 48 51 52 54 56 57 59 61 63
44 43 44 43 42 42 40 39 38 37 34 34 31 31 31 29 28 27 27 27 27 27 29 32 32 33 35 37 38 39 42 44 47 49 51 53 56 57 58 58 60 63 65
46 44 43 45 43 44 43 40 38 36 36 34 31 31 31 31 30 29 29 29 28 30 33 35 35 37 38 40 41 43 45 47 50 52 54 56 58 60 59 59 62 64 65
48 45 42 44 43 43 44 41 39 37 38 34 32 31 31 30 31 29 30 30 33 34 35 37 38 39 40 42 44 45 47 50 52 55 57 58 59 60 60 61 63 65 66
51 47 42 42 42 42 44 41 38 37 37 36 34 32 33 31 31 32 33 34 35 37 38 39 39 40 42 43 46 47 50 52 55 57 58 58 60 61 61 63 66 67 69
52 51 46 42 40 41 44 43 40 38 37 36 37 34 33 33 33 34 36 37 37 38 38 40 41 42 44 45 48 49 52 55 57 59 59 61 62 64 64 65 68 69 70
56 54 51 48 43 42 42 45 44 41 39 38 37 37 35 34 34 35 36 37 37 38 39 40 42 44 47 48 51 52 55 57 59 61 63 65 66 67 66 67 69 71 71
60 57 56 53 49 46 45 45 46 46 44 42 40 39 37 36 35 37 37 38 40 40 41 43 45 47 50 52 52 56 59 61 64 65 67 69 69 69 69 70 72 70 73
63 62 59 57 53 51 50 48 46 46 47 46 45 43 40 39 39 39 41 42 43 45 46 47 49 51 55 55 57 61 63 66 68 70 72 72 71 71 72 73 73 74 77
58 60 58 59 57 57 54 52 50 48 48 49 49 47 44 43 43 43 44 45 46 48 49 51 53 55 54 56 61 65 67 70 72 74 75 73 72 72 74 73 73 77 81
62 58 57 58 59 61 59 57 54 53 52 51 50 50 49 47 47 47 46 47 50 51 54 56 56 57 59 61 65 69 71 73 75 76 76 74 73 73 74 75 77 82 88
68 64 58 54 54 54 58 60 60 57 56 53 52 51 52 52 52 52 53 53 54 56 59 60 60 63 65 67 70 73 75 76 76 76 76 75 74 74 75 79 84 88 93
71 68 66 63 61 61 63 61 61 60 58 56 55 55 55 56 56 57 58 58 59 62 63 65 65 64 69 71 75 76 76 77 78 77 76 76 76 78 83 86 91 93 94
79 73 66 68 66 60 61 62 64 65 61 60 60 60 60 61 61 62 62 62 63 64 64 64 66 70 73 76 76 77 79 80 79 77 78 78 81 84 90 93 95 95 98
82 80 77 73 72 66 60 63 63 64 67 67 66 65 65 65 65 65 66 66 67 67 68 69 71 73 75 76 76 79 81 79 78 80 81 83 86 91 94 96 97 100 103
87 84 82 80 76 73 68 66 63 63 65 67 69 69 69 69 69 70 70 69 68 71 72 73 73 73 76 79 80 78 76 80 81 85 87 89 92 94 96 98 101 105 108
93 90 87 83 78 76 76 73 70 70 67 64 65 65 67 66 66 68 71 71 71 72 75 76 77 79 80 81 80 80 80 80 83 86 91 95 97 99 102 104 106 109 112
96 93 91 89 85 83 82 81 80 78 79 78 75 73 70 70 69 67 68 70 74 75 77 81 82 82 82 83 83 84 85 85 87 88 91 97 101 103 107 108 111 115 117
100 97 94 91 90 88 88 86 85 84 83 82 83 81 79 78 76 76 77 78 79 81 82 83 83 84 84 83 84 87 89 91 92 95 97 98 102 108 111 112 115 117 116
104 102 100 96 92 91 88 87 87 89 88 86 84 83 82 81 82 81 81 81 82 82 83 84 85 86 86 87 88 91 93 95 96 98 101 104 107 110 111 116 117 114 112

GFSSE_250_spd_075.txt.gz
Wind_Speed
44 44 44 43 40 37 37 34 31 32 32 32 33 33 32 32 31 31 31 30 31 30 29 25 25 22 24 23 24 23 24 22 24 23 25 26 29 32 34 38 41 43 46
47 45 45 44 42 41 39 37 35 34 34 34 34 33 33 33 30 30 30 30 32 29 23 22 25 23 24 27 26 25 27 25 25 26 27 29 31 34 37 41 44 47 48
49 46 45 44 43 42 41 39 38 37 36 36 36 35 35 31 29 30 31 31 29 26 25 25 22 24 26 28 26 27 28 28 28 29 31 33 36 39 40 43 47 50 51
49 47 45 43 43 42 43 41 40 38 37 36 36 35 32 29 29 28 29 29 28 29 28 25 23 25 26 27 28 29 31 30 30 32 34 38 40 43 45 47 49 52 54
49 48 46 43 42 41 42 41 40 39 36 36 36 34 32 30 29 28 28 28 27 27 25 24 26 26 27 29 31 33 33 34 34 35 39 42 45 47 49 50 54 55 56
47 47 47 45 40 37 39 40 39 37 36 37 36 34 33 31 31 30 28 25 26 28 27 27 26 27 29 32 35 35 36 37 38 40 42 46 48 50 52 53 55 55 57
49 47 45 44 42 40 38 40 39 39 37 37 36 35 33 33 30 30 28 26 28 29 28 28 28 29 32 35 37 38 39 40 42 44 45 48 51 53 55 56 57 56 58
50 49 46 45 44 43 41 40 40 40 39 38 38 37 35 34 30 30 30 29 29 29 30 30 30 33 36 37 39 40 41 42 44 46 48 50 52 55 56 56 57 57 60
50 48 45 46 46 44 42 41 41 41 41 39 38 36 36 33 32 32 33 32 32 31 32 32 33 35 37 39 40 41 42 44 46 48 50 52 54 56 57 57 58 58 61
53 51 48 47 45 44 44 44 42 43 42 40 37 35 36 34 33 33 34 34 33 33 34 36 37 38 38 40 40 41 43 45 47 49 52 53 55 57 58 59 61 63 62
55 53 49 47 45 45 44 45 43 44 44 41 38 35 35 35 34 35 35 35 35 36 38 40 40 40 41 41 41 42 44 46 48 50 53 55 57 58 60 62 64 65 65
57 53 51 49 47 46 44 45 44 43 45 42 39 36 36 36 36 36 36 37 37 38 40 40 40 41 41 41 42 45 47 49 52 53 57 59 60 61 63 64 67 67 66
60 56 52 51 50 48 45 43 42 42 43 43 40 37 35 37 37 38 38 39 39 39 39 40 41 41 42 44 46 48 50 54 55 56 60 63 64 67 68 68 68 69 70
64 60 57 55 52 51 48 45 42 41 42 43 44 41 39 38 39 39 38 38 39 39 40 41 43 45 46 48 49 52 54 54 54 58 64 65 66 70 70 72 71 71 72
69 66 61 58 57 53 53 50 47 45 44 44 46 46 45 44 42 41 40 41 41 42 43 45 46 47 50 51 53 55 57 57 61 64 68 69 71 71 73 73 74 74 73
72 70 66 61 59 57 56 55 53 52 48 48 48 47 47 47 47 45 44 45 45 46 47 48 49 51 53 55 57 60 60 63 65 68 71 72 72 74 76 76 74 74 76
76 72 67 63 64 61 59 59 57 57 54 52 50 49 49 50 49 49 49 48 49 49 51 51 53 55 57 59 62 63 66 65 68 71 73 73 75 78 79 76 76 78 81
76 76 71 67 65 64 62 59 61 63 60 58 54 52 53 53 53 52 52 52 53 54 55 57 58 60 61 63 65 65 66 70 72 73 74 75 79 80 78 79 80 81 83
80 77 75 73 71 66 60 61 61 61 63 62 60 58 57 58 56 55 55 55 56 58 59 61 62 64 66 67 67 70 71 72 74 74 76 80 81 81 82 82 84 85 87
82 77 78 77 74 71 63 60 60 59 58 57 57 57 58 59 58 59 59 59 61 62 64 65 66 68 69 72 71 70 73 75 76 79 82 83 83 84 85 86 86 91 94
85 83 80 79 76 73 72 69 62 61 63 62 62 61 63 65 65 65 64 64 65 66 68 70 70 71 71 70 72 73 75 78 81 84 83 86 86 86 88 90 92 96 98
92 88 85 83 80 77 72 69 70 70 71 67 65 65 65 64 65 66 68 69 69 69 71 72 72 67 68 71 72 74 77 82 85 85 88 89 88 89 93 95 97 99 103
96 94 89 86 83 82 80 74 74 71 71 72 68 68 68 66 66 66 66 65 64 64 65 65 65 69 70 75 79 80 83 85 85 87 86 91 93 96 99 101 102 104 104
100 97 95 93 90 87 83 82 79 75 75 75 73 72 70 70 66 65 65 66 68 68 69 71 75 76 78 80 82 83 84 85 86 84 89 91 95 99 103 104 106 108 109
103 102 100 98 95 93 91 87 85 82 77 76 75 74 71 74 73 75 78 81 81 81 80 81 81 82 81 81 83 84 86 87 88 91 91 95 96 101 106 108 110 112 114
104 104 103 102 101 98 96 94 92 90 88 85 83 81 81 82 84 85 85 86 86 86 86 84 85 85 87 88 89 90 91 93 95 95 96 98 101 104 108 112 115 116 116

GFSSE_250_spd_078.txt.gz
Wind_Speed
47 43 44 43 41 38 35 34 31 30 27 26 28 29 29 29 31 32 30 29 29 29 29 30 30 23 23 25 25 25 26 26 27 26 27 28 30 31 33 35 39 42 44
49 46 43 45 43 42 40 37 35 33 32 30 29 29 29 31 31 31 29 31 29 29 32 30 25 23 24 25 24 26 28 28 29 30 30 31 33 34 37 40 43 45 48
49 49 46 44 43 43 42 41 39 37 35 33 32 31 32 33 32 33 30 28 31 31 30 27 25 27 25 25 25 26 28 29 32 34 33 34 36 38 42 44 47 49 51
53 51 49 47 44 43 43 43 41 39 38 37 34 34 34 32 31 30 29 29 30 28 29 29 29 28 26 26 26 27 30 32 34 37 37 37 40 42 45 47 49 51 55
52 53 51 51 48 44 43 42 41 42 41 40 36 35 34 32 32 30 31 29 29 29 29 28 27 26 27 28 29 30 33 35 37 38 39 41 43 45 47 49 51 54 56
48 50 51 50 48 45 42 40 40 40 40 40 38 36 36 33 33 30 32 32 31 29 28 27 29 30 31 30 30 34 35 38 39 41 42 44 45 47 50 51 53 56 57
47 47 48 47 47 46 42 40 38 36 37 38 37 37 35 33 33 32 33 33 31 30 28 29 31 32 32 32 34 36 37 39 40 42 43 44 47 48 50 52 54 56 58
48 48 47 45 45 44 43 41 40 38 36 36 37 37 35 35 34 33 35 34 32 32 30 32 33 34 34 35 37 38 39 40 41 42 43 46 47 50 51 54 55 57 60
50 48 48 47 46 45 43 40 40 40 38 38 37 38 37 37 36 34 35 33 33 34 35 36 36 36 36 38 40 40 40 41 42 44 45 46 48 52 54 56 59 59 61
56 52 49 47 48 46 45 42 42 41 40 39 38 40 39 38 36 35 35 34 34 35 36 38 38 38 38 40 42 43 43 43 44 45 47 49 51 52 54 56 59 60 63
60 54 51 48 47 46 44 44 44 42 41 41 41 41 41 40 37 36 36 35 36 37 37 38 38 39 41 42 43 44 44 43 44 47 48 50 52 52 54 58 60 63 64
64 58 53 50 48 48 46 46 44 42 41 42 42 43 42 42 40 38 38 37 37 38 39 39 39 41 41 42 44 43 44 45 48 50 51 54 55 56 57 61 63 65 67
65 63 58 56 51 51 49 47 45 44 43 42 43 43 43 42 41 40 38 38 38 38 40 40 41 41 42 43 44 45 47 49 52 52 54 57 56 60 60 64 66 68 71
69 66 63 59 57 53 51 50 49 46 44 41 41 43 42 43 42 42 41 40 40 40 40 41 42 42 44 45 46 49 50 52 52 55 59 59 60 59 64 67 69 72 73
70 65 67 64 61 57 54 50 50 48 47 45 43 42 41 43 45 45 44 43 44 45 44 45 45 46 46 48 50 50 52 55 57 59 61 60 60 65 68 70 72 75 78
75 75 65 66 65 61 58 56 54 52 50 50 48 46 44 45 47 47 47 47 47 47 47 47 48 49 50 51 54 55 57 59 60 61 63 64 68 67 70 73 75 79 80
72 73 76 63 62 65 63 60 58 56 55 52 53 52 51 50 50 50 50 50 50 51 50 51 52 52 53 55 56 58 61 62 63 65 68 68 69 72 74 77 80 82 83
74 76 75 73 73 70 68 66 63 60 58 56 55 55 55 56 56 55 54 54 53 54 54 55 55 55 57 58 59 62 64 66 68 67 67 68 70 74 79 81 83 83 83
82 77 72 75 78 76 72 68 66 65 63 62 59 59 59 61 60 59 59 58 57 58 58 58 58 59 61 62 64 66 67 69 68 68 69 71 74 78 81 82 83 84 86
79 82 81 76 75 75 75 72 70 68 66 64 64 64 61 61 62 63 62 62 62 62 62 62 63 63 65 67 67 68 66 68 68 70 73 77 79 82 83 82 83 86 87
90 84 86 82 82 79 76 73 73 71 68 65 63 61 60 60 60 60 60 60 62 64 66 68 69 68 68 68 65 60 66 66 68 72 79 81 82 82 83 85 85 88 92
92 92 84 84 84 84 82 77 75 72 74 70 67 64 67 66 64 64 65 65 66 66 66 64 66 64 64 64 61 65 66 74 77 77 80 84 84 86 86 90 93 95 98
98 95 93 93 91 84 76 80 79 74 75 74 75 75 69 66 67 68 67 67 68 70 70 66 65 65 64 66 72 76 79 78 79 81 80 83 88 92 94 97 97 101 103
105 102 98 93 92 90 87 81 81 77 77 76 77 75 74 73 72 72 74 71 71 72 72 70 70 70 70 73 78 85 84 82 81 81 86 90 94 97 100 99 102 105 109
108 106 105 101 96 95 93 91 91 89 87 84 81 78 75 76 74 72 75 75 74 75 77 75 75 77 81 84 86 88 87 87 89 90 93 95 97 98 101 105 106 109 112
109 108 107 105 103 101 98 96 95 93 92 91 90 88 85 83 78 78 79 80 79 80 81 80 82 85 88 88 90 91 91 92 94 95 94 97 99 102 106 107 111 114 117

GFSSE_250_spd_081.txt.gz
Wind_Speed
43 41 40 38 38 38 36 33 29 28 26 25 22 22 25 27 27 27 28 28 28 29 29 28 29 30 28 24 26 25 24 26 28 28 29 33 34 35 36 38 40 42 45
45 43 43 40 38 39 39 37 35 33 31 28 27 29 27 26 26 27 28 29 29 30 28 29 30 30 26 26 27 26 26 28 31 30 32 34 36 36 38 40 42 44 46
48 45 45 44 41 39 40 39 39 36 35 33 32 31 31 30 30 30 29 29 28 28 31 30 28 28 28 29 29 28 29 31 33 34 35 37 38 39 41 43 44 46 49
51 48 46 44 44 42 39 40 40 39 38 36 36 34 34 33 32 33 30 28 28 29 30 30 28 29 29 31 29 29 33 34 35 36 37 38 40 42 44 45 47 49 49
53 51 49 47 44 45 42 41 40 40 39 38 38 38 37 36 35 33 31 29 29 29 31 32 30 29 29 30 31 33 35 36 37 37 39 40 41 43 44 46 47 49 50
55 53 52 52 50 48 45 45 44 44 40 39 38 38 38 36 36 35 32 31 30 30 32 32 31 29 30 32 33 35 36 37 38 38 41 41 43 45 47 48 49 51 51
52 51 51 51 49 49 48 47 46 45 42 38 35 36 36 35 36 34 33 32 31 31 33 33 32 32 32 34 37 37 38 40 41 40 42 42 44 46 48 49 50 52 52
49 48 47 46 45 46 47 46 42 41 40 37 35 34 33 34 35 35 35 34 33 33 34 34 33 34 35 36 38 38 40 42 42 43 44 45 46 47 49 50 52 54 54
52 50 46 44 44 43 43 42 40 39 38 37 35 36 35 35 36 37 36 35 34 34 35 34 35 35 36 38 39 40 41 42 43 44 44 45 47 48 51 54 56 55 56
51 54 50 47 45 44 44 43 41 40 38 37 36 37 37 37 37 38 37 36 35 34 36 36 35 36 38 39 40 40 42 43 43 45 45 46 48 50 52 55 56 55 55
56 57 55 52 48 44 44 46 44 43 41 40 39 39 39 39 39 40 40 38 37 36 37 36 37 37 38 40 40 42 42 43 44 45 46 48 50 52 55 58 57 53 57
63 64 60 58 51 48 47 46 46 45 43 41 40 40 39 41 41 42 41 41 41 39 38 37 37 37 39 41 42 43 44 44 46 47 49 49 51 54 57 58 56 60 62
70 67 67 63 58 53 50 48 45 45 45 43 42 41 41 41 42 43 44 42 41 40 39 38 38 39 40 42 43 44 45 47 48 50 49 50 54 57 58 60 61 64 65
66 63 62 63 59 57 55 52 48 47 48 46 44 43 42 41 41 43 45 43 41 41 41 41 41 41 42 43 45 46 48 48 51 52 53 55 58 60 63 64 67 67 69
68 69 64 62 61 59 59 57 54 52 48 48 47 46 45 43 43 43 43 42 42 44 44 44 45 45 46 46 48 50 51 52 54 55 56 58 61 63 65 67 68 70 73
81 72 65 68 67 66 62 62 61 55 55 52 48 48 46 47 48 46 46 45 46 46 47 47 47 48 48 49 51 53 54 55 56 57 60 62 64 66 65 67 68 71 76
82 74 73 70 67 68 62 67 67 64 59 56 53 52 51 50 50 51 51 51 51 51 51 51 52 52 52 54 55 56 57 58 60 61 63 65 68 67 66 65 69 76 79
68 75 72 71 71 70 69 67 55 60 64 61 58 56 56 56 55 54 55 55 56 56 56 56 56 56 57 57 59 60 61 62 64 66 61 64 64 64 68 75 79 80 80
81 78 68 68 69 68 73 72 72 70 62 62 61 61 60 60 59 59 59 59 59 60 59 60 59 59 61 61 64 64 65 67 65 62 68 66 62 66 76 81 80 83 81
91 82 79 82 75 68 69 64 66 66 69 70 67 65 64 65 64 63 62 62 61 60 60 62 63 62 63 63 64 65 66 65 63 64 68 65 68 74 79 80 81 82 83
91 78 91 84 75 69 70 67 66 67 65 67 65 69 66 67 68 68 67 63 61 60 62 62 63 63 63 64 65 65 65 65 66 68 66 70 75 80 83 82 79 85 89
79 89 88 77 77 75 71 67 71 67 59 57 57 64 64 68 69 68 65 66 65 65 65 65 65 65 65 67 64 68 69 72 71 70 71 77 82 84 84 85 89 93 92
91 82 86 80 74 78 70 78 69 64 69 70 71 67 68 70 68 67 71 71 69 66 66 66 68 69 68 72 71 73 73 70 74 75 79 84 86 88 88 90 93 96 96
106 103 97 95 94 82 83 82 78 77 72 79 77 73 70 74 77 75 72 75 75 75 76 72 69 70 72 75 77 80 77 75 77 78 86 89 88 90 92 93 96 98 100
113 110 104 105 104 98 91 84 88 88 87 86 83 80 75 75 75 75 80 80 76 77 78 78 78 79 80 79 80 80 84 86 85 87 86 92 91 92 95 97 100 103 104
108 111 111 110 107 104 103 94 93 93 94 94 92 92 93 90 86 87 87 85 85 86 86 86 87 86 86 85 86 87 84 86 89 89 90 93 98 98 101 102 104 108 110

GFSSE_250_spd_084.txt.gz
Wind_Speed
47 45 42 40 37 34 34 33 32 30 28 23 22 21 21 19 19 22 24 24 25 26 27 29 27 29 29 30 28 27 28 28 29 32 35 34 34 34 34 34 36 38 39
47 47 45 42 39 36 34 36 35 35 32 30 27 25 24 24 25 25 25 26 27 26 27 28 28 30 31 29 28 29 30 31 32 36 37 36 36 36 36 37 38 39 41
48 49 47 44 41 38 37 35 36 36 37 35 33 31 29 28 28 28 29 30 29 28 27 27 30 30 30 30 30 30 32 32 33 37 38 38 38 38 39 40 42 43 44
48 50 50 46 43 41 40 38 36 37 38 38 36 34 33 33 32 33 33 33 31 29 29 28 30 30 31 31 32 31 31 32 35 37 40 39 39 39 41 43 44 45 45
52 50 51 48 46 43 42 41 40 37 37 38 38 36 34 35 35 35 35 33 32 30 31 29 30 32 32 32 31 31 33 34 36 39 41 40 41 42 43 44 45 46 48
54 53 52 51 49 46 44 43 41 40 40 39 39 39 37 37 36 36 34 32 31 31 32 30 30 33 33 33 32 33 35 37 38 40 41 41 41 43 45 45 46 48 50
55 53 52 52 51 49 48 46 45 43 43 42 42 41 38 37 35 35 32 32 31 32 32 32 32 34 34 34 33 35 36 38 39 40 41 42 43 44 45 46 48 50 52
52 52 53 54 53 51 49 48 47 45 45 43 42 38 36 34 33 34 32 32 33 33 34 34 33 34 34 35 36 35 36 38 39 41 42 43 44 45 46 49 50 52 53
51 53 54 52 51 49 47 47 45 43 43 42 40 37 35 34 33 34 34 34 34 35 35 35 34 34 34 35 36 36 37 39 41 41 42 43 45 45 47 49 51 53 55
47 49 54 52 50 46 45 44 43 41 40 39 39 37 36 34 34 35 35 36 36 36 36 37 36 35 36 35 36 36 38 39 41 42 43 44 45 46 48 49 52 56 57
46 54 58 54 51 48 47 45 44 42 42 41 40 39 38 37 37 37 37 37 39 38 37 37 37 37 37 36 37 37 39 41 42 43 45 46 47 48 50 53 56 59 60
54 55 53 49 44 47 51 48 47 46 43 43 43 42 41 40 38 39 38 39 40 40 39 38 38 38 38 38 39 40 42 43 43 45 46 48 49 50 52 55 58 61 63
44 47 53 48 48 53 55 53 50 49 45 43 43 44 43 42 41 40 40 40 39 40 41 40 38 39 39 41 41 42 43 44 46 47 49 51 52 54 56 58 60 63 65
47 50 54 62 65 63 61 60 56 55 49 47 44 43 44 44 44 43 42 41 39 39 40 40 39 39 41 43 45 46 46 47 48 49 51 53 55 56 60 63 63 65 67
46 47 48 64 66 62 66 63 62 59 56 53 50 47 45 48 48 47 46 45 44 41 41 41 41 41 43 46 47 49 50 50 51 53 55 56 57 60 63 63 66 68 67
47 55 44 46 56 63 58 57 57 59 56 55 55 53 52 50 50 50 49 48 47 46 46 46 46 46 48 49 52 53 54 55 55 57 58 59 61 62 63 68 67 65 67
74 44 41 46 43 55 65 61 56 57 58 57 55 56 58 55 55 54 52 52 51 50 49 50 50 51 52 53 54 56 57 58 59 61 62 64 64 65 68 68 67 64 71
94 87 81 74 66 45 51 60 59 58 64 65 62 61 64 64 61 59 57 56 56 55 55 55 54 55 56 58 59 60 61 62 65 65 64 62 63 68 69 68 68 71 75
84 82 90 83 69 70 56 59 61 61 65 62 65 63 58 58 62 65 63 60 59 59 58 57 58 58 60 59 60 63 63 63 64 63 64 59 64 70 71 69 71 76 79
88 83 75 80 77 83 81 76 68 64 64 62 65 65 67 69 66 63 64 63 62 62 62 61 60 60 61 61 61 61 62 62 63 64 65 65 67 69 70 73 75 77 82
90 95 92 88 82 91 92 80 68 68 57 59 61 61 63 67 68 67 66 67 67 65 64 64 65 64 64 64 63 63 63 63 67 67 71 70 71 73 74 76 80 84 86
94 95 86 82 81 82 85 81 73 63 57 58 59 64 63 64 68 71 72 67 67 65 63 63 62 62 65 65 64 62 64 68 70 74 74 76 77 77 79 83 87 89 88
108 104 97 91 84 79 78 90 88 82 71 63 68 70 67 65 61 68 63 63 63 64 68 68 69 70 70 72 70 70 70 74 77 79 82 83 82 82 85 88 88 90 92
112 111 109 101 90 93 83 86 94 97 91 79 73 85 81 82 74 75 76 73 68 67 68 70 70 72 73 75 76 78 83 82 85 86 87 86 85 86 87 90 92 95 96
104 108 109 112 109 101 87 91 84 80 81 86 89 79 80 77 77 76 75 76 76 78 75 80 79 77 78 79 81 82 82 84 85 84 84 90 88 88 89 91 95 99 101
107 102 96 98 101 104 105 107 96 87 92 83 87 90 89 89 86 89 86 84 87 88 85 84 87 86 84 86 88 90 90 91 90 90 88 88 93 94 96 99 102 104 104

GFSSE_250_spd_087.txt.gz
Wind_Speed
45 42 40 39 39 37 35 33 31 30 28 27 26 23 21 18 17 18 19 21 22 24 25 27 28 28 26 27 29 29 29 29 30 30 33 35 37 36 36 35 36 37 37
49 45 43 41 42 40 37 35 33 31 30 30 29 27 25 23 20 21 22 24 25 27 29 27 27 28 27 28 29 30 30 29 31 30 32 35 38 37 36 36 37 38 39
48 48 47 45 44 43 42 38 35 33 31 32 33 32 31 30 28 26 27 27 29 29 30 29 28 29 28 29 30 31 31 31 29 30 32 36 39 39 37 38 39 40 39
50 47 47 46 45 44 42 40 38 35 33 33 32 33 33 33 31 29 30 30 31 31 31 30 30 29 29 29 30 31 31 31 31 32 34 37 40 39 37 39 40 41 41
53 50 47 45 46 46 45 42 40 37 36 35 34 33 34 34 33 32 33 32 32 32 30 29 29 31 30 30 31 32 31 32 33 34 36 38 39 38 39 40 41 42 43
54 56 54 49 48 47 46 45 42 40 38 37 36 37 36 35 34 36 35 34 33 32 31 29 29 31 31 31 32 32 31 32 33 34 36 38 39 40 40 41 42 43 44
56 54 54 51 49 48 47 46 45 44 41 41 39 37 38 39 37 34 33 32 31 31 31 30 30 31 32 32 33 32 32 31 33 35 37 38 40 40 41 43 44 45 46
59 55 55 51 50 50 49 49 49 48 45 44 42 42 41 40 37 33 33 32 31 32 31 31 32 32 32 33 33 34 33 33 33 36 37 39 41 41 43 44 45 46 48
59 56 54 52 51 50 50 50 50 49 47 45 43 42 40 40 36 34 33 32 32 31 33 34 33 33 32 33 33 33 34 34 34 36 38 40 42 43 44 45 47 49 50
59 59 56 55 54 51 51 51 51 50 47 43 42 39 39 37 35 35 34 33 33 34 34 35 36 35 34 34 35 35 35 36 35 37 39 41 42 44 45 48 50 52 53
58 56 55 52 49 48 49 51 52 49 45 42 39 39 39 38 37 35 36 36 36 36 36 36 38 36 36 35 34 35 35 37 38 38 40 42 43 45 47 50 52 54 56
55 54 50 50 49 52 52 51 51 48 46 43 41 39 40 40 40 38 38 39 39 38 37 38 38 38 37 36 36 35 36 38 40 41 42 44 46 47 50 53 56 57 60
46 47 44 49 53 55 51 52 55 53 50 48 45 43 42 41 40 40 41 41 41 41 39 38 38 37 37 37 35 36 38 40 40 44 45 47 49 51 53 55 58 62 64
47 41 46 46 41 45 47 52 56 56 52 50 49 46 44 44 43 41 42 43 43 43 43 42 41 40 38 39 38 39 41 44 45 47 48 51 53 55 57 60 62 64 66
49 43 45 48 42 41 43 47 48 50 52 49 52 51 49 47 45 45 46 45 45 45 45 45 45 44 44 44 45 46 47 48 50 51 53 54 55 57 61 62 64 67 67
50 51 51 53 55 50 48 50 60 62 61 57 57 52 55 53 51 52 51 51 50 50 50 49 48 48 48 48 49 51 52 53 55 56 58 58 59 59 60 60 64 65 67
52 52 48 52 48 49 43 45 47 51 48 52 50 46 45 49 51 51 53 54 54 54 53 53 53 51 53 52 54 55 56 57 57 58 59 60 60 61 61 64 67 66 68
65 52 56 48 46 46 45 48 45 40 41 47 48 46 49 50 51 54 56 56 56 57 59 57 54 55 56 56 55 57 58 58 59 59 59 59 63 63 66 67 67 69 71
80 69 58 56 48 45 45 40 47 45 42 46 49 54 50 53 58 60 62 62 65 60 55 54 57 56 58 58 58 58 59 62 64 63 62 61 61 68 71 72 72 73 77
92 90 77 58 55 50 52 56 55 44 41 46 48 54 49 53 53 57 58 60 63 63 64 61 65 63 65 64 62 63 64 63 63 60 62 64 66 69 70 74 79 80 81
96 96 91 92 62 68 68 75 69 68 70 64 66 50 54 60 65 67 64 62 63 65 66 67 67 59 62 62 64 63 63 65 66 67 68 69 73 75 77 77 80 83 87
92 97 96 97 93 83 83 83 81 79 86 90 80 65 70 74 71 67 68 67 67 66 62 65 66 67 68 67 64 62 68 71 71 71 74 75 75 76 77 83 88 91 89
95 95 99 104 99 92 89 85 86 84 87 86 88 83 85 81 85 73 69 71 71 71 70 70 75 73 71 69 67 68 68 73 75 75 75 77 79 81 86 93 94 91 89
101 103 100 104 104 103 99 86 78 81 89 89 87 81 73 84 84 75 72 83 78 75 78 83 79 82 81 81 79 78 75 75 75 79 85 86 87 87 88 93 95 96 97
100 103 103 101 95 101 94 97 89 84 91 94 95 93 84 87 89 91 91 86 86 87 89 85 85 81 82 79 77 80 83 85 88 87 89 90 86 98 102 99 97 98 99
109 107 107 105 104 99 95 92 97 103 96 94 93 92 96 88 90 97 100 100 99 98 93 98 98 85 83 85 90 93 93 94 95 96 95 100 104 110 102 100 100 103 105

GFSSE_250_spd_090.txt.gz
Wind_Speed
45 42 39 38 36 35 32 32 29 27 25 24 25 25 23 21 19 17 16 16 17 19 20 22 26 26 26 27 26 26 25 27 26 26 25 26 28 31 31 31 30 32 33
49 46 44 41 39 38 37 35 33 30 28 27 25 25 25 25 22 21 20 21 22 22 23 25 26 27 27 27 27 27 26 28 27 27 25 26 28 31 32 31 32 33 33
52 49 47 45 44 42 40 38 35 34 33 31 29 26 26 26 27 26 25 25 26 28 27 28 28 29 28 28 27 28 27 28 28 27 27 28 29 30 32 33 33 33 34
54 54 51 48 47 46 43 42 39 38 37 34 32 29 28 26 26 28 28 28 28 28 28 28 28 28 26 29 28 27 27 28 27 26 27 28 28 30 32 33 34 34 35
56 55 52 49 48 47 47 44 42 40 37 35 33 31 29 30 29 26 27 28 30 29 29 30 27 28 26 27 29 28 28 28 27 27 28 29 29 31 32 33 34 35 36
59 55 53 50 49 47 47 46 43 40 39 37 35 34 32 31 31 30 31 30 30 29 29 29 27 27 26 27 28 29 28 28 28 28 29 30 30 32 33 34 36 36 37
61 59 56 52 53 51 48 45 44 42 41 39 38 37 36 35 35 35 33 32 29 30 29 29 29 29 28 28 29 29 29 29 29 30 30 31 32 33 34 35 35 37 39
64 61 57 55 53 53 54 51 49 46 44 42 42 41 40 38 37 36 34 33 31 31 30 29 28 29 30 31 30 30 29 29 30 31 31 32 33 34 35 36 37 39 41
67 64 61 57 56 53 51 49 49 47 46 45 45 43 41 39 40 38 35 32 31 30 29 29 30 31 30 31 33 32 31 30 31 30 32 33 34 35 37 37 40 42 44
64 65 63 60 58 55 52 51 48 49 47 47 46 46 42 41 39 35 34 32 31 30 30 31 32 32 32 33 32 31 32 32 31 31 33 34 37 38 40 42 44 46 48
67 62 64 60 59 56 56 52 50 48 46 46 47 45 40 39 39 36 34 34 32 32 33 32 33 34 33 33 32 30 31 31 31 33 34 36 39 42 44 46 49 51 52
71 68 64 61 58 56 57 55 53 48 48 46 42 45 47 41 38 37 37 36 34 33 34 34 34 35 35 34 33 31 29 29 30 33 37 40 43 44 48 51 52 52 54
64 65 63 61 60 60 55 51 52 50 51 48 46 45 45 42 42 42 39 36 34 35 35 36 36 37 38 37 37 37 36 35 37 40 42 44 45 49 51 53 54 55 57
47 57 58 64 57 55 56 53 49 51 52 44 47 48 49 49 46 45 42 40 38 38 36 38 38 39 38 39 40 40 40 41 41 43 45 46 49 51 54 54 55 57 61
51 56 63 63 54 51 48 48 48 42 38 41 43 48 47 43 43 47 47 46 45 44 44 43 43 42 44 43 44 45 45 46 47 47 47 50 51 53 53 55 58 62 63
59 55 54 58 57 53 50 52 42 36 36 41 44 45 46 48 52 48 45 47 47 46 46 45 44 44 44 46 49 48 48 49 50 49 51 52 51 54 57 58 59 64 64
60 61 59 52 54 56 51 49 41 38 40 46 50 56 57 51 44 39 40 43 45 46 46 46 45 46 49 50 51 50 50 51 53 53 54 55 57 58 59 59 62 64 67
65 67 69 64 60 54 51 50 47 47 52 49 47 48 50 48 49 46 46 43 43 47 47 47 49 51 56 55 51 49 52 53 56 59 60 60 61 61 64 64 65 68 69
84 85 83 68 56 60 56 52 57 54 51 50 52 50 50 47 44 46 46 46 47 49 48 45 47 53 55 55 58 61 65 65 62 65 64 64 65 65 64 68 68 68 71
84 78 69 66 63 58 53 53 56 57 55 50 52 51 47 45 51 51 55 52 50 52 52 54 58 61 61 63 68 65 65 67 65 70 71 69 68 64 69 70 74 73 74
89 85 76 66 69 71 59 56 57 54 52 57 58 56 51 47 50 54 55 54 62 56 58 66 65 64 62 63 64 63 65 60 66 71 77 80 77 70 69 73 77 80 84
89 94 84 78 73 75 73 60 57 60 55 54 57 53 59 60 65 76 77 75 79 76 80 83 76 69 64 64 65 69 66 72 74 80 88 88 83 77 73 80 81 83 86
97 90 93 84 89 81 74 63 62 56 59 62 65 68 69 73 81 82 83 83 81 80 88 85 82 78 68 73 75 71 70 83 95 92 88 84 77 76 81 85 86 90 94
96 89 91 93 96 85 76 75 65 72 71 65 66 68 73 73 74 78 81 83 87 93 88 91 84 81 78 82 85 87 91 93 87 88 81 79 84 85 87 90 94 99 98
95 95 94 100 98 89 81 67 66 61 60 73 71 66 60 69 75 81 89 90 90 91 95 98 95 87 87 86 91 97 94 86 83 83 82 92 93 91 90 96 103 105 108
107 99 102 105 105 99 94 90 84 79 78 75 71 72 73 73 81 85 86 86 88 93 97 96 93 97 99 99 98 94 93 94 97 102 99 93 94 93 97 104 109 108 117

GFSSE_250_spd_093.txt.gz
Wind_Speed
45 43 42 40 37 36 34 33 30 28 27 23 19 20 23 23 23 18 16 15 16 16 17 18 19 21 22 23 24 24 24 24 22 24 23 22 22 22 23 24 25 26 26
48 48 46 44 42 39 36 34 32 30 27 24 22 22 21 22 22 23 21 20 19 20 20 21 22 22 23 24 23 24 23 23 22 24 23 23 22 22 23 24 25 27 27
54 51 48 46 45 42 40 38 36 34 32 29 26 25 25 23 21 20 23 26 25 24 24 24 23 23 24 24 24 24 23 23 23 24 22 23 22 23 24 24 26 27 27
57 54 51 50 47 45 44 42 42 38 35 33 30 28 27 25 23 23 22 23 25 26 26 27 24 25 23 24 23 23 23 23 23 23 23 23 24 25 25 26 26 27 27
60 58 55 53 51 49 47 46 45 43 40 37 33 31 29 25 25 25 25 25 23 24 26 26 25 24 24 24 25 25 25 25 24 24 24 23 24 25 26 27 27 27 28
63 61 58 56 54 51 48 47 46 45 43 41 35 33 31 28 28 27 27 28 29 27 27 26 26 26 25 25 25 26 27 27 26 24 25 25 25 25 26 27 28 29 31
66 64 61 59 57 53 51 49 48 46 44 41 35 33 32 31 31 31 31 31 32 31 28 28 27 26 25 25 26 27 28 29 28 27 26 26 25 26 27 28 30 31 34
69 67 65 62 60 55 52 50 48 47 46 41 40 38 36 36 35 34 33 33 33 32 30 29 27 26 25 26 27 27 28 28 27 28 28 27 25 26 28 30 33 34 38
73 70 68 65 62 58 54 51 50 50 48 46 45 42 39 38 36 35 35 36 35 32 30 29 28 26 27 26 27 28 28 25 25 27 27 26 26 27 28 32 35 38 41
74 73 71 68 64 61 59 55 52 49 48 45 44 44 41 40 39 36 36 35 34 31 30 30 29 28 28 28 27 27 28 27 24 23 24 25 27 30 33 35 38 41 43
78 77 73 70 66 61 58 56 54 51 48 45 45 45 42 39 37 37 35 34 34 32 31 31 30 29 28 29 28 29 29 30 30 28 28 31 34 37 38 37 40 43 45
77 80 75 70 68 64 61 59 55 54 51 50 48 45 43 43 38 39 38 37 35 34 34 32 30 30 29 29 30 30 31 32 33 34 35 37 39 40 40 41 43 45 47
71 81 77 72 64 61 58 58 58 54 54 52 50 47 44 46 44 44 41 39 37 36 36 35 31 31 31 32 32 32 32 35 35 37 40 41 43 44 44 45 47 49 53
64 68 77 73 70 64 62 58 59 56 53 48 47 45 48 50 45 43 41 41 41 42 40 38 35 35 38 38 36 36 35 36 37 39 41 44 45 47 49 52 52 54 55
64 57 67 75 72 64 59 58 59 59 58 55 52 50 50 43 41 40 39 40 41 38 41 42 41 37 37 37 37 36 37 39 41 42 42 45 49 50 51 54 58 59 63
71 64 62 63 63 67 65 66 59 59 54 48 49 45 40 38 40 42 44 45 44 44 42 41 41 41 42 42 42 42 43 44 46 47 47 48 50 54 57 59 60 66 70
70 77 65 61 58 53 56 60 59 58 50 48 47 45 39 43 48 46 46 50 51 51 49 52 48 43 44 41 39 43 50 54 50 47 49 56 58 56 53 56 63 71 74
81 72 63 60 58 58 59 60 57 51 52 48 45 40 34 48 44 45 50 55 58 56 50 48 46 44 46 47 48 46 49 53 51 55 59 59 55 50 55 60 74 77 73
67 73 65 63 62 58 54 55 53 52 52 51 50 46 45 52 57 55 53 55 55 55 52 49 46 46 45 45 43 47 48 52 54 55 55 56 55 56 62 68 79 77 77
79 66 62 62 62 65 59 59 53 50 54 54 55 51 49 54 53 54 52 54 55 53 50 50 47 48 49 53 52 50 64 65 56 56 57 57 61 65 72 82 89 81 68
82 91 73 68 69 64 65 65 67 65 59 56 54 54 57 59 52 51 53 55 54 54 53 53 59 64 59 60 61 66 71 68 61 62 63 65 68 70 79 88 84 75 71
86 89 74 69 74 74 70 68 70 64 56 56 58 60 56 60 62 61 60 61 60 55 61 65 73 76 73 71 70 71 69 72 73 70 69 76 77 85 88 81 77 84 93
100 95 91 77 77 77 63 66 70 61 57 59 58 62 59 61 63 64 59 60 67 72 73 79 83 82 85 84 84 78 80 85 85 81 81 81 85 87 84 87 88 95 96
101 109 105 105 100 93 84 73 62 60 65 66 62 59 64 62 59 58 60 66 73 78 79 83 89 87 87 84 88 90 88 82 82 86 86 89 96 98 95 98 92 101 98
105 105 109 107 99 94 93 77 72 70 70 66 62 65 61 61 59 64 67 65 62 63 66 67 79 81 87 92 87 88 93 96 90 95 98 96 101 99 97 92 107 101 106
114 112 99 99 101 99 96 85 88 82 70 66 68 64 63 63 65 66 61 67 73 72 73 73 74 79 76 81 90 94 97 97 102 100 102 102 98 101 99 104 102 113 113

GFSSE_250_spd_096.txt.gz
Wind_Speed
46 42 42 40 40 37 36 33 31 29 27 27 26 22 19 18 19 20 21 19 18 18 17 17 18 20 19 20 22 23 25 23 23 23 22 23 21 20 19 20 21 21 22
50 47 44 44 43 41 40 37 34 32 31 28 25 21 19 17 16 18 20 23 22 22 22 21 22 23 24 24 24 24 25 24 25 24 23 23 21 22 21 21 22 23 23
53 49 47 47 45 44 41 41 38 36 31 30 27 24 21 20 18 19 17 18 20 25 27 26 26 25 25 24 23 24 24 25 24 24 23 23 23 23 22 22 22 23 24
58 55 50 49 49 47 44 43 41 40 36 33 31 28 26 24 22 21 20 20 21 20 24 28 26 26 23 23 22 23 24 24 26 26 25 23 23 23 22 22 22 23 23
62 59 55 52 52 51 47 47 45 42 40 38 36 32 30 29 27 23 23 22 22 22 22 22 24 25 24 24 24 24 24 25 26 26 26 26 24 24 23 22 23 23 25
65 62 59 56 55 53 51 48 47 45 42 40 38 37 34 31 28 26 26 26 26 26 27 26 27 27 26 24 23 23 25 25 27 27 25 25 26 25 23 23 22 24 27
68 66 64 59 58 55 53 51 50 47 44 42 40 39 36 32 29 30 29 29 29 30 28 28 26 27 28 26 23 23 24 24 24 25 24 25 25 24 23 24 23 27 30
71 70 67 63 60 57 55 54 53 49 47 45 42 41 37 34 33 33 33 32 31 31 32 31 28 27 27 26 24 23 23 23 23 23 23 23 21 21 21 23 28 32 33
75 73 70 69 64 62 58 57 56 53 49 46 44 42 40 39 38 35 33 32 33 33 33 31 28 27 27 26 27 25 24 24 24 24 22 22 21 22 26 30 35 34 35
77 77 75 73 69 67 62 60 57 55 51 46 46 43 42 40 38 37 34 32 32 33 30 29 27 27 28 28 27 25 25 25 26 26 27 27 27 28 32 35 36 38 41
71 75 77 77 72 69 67 63 60 57 54 51 48 46 42 40 39 39 37 33 34 35 32 32 29 29 29 29 28 27 26 27 27 27 29 29 30 31 34 35 38 40 43
61 71 77 79 77 71 69 66 62 59 56 54 51 49 46 44 44 42 38 41 41 39 35 33 33 32 29 28 28 27 28 30 30 31 33 32 34 35 37 39 42 43 44
59 59 74 75 80 76 73 69 66 62 57 54 53 52 48 48 46 44 39 43 41 42 43 36 35 34 33 31 32 32 34 34 35 33 36 36 38 41 41 42 45 45 45
61 71 72 76 76 78 78 72 68 66 61 58 57 55 53 50 46 41 40 46 46 44 39 36 39 36 35 37 35 34 31 32 35 34 36 40 43 44 44 43 49 46 40
62 61 62 67 76 78 77 73 69 66 62 56 54 56 54 50 47 49 48 48 45 44 43 43 42 41 36 33 34 35 39 43 44 44 42 42 41 40 45 48 48 39 44
64 62 54 66 71 77 79 75 70 66 58 54 54 54 51 54 55 54 50 42 42 44 44 46 44 42 45 43 43 45 47 47 48 42 42 42 39 43 46 48 45 46 49
79 69 65 65 64 63 66 71 69 68 64 60 57 54 57 54 53 52 46 35 42 48 47 48 48 46 46 47 52 54 52 49 41 44 42 39 46 48 48 50 50 51 54
88 74 60 60 61 58 51 54 64 72 67 64 57 54 57 51 49 49 44 45 51 52 50 49 47 48 51 57 54 49 39 39 46 49 48 47 54 51 51 51 50 58 63
69 66 61 64 66 59 54 55 54 59 67 64 62 63 59 53 52 48 47 49 55 56 53 54 53 52 51 51 50 47 46 41 42 48 50 49 55 52 56 62 62 66 72
78 64 67 66 61 58 57 59 56 56 56 61 65 64 61 55 52 52 54 54 58 57 59 58 57 56 53 51 50 50 51 52 47 50 53 55 61 56 66 74 71 73 79
87 69 67 62 60 61 64 65 62 63 59 56 53 55 55 54 57 56 59 57 59 59 56 55 58 56 51 57 60 64 64 64 61 61 62 66 73 74 80 82 75 77 80
87 84 72 63 74 70 67 65 66 62 61 56 61 55 52 52 53 57 57 61 62 59 59 59 57 59 59 62 66 62 68 65 67 74 81 77 82 83 88 84 80 84 84
99 91 80 70 66 68 69 73 67 65 67 61 60 63 65 57 56 55 59 60 59 59 63 68 67 68 67 69 70 74 70 74 77 80 80 81 88 85 85 81 87 85 91
96 106 94 86 82 79 79 74 67 65 68 67 67 67 66 64 57 56 58 62 64 69 65 68 71 70 70 71 75 77 78 78 84 83 88 85 77 81 82 88 91 96 97
93 107 108 104 95 91 80 76 74 69 74 75 74 67 64 63 60 59 64 65 63 64 65 65 72 81 82 77 79 80 78 84 86 73 85 77 85 83 91 96 96 99 102
115 103 106 101 103 95 87 81 80 79 76 80 76 68 65 65 69 69 66 65 64 63 64 71 68 66 69 78 79 93 85 83 83 84 80 88 91 95 97 97 102 105 100

GFSSE_250_spd_099.txt.gz
Wind_Speed
47 44 40 39 37 35 35 34 31 30 27 28 27 26 24 21 20 18 18 19 20 19 19 20 20 20 21 23 24 27 27 25 27 26 26 24 25 24 23 22 21 21 21
49 48 45 44 41 38 37 38 35 32 29 27 26 24 24 20 19 16 16 17 18 21 23 23 24 25 25 26 26 25 24 24 25 26 26 26 25 25 24 23 22 22 21
53 52 49 47 44 42 40 40 38 35 33 32 29 26 23 20 18 19 18 16 17 17 17 22 25 25 26 26 26 24 23 25 24 25 26 26 25 24 24 24 23 22 21
58 55 53 51 48 45 43 41 41 39 37 35 34 29 26 24 22 22 22 20 20 20 19 19 20 21 23 24 25 25 24 24 25 25 25 25 25 24 25 24 23 21 19
61 57 54 53 51 49 47 45 43 41 40 38 35 33 31 29 26 26 26 24 21 22 22 22 23 23 23 23 25 26 23 22 24 24 24 24 24 23 24 23 22 21 21
64 63 59 56 55 53 50 47 46 45 43 41 38 35 34 33 30 29 27 25 26 25 25 26 26 25 24 24 24 25 24 22 22 23 23 23 23 24 23 20 19 19 25
69 67 64 60 59 58 54 52 49 48 46 43 41 39 37 36 33 30 28 25 25 26 28 29 29 28 26 25 25 25 25 24 22 23 22 21 21 21 18 17 20 25 28
66 69 68 65 60 61 59 55 53 52 49 47 43 42 40 37 36 33 30 29 31 28 27 29 30 29 27 25 25 25 24 25 24 24 23 22 20 20 21 23 25 29 31
59 64 69 69 66 63 62 58 55 55 52 49 47 44 42 40 37 34 32 33 31 28 29 29 27 28 26 25 24 26 25 25 25 24 24 24 23 23 24 27 29 31 33
56 63 68 70 69 66 64 63 60 56 55 52 50 48 45 41 40 37 33 34 31 31 32 29 30 29 27 26 25 27 27 26 26 26 27 25 26 28 29 31 33 35 36
43 59 62 71 72 70 67 66 65 60 58 56 54 51 49 46 41 39 36 35 34 33 30 33 33 31 33 29 28 27 26 26 27 27 29 30 31 32 32 34 37 36 37
66 75 61 65 74 71 70 68 66 65 60 58 57 54 52 48 47 44 42 40 39 38 38 40 39 34 34 33 32 30 29 28 30 31 33 33 33 32 35 36 34 32 37
43 69 65 51 64 69 72 73 71 69 66 64 61 59 55 51 49 48 44 44 42 41 36 38 36 37 36 37 38 35 31 37 36 34 30 32 37 37 39 41 35 34 37
72 64 64 50 55 63 73 75 75 72 71 66 65 61 58 54 51 50 48 48 45 39 36 42 43 40 35 42 42 38 29 34 36 34 34 41 42 42 40 34 32 36 41
77 66 61 58 70 59 69 74 77 77 77 72 67 63 60 58 56 51 52 51 47 44 44 46 46 47 46 46 46 43 42 36 37 42 45 48 42 46 42 37 37 38 41
71 66 61 65 67 67 58 74 77 77 79 78 72 66 61 61 57 52 49 52 48 49 48 46 47 44 46 47 47 45 44 47 46 47 51 48 48 46 44 41 40 37 38
80 80 71 77 73 67 66 62 67 71 73 77 75 70 65 60 54 51 51 49 53 53 51 48 44 48 46 47 47 44 47 48 49 51 49 48 47 46 48 43 43 45 48
84 87 84 72 68 64 61 58 59 68 75 74 71 71 68 61 59 56 52 55 56 55 50 51 52 48 51 50 44 44 47 49 47 48 50 44 47 47 49 49 49 51 58
83 85 87 77 73 68 65 63 65 64 65 69 68 72 70 67 55 54 57 57 55 50 50 53 53 56 55 50 49 52 52 51 49 51 55 54 54 53 48 52 49 55 66
96 93 84 79 73 71 59 53 54 54 57 62 68 67 63 63 60 60 58 55 60 59 56 57 58 58 55 56 56 55 56 54 52 54 58 61 60 59 56 60 58 71 74
101 108 86 80 76 74 62 58 59 55 57 57 56 55 61 63 62 64 67 65 62 57 56 56 57 59 57 59 59 57 58 54 56 59 64 66 64 65 71 71 70 76 81
102 98 87 87 80 76 66 61 59 57 57 54 57 50 54 55 59 61 64 64 63 60 57 58 58 61 62 60 56 61 59 59 63 66 66 68 71 75 76 72 69 79 85
95 91 87 82 82 80 82 71 68 64 63 59 58 58 58 60 61 58 58 60 61 58 51 57 62 62 65 62 60 61 65 67 68 71 71 76 78 76 68 77 85 79 81
84 83 79 82 79 75 77 72 66 68 61 62 64 65 64 64 64 62 61 61 59 60 56 58 62 62 64 66 67 69 73 73 73 75 78 78 77 74 84 77 82 79 81
85 81 78 83 83 80 80 74 67 64 67 61 63 64 65 67 68 66 66 62 64 62 58 60 64 68 66 72 79 84 80 79 77 81 89 87 80 82 85 76 81 80 81
94 90 89 83 80 80 81 75 72 69 71 69 69 71 73 74 76 75 72 74 73 66 64 64 64 71 74 75 77 79 77 78 79 81 95 83 90 88 86 81 83 86 85

GFSSE_250_spd_102.txt.gz
Wind_Speed
47 40 39 38 35 33 30 28 30 28 27 23 21 23 26 24 21 21 19 16 15 18 18 19 20 21 21 22 23 25 25 26 25 25 25 24 24 24 23 23 22 21 20
52 46 41 41 39 36 35 33 31 32 30 28 23 21 21 21 19 19 18 14 14 15 15 16 20 23 23 24 24 25 24 23 24 23 23 23 24 25 23 22 21 20 16
60 54 47 43 45 41 39 37 34 33 33 31 27 25 22 23 20 18 15 15 15 15 16 16 17 19 19 21 22 24 23 23 23 22 23 23 24 24 22 22 21 19 15
64 60 55 49 47 47 44 42 39 36 35 33 32 28 27 26 22 20 18 17 19 19 19 19 19 19 19 21 21 21 22 23 23 22 22 23 23 22 21 21 20 16 14
68 66 62 56 51 49 48 45 43 40 38 36 34 32 29 29 28 26 23 21 20 20 21 22 22 22 24 22 23 23 23 23 22 22 22 22 23 22 21 20 15 13 17
74 71 69 63 58 53 51 49 47 45 42 39 36 35 33 32 29 28 27 24 22 21 21 22 24 25 26 25 23 24 24 23 22 23 22 21 22 21 18 16 15 17 21
72 74 72 68 63 59 54 51 49 47 45 41 39 37 36 34 31 29 30 27 23 22 21 24 25 26 27 25 24 24 22 22 22 23 23 22 22 21 20 19 20 22 24
70 71 74 72 66 63 58 53 51 50 49 45 42 39 40 38 33 33 31 29 27 25 26 27 27 27 27 25 24 23 22 22 24 24 23 23 23 21 19 20 23 26 27
69 69 69 68 68 68 63 57 56 54 53 51 48 44 43 42 37 35 33 30 30 29 27 26 26 26 26 26 25 24 23 24 24 25 25 24 24 24 26 28 28 29 30
63 63 59 58 68 68 67 63 59 58 57 56 52 48 45 44 41 37 36 34 32 30 30 27 29 27 26 27 27 28 27 26 27 26 25 26 25 27 29 31 30 31 32
67 55 61 59 62 65 69 67 64 61 58 58 55 49 48 46 45 41 40 37 34 32 33 31 30 29 34 33 32 30 30 29 30 29 28 29 29 29 28 28 30 37 36
67 65 52 58 58 64 61 68 68 65 62 61 59 54 52 49 48 46 44 41 40 38 38 38 35 33 35 33 33 33 34 35 34 31 35 35 33 29 27 32 37 39 38
63 63 74 73 73 62 50 56 64 67 64 61 61 61 58 55 53 50 49 46 43 42 41 40 38 37 33 35 34 34 39 38 38 35 33 33 35 31 35 41 44 42 38
63 67 63 67 72 61 56 51 60 66 64 62 65 63 62 59 57 54 55 51 48 46 43 41 43 35 37 41 40 41 42 42 41 40 38 33 32 37 41 47 47 46 41
59 64 67 68 61 59 65 54 58 62 66 66 64 64 65 62 60 58 57 55 52 51 46 44 47 44 42 43 42 43 42 43 43 42 42 41 42 42 47 51 47 44 44
66 69 72 64 63 60 60 54 55 61 63 67 67 71 70 68 66 63 57 56 56 51 51 47 44 47 44 42 37 40 43 45 47 43 44 45 46 46 47 51 50 49 46
71 73 71 71 64 65 72 64 60 57 55 62 67 70 72 71 70 69 66 60 54 53 50 49 47 51 49 50 55 53 48 45 47 46 44 47 45 45 46 52 54 56 53
78 84 89 79 67 64 73 69 64 63 57 58 62 69 68 70 74 73 69 67 62 56 55 54 49 53 54 56 56 51 50 49 51 45 47 47 46 49 51 53 57 56 57
84 89 90 89 79 78 77 69 70 71 61 63 60 59 64 65 66 67 68 68 61 62 57 52 55 55 55 56 56 54 54 53 53 51 53 52 53 53 54 51 55 56 60
89 90 83 87 81 78 71 78 73 79 67 60 61 63 61 63 66 68 66 67 66 65 57 60 58 56 57 58 61 59 56 55 52 57 58 57 54 54 50 53 56 61 62
81 94 98 83 73 74 78 78 76 72 68 67 61 54 53 55 62 62 63 62 64 62 61 60 61 59 61 63 61 55 52 54 55 59 59 57 56 53 54 55 60 67 72
80 91 95 87 80 78 79 75 75 75 75 65 56 55 48 59 61 62 62 60 62 65 66 69 66 68 67 63 62 59 57 58 61 61 61 60 60 55 62 65 72 67 72
83 88 90 97 88 82 84 84 80 75 73 69 62 52 50 55 57 57 53 56 60 65 68 69 69 65 62 64 65 63 64 64 64 64 63 62 65 65 73 69 69 71 78
88 93 98 97 95 91 80 83 80 75 72 64 60 61 59 58 55 58 62 58 57 61 63 64 67 67 68 70 72 68 66 68 66 65 67 68 70 74 71 74 70 83 77
90 89 92 86 100 91 90 87 84 71 69 69 63 62 64 64 68 64 62 60 63 68 67 64 63 65 72 73 72 72 70 69 68 68 71 73 76 79 84 82 76 79 84
90 89 88 91 96 87 85 83 76 77 81 80 75 75 71 69 69 69 68 66 72 76 73 74 72 72 75 75 76 75 71 74 75 75 74 77 81 82 83 84 83 84 84

GFSSE_250_spd_105.txt.gz
Wind_Speed
46 44 41 39 37 36 34 32 29 27 24 23 21 20 21 21 20 19 18 18 15 12 14 15 16 18 19 20 21 22 22 22 22 23 23 22 22 23 23 22 20 18 16
54 50 46 44 42 38 37 34 32 29 27 26 24 23 22 20 17 14 15 15 12 11 12 13 13 15 16 16 16 19 20 22 22 22 22 23 22 22 21 21 19 17 12
62 56 52 49 46 43 40 37 34 31 28 28 27 27 25 22 18 16 15 14 13 13 14 15 16 16 16 16 17 18 19 20 21 22 23 22 22 22 22 20 17 12 9
68 63 57 54 51 48 45 41 38 35 32 31 29 29 28 25 24 20 16 15 15 15 15 17 18 19 19 19 19 20 20 20 21 21 22 22 21 21 19 18 13 7 8
70 70 61 58 56 53 49 46 43 40 38 35 33 31 31 30 26 25 23 20 18 19 18 19 21 21 21 23 24 23 21 22 21 20 21 21 21 20 19 15 12 11 13
70 77 68 61 58 58 54 50 47 45 43 39 37 34 32 32 29 26 25 26 23 22 19 19 19 22 24 25 26 24 23 22 21 20 20 20 20 20 19 17 16 16 18
69 76 72 64 64 62 59 56 52 49 46 44 41 38 36 34 31 27 26 26 25 25 22 21 21 22 24 26 26 27 25 22 22 21 21 21 20 21 19 17 17 19 23
69 73 73 67 67 66 65 61 58 53 51 50 45 42 38 38 34 30 27 28 29 28 26 24 24 26 25 25 25 21 22 23 23 23 24 23 21 22 21 20 21 23 24
59 70 76 72 66 72 69 67 64 59 56 53 49 44 42 41 38 34 31 29 30 31 28 26 26 26 26 26 25 24 25 24 26 27 26 26 25 24 23 24 24 24 24
52 64 67 67 63 67 71 70 68 63 60 57 52 48 45 46 43 40 37 34 32 32 29 27 27 26 27 24 25 29 30 30 27 29 29 29 29 30 28 28 29 26 26
50 53 63 63 59 71 66 65 69 67 61 59 56 51 50 50 47 45 41 39 37 34 32 31 29 28 29 29 29 34 32 30 31 32 32 33 31 34 34 34 29 28 34
54 61 59 65 60 70 67 57 59 67 63 62 57 54 53 53 51 49 46 44 42 39 37 34 34 34 33 34 34 34 35 32 30 34 34 34 35 32 32 33 33 35 39
55 53 58 65 67 63 65 58 58 62 61 63 61 58 56 54 54 53 50 47 44 44 42 40 38 36 37 35 37 35 40 38 38 37 39 38 37 37 37 31 30 40 45
64 56 56 66 71 61 61 57 50 56 60 62 63 62 61 59 59 59 56 53 52 50 48 46 45 38 39 37 39 37 39 43 42 38 36 39 40 40 39 38 39 44 47
76 68 60 68 69 65 65 49 59 59 58 56 57 62 63 62 62 58 56 58 56 53 51 51 48 47 47 44 45 41 43 44 42 42 44 44 44 43 42 43 44 46 47
77 72 58 70 71 71 69 59 64 63 54 51 52 57 64 64 65 61 60 60 57 56 53 49 50 51 49 50 43 46 46 51 48 47 46 46 46 44 46 46 46 46 46
78 72 61 65 73 73 70 71 56 57 61 59 53 53 59 64 67 66 66 65 64 63 62 60 54 52 50 52 47 48 52 51 52 48 47 44 48 48 47 40 45 45 46
75 75 59 67 73 75 75 67 64 65 63 64 65 57 58 60 60 63 68 68 68 68 68 63 64 62 61 59 54 55 53 56 54 51 51 51 49 50 49 49 51 48 46
77 75 59 69 74 78 76 68 66 64 65 63 58 52 51 48 50 56 64 64 63 65 68 67 65 68 66 63 60 57 58 60 59 54 55 54 52 54 53 54 54 52 48
74 73 59 73 74 78 82 73 58 63 64 66 63 57 56 55 52 52 51 56 61 64 66 70 64 69 65 64 63 63 61 60 59 59 55 55 52 54 56 57 55 55 54
72 75 59 74 81 75 64 67 75 73 70 64 70 66 67 60 51 53 56 59 60 63 64 67 68 64 66 66 71 65 64 65 62 61 58 58 56 56 56 57 58 55 56
78 73 59 81 86 79 71 73 70 70 66 68 66 66 62 65 64 57 60 61 65 68 60 67 68 68 71 73 72 69 63 67 68 64 66 59 62 63 63 60 59 57 56
81 71 68 91 94 95 85 72 70 72 75 74 67 71 68 65 65 66 66 62 60 61 55 56 58 64 72 72 70 66 69 71 70 73 67 65 67 68 67 62 61 61 61
80 68 71 91 95 92 93 81 77 67 73 71 69 70 76 68 68 67 60 59 57 55 60 65 62 70 71 71 67 68 68 70 71 69 71 69 72 72 74 73 68 64 67
74 62 72 86 100 99 93 92 78 78 75 73 75 70 72 74 78 74 70 65 53 59 62 66 69 72 68 70 69 67 72 71 71 71 73 75 76 77 77 74 70 73 80
70 64 78 83 80 90 90 83 80 83 84 82 80 73 74 70 75 78 75 75 73 73 70 69 69 73 74 76 72 72 74 75 73 74 74 76 80 81 75 78 83 85 84

GFSSE_250_spd_108.txt.gz
Wind_Speed
48 46 43 42 40 37 36 35 33 29 26 25 23 22 22 20 18 18 18 15 15 14 13 13 13 13 14 14 14 15 16 17 19 20 22 24 23 22 21 20 18 13 8
54 52 49 48 46 40 38 37 36 34 30 28 25 24 23 21 20 18 15 12 12 13 13 14 13 14 15 15 14 15 17 18 19 20 21 22 23 23 21 18 17 10 4
62 59 54 54 50 46 44 41 39 38 34 32 29 27 25 24 21 19 15 13 13 14 15 15 16 16 17 17 17 17 19 21 21 21 21 21 20 21 19 17 15 7 5
66 63 58 57 56 52 50 46 44 41 38 35 31 28 26 27 24 22 19 14 13 15 16 16 18 19 20 20 21 21 22 24 23 22 22 21 21 20 19 17 12 11 11
69 69 66 62 61 57 54 50 48 45 42 38 34 31 28 28 27 26 22 22 19 17 19 17 20 20 22 24 24 24 24 25 24 23 23 23 21 20 18 18 16 15 16
69 71 71 64 64 62 58 53 51 48 45 42 38 35 33 31 28 29 27 24 23 22 21 20 19 20 21 24 25 24 25 24 23 23 23 23 23 22 20 18 16 16 18
65 67 72 69 66 65 62 59 54 52 49 47 44 41 39 36 32 29 28 26 26 25 24 22 20 21 22 23 26 25 23 18 19 21 23 25 24 24 24 22 19 20 23
57 64 71 74 71 68 66 63 60 57 54 51 49 46 43 41 35 33 32 30 28 27 27 26 25 24 24 25 26 25 23 21 21 22 23 25 27 25 26 27 25 25 26
52 56 65 73 71 68 70 69 64 60 60 57 53 50 47 45 43 39 35 34 31 29 28 29 28 26 26 26 26 24 24 24 27 27 27 26 28 29 29 29 30 30 29
38 50 58 63 70 71 66 68 69 68 65 62 58 53 51 48 47 45 40 38 36 32 30 29 29 28 27 27 25 24 24 28 30 31 28 29 28 29 31 31 33 33 34
46 43 56 63 65 68 70 64 68 71 66 67 64 58 53 52 50 49 46 43 41 38 35 33 30 29 29 28 27 28 30 30 33 33 33 31 30 30 32 33 35 35 36
52 46 47 57 58 60 65 67 69 70 70 70 65 63 58 54 53 51 49 46 45 43 41 38 34 33 31 30 30 31 33 34 31 35 37 35 36 35 34 37 38 36 36
57 57 45 53 60 64 66 65 62 69 71 72 71 67 63 58 56 54 51 50 50 48 45 42 40 36 35 34 35 34 34 36 36 33 38 37 37 35 37 39 41 39 39
51 58 57 55 55 67 71 65 60 65 69 68 69 67 65 60 58 57 56 53 53 50 49 48 44 44 42 41 40 40 40 42 43 42 44 41 38 40 42 42 42 43 41
52 65 67 62 62 66 74 67 59 64 67 67 66 62 66 65 64 60 60 58 57 55 54 52 50 49 47 45 45 45 47 45 42 42 44 46 41 38 39 39 40 43 44
60 63 66 70 67 59 67 66 62 63 67 67 63 63 64 63 65 64 62 61 60 60 56 50 50 49 48 49 48 45 44 46 46 46 53 53 50 43 40 40 42 43 46
67 69 68 72 69 63 73 70 72 66 68 70 67 63 64 64 63 66 65 65 67 61 59 56 55 53 56 57 59 59 57 56 54 54 54 57 55 52 46 45 44 45 48
75 76 69 74 76 78 76 66 73 72 70 70 65 61 59 65 65 59 63 66 64 64 62 62 62 60 63 63 63 63 63 62 63 59 60 57 60 56 50 50 47 50 48
81 81 73 74 81 81 79 64 71 76 72 70 65 60 58 63 61 58 59 56 57 61 62 63 63 65 67 65 65 67 66 64 63 60 62 64 64 58 56 51 49 51 50
79 82 77 74 81 79 80 67 69 75 74 74 67 60 71 64 63 63 63 57 56 54 57 61 61 61 61 65 67 65 65 67 63 66 71 65 62 58 56 52 53 53 54
83 83 81 79 84 83 81 65 66 75 81 77 68 62 67 63 63 62 59 56 52 48 52 56 54 62 63 63 64 63 60 66 65 71 72 71 64 63 59 60 57 57 58
80 76 80 84 84 79 74 67 67 75 83 82 77 76 66 57 58 56 57 56 54 49 51 56 58 60 62 67 70 68 62 71 73 75 74 68 67 68 67 66 64 62 60
79 78 80 84 81 72 69 65 69 73 78 81 79 79 73 65 66 59 63 58 58 59 56 57 61 64 64 64 68 67 64 75 71 74 72 69 69 68 70 67 67 65 63
73 74 75 79 74 71 65 61 69 70 77 82 84 66 62 61 62 67 63 60 64 62 60 63 61 70 70 69 67 68 75 75 69 75 74 70 68 71 67 64 65 64 64
67 67 70 71 67 68 61 65 71 72 79 79 81 72 67 71 64 64 67 67 67 65 65 64 67 71 64 70 72 75 78 75 73 73 74 70 69 68 69 67 65 68 66
64 62 66 64 67 62 57 67 71 72 71 70 70 71 72 81 75 74 73 73 76 76 77 74 68 69 70 75 76 76 75 76 78 76 75 72 72 73 71 72 75 70 67

GFSSE_250_spd_111.txt.gz
Wind_Speed
48 47 45 44 42 40 37 36 34 32 30 29 26 25 24 23 21 20 18 16 18 15 14 15 15 14 14 14 14 13 14 16 18 20 21 22 22 21 20 19 19 16 9
54 50 48 46 45 43 40 38 37 33 32 31 29 28 26 25 22 21 19 15 15 14 14 15 15 15 15 14 14 15 17 18 20 22 23 23 22 21 19 17 16 15 10
60 56 54 49 48 47 43 41 40 36 34 34 32 31 29 28 24 22 20 17 16 15 16 17 16 17 17 17 18 19 20 21 24 26 23 23 23 23 20 18 16 13 13
66 64 61 56 51 49 49 46 43 41 37 36 36 35 33 32 27 25 22 20 16 17 17 18 18 20 19 20 21 22 23 24 24 25 23 23 23 22 22 21 18 15 16
65 66 67 62 57 55 54 52 50 46 43 40 40 38 36 36 32 28 26 25 23 18 19 20 20 21 22 22 23 23 23 24 25 22 20 19 21 23 23 22 20 19 18
57 61 65 68 63 60 58 55 53 51 48 45 42 41 38 38 34 29 27 27 26 25 24 23 22 22 23 22 22 23 22 23 22 19 18 19 20 23 24 24 24 23 22
46 54 62 67 67 66 64 61 58 56 54 49 47 44 43 40 38 34 31 29 28 28 26 26 26 23 23 23 24 25 24 24 23 20 21 20 22 23 24 24 26 27 27
41 45 53 61 65 64 65 65 64 61 58 54 52 48 45 44 42 39 38 36 31 29 28 27 28 28 25 24 25 26 25 25 25 22 23 25 26 26 26 24 26 29 30
34 34 45 56 59 63 65 66 67 66 63 60 57 54 52 48 47 45 41 40 36 33 31 31 29 28 27 27 26 27 26 24 22 23 27 26 27 27 27 28 29 28 30
34 32 35 42 53 58 62 64 67 69 67 64 61 59 56 54 51 50 46 44 42 39 35 33 31 29 28 28 28 27 28 25 26 28 30 30 29 28 29 31 33 32 32
39 41 40 37 47 49 55 59 67 69 71 69 66 64 60 60 58 55 51 48 46 44 43 38 35 32 30 29 29 26 25 28 29 33 33 30 30 30 32 33 34 34 35
49 47 46 43 42 45 52 54 56 65 70 72 71 70 65 64 64 62 56 54 51 48 47 45 40 38 35 33 32 31 26 29 32 34 36 33 31 33 34 35 35 38 39
52 49 49 50 50 47 51 56 58 59 65 71 72 72 70 69 67 65 63 59 55 52 49 47 45 42 41 39 34 35 34 34 36 37 38 40 37 36 37 35 38 39 39
56 52 49 53 49 49 50 56 59 55 56 61 71 71 73 73 71 68 66 65 61 56 53 52 49 45 43 42 41 42 43 41 39 41 42 42 38 38 39 40 40 39 38
67 65 61 58 56 54 46 47 47 54 56 59 63 68 73 73 72 70 69 68 66 61 58 55 51 47 47 46 46 47 45 43 44 39 42 43 45 44 43 45 44 43 41
76 73 67 65 59 55 50 51 49 52 55 62 65 66 67 72 74 73 72 71 70 66 61 59 55 52 52 51 49 45 46 47 48 51 53 52 53 54 53 51 50 45 46
73 71 70 73 71 66 62 61 57 56 54 56 64 63 66 64 67 71 74 74 71 67 65 62 59 56 54 55 52 51 49 52 56 57 58 59 54 56 56 59 54 52 47
74 73 73 72 75 73 70 67 63 64 59 54 55 61 60 62 47 71 69 71 71 69 67 62 61 58 58 58 57 57 57 59 61 63 59 56 58 61 59 61 61 59 56
76 75 72 72 76 77 74 72 70 67 63 60 58 64 63 64 69 68 73 73 71 67 66 64 63 63 59 62 62 58 59 61 65 68 63 61 54 60 64 64 66 63 61
79 77 75 73 75 78 76 75 75 73 64 66 67 70 66 70 64 50 75 69 69 68 66 58 58 57 57 61 57 63 61 62 60 64 63 58 56 61 64 65 67 66 65
78 77 78 78 79 81 77 79 80 78 74 70 72 69 61 71 68 68 71 66 61 64 68 66 58 57 56 58 53 61 55 61 61 63 69 65 61 66 68 72 71 70 69
74 75 77 77 77 78 75 80 81 84 77 74 78 66 60 70 68 67 67 65 67 67 63 64 64 60 67 60 55 55 55 64 68 67 66 65 67 70 69 69 70 62 60
73 76 80 78 78 76 80 80 79 83 83 80 75 69 57 70 66 60 67 66 65 65 62 61 65 72 65 63 63 61 56 68 67 65 67 66 66 64 63 64 60 61 59
73 79 81 81 85 88 84 85 82 83 82 80 76 64 59 74 75 80 76 71 65 57 57 56 59 62 63 61 62 63 65 69 68 69 71 68 66 64 67 65 59 63 61
72 77 79 78 82 87 90 88 85 85 81 76 74 63 60 74 76 75 83 73 66 62 63 65 66 62 61 63 64 68 73 74 69 70 70 69 67 70 68 65 64 64 68
63 66 70 74 77 77 78 79 80 80 74 69 61 57 66 73 77 82 82 78 85 69 64 61 61 72 70 71 73 74 74 77 76 74 73 70 66 66 67 72 74 70 72

GFSSE_250_spd_114.txt.gz
Wind_Speed
51 47 45 44 44 42 39 36 33 31 30 29 26 25 24 24 24 21 20 19 19 20 20 18 16 15 14 13 11 11 13 14 15 19 23 23 22 21 21 20 19 19 19
54 50 46 43 41 43 40 39 36 35 31 31 29 28 26 26 25 24 22 20 20 21 20 19 18 17 17 15 15 16 16 17 20 21 22 20 21 21 21 19 20 18 17
54 55 51 47 42 41 39 38 37 37 36 34 34 31 30 28 28 27 25 24 21 20 21 20 20 19 19 18 18 19 19 19 20 20 22 18 18 17 19 20 20 20 18
55 55 54 51 46 46 43 43 44 41 39 36 36 36 34 32 28 29 28 26 23 21 21 21 20 21 22 21 21 22 22 22 20 20 21 17 14 15 17 19 20 20 20
55 60 59 57 56 53 51 49 47 45 44 41 38 38 37 36 33 31 32 31 28 26 22 21 21 22 24 25 23 23 23 23 23 22 20 16 16 16 18 18 19 20 22
48 51 59 65 65 61 58 57 53 49 48 47 44 42 41 38 38 34 33 34 31 30 27 26 25 25 25 27 27 26 24 24 24 23 20 19 19 20 22 22 21 20 22
41 43 48 54 59 64 64 61 59 55 53 53 49 48 44 42 39 38 36 35 33 31 31 30 29 27 27 28 27 26 27 27 27 26 22 21 21 22 20 21 23 24 25
37 39 43 43 46 52 57 62 63 62 59 56 54 51 50 47 44 42 41 40 37 35 34 32 31 29 28 28 27 27 28 28 27 27 23 22 23 23 23 21 22 25 26
28 32 31 32 38 43 50 55 61 64 64 63 61 58 54 53 49 46 46 44 42 39 37 36 34 32 31 30 28 26 26 27 25 24 24 25 27 27 25 25 26 26 27
35 31 37 31 30 34 40 48 55 59 66 65 64 62 61 58 56 53 49 48 47 45 42 40 38 36 34 31 28 28 26 25 24 21 25 29 30 25 24 27 28 29 30
44 40 36 35 32 35 38 41 48 53 55 64 65 65 63 62 60 56 54 53 52 50 48 46 43 41 38 37 32 30 30 26 26 26 28 28 32 29 27 29 27 29 32
48 43 45 47 42 38 41 38 39 43 50 52 62 65 65 64 62 62 59 58 56 56 53 51 48 45 42 40 39 36 35 32 32 31 33 33 33 34 31 31 30 32 32
54 52 44 49 50 47 50 47 39 35 42 46 51 60 64 65 66 65 63 62 61 59 57 56 55 52 48 45 44 41 40 38 37 38 39 39 37 37 36 36 35 35 40
63 57 54 51 55 49 52 49 40 40 43 45 49 55 58 67 70 69 69 67 65 65 62 61 59 56 53 51 49 48 43 41 42 43 45 42 40 37 41 45 46 46 45
70 66 61 59 57 56 52 49 49 50 47 49 51 48 52 57 67 71 71 72 71 70 67 66 63 60 57 55 53 51 47 44 45 45 45 43 42 45 47 49 50 47 48
77 75 73 68 63 60 58 56 54 50 46 43 37 41 46 50 56 61 66 72 72 73 74 70 66 65 61 59 57 53 52 49 47 48 45 44 49 50 49 50 49 50 51
80 79 77 76 73 65 65 64 62 59 48 44 46 41 46 53 59 60 65 63 64 69 71 71 70 68 67 65 62 58 57 52 51 51 51 52 53 53 55 53 56 57 51
77 78 77 77 75 75 74 72 70 66 62 58 61 53 47 52 58 58 57 62 59 58 56 71 72 72 68 68 63 61 58 57 54 53 54 54 54 55 55 51 56 56 53
82 82 80 79 77 73 74 73 71 69 66 66 63 62 58 54 52 51 48 55 54 52 56 56 64 71 70 66 64 63 61 58 57 54 54 54 58 58 57 60 53 59 61
82 84 82 81 80 76 74 74 74 70 69 67 66 65 64 60 56 53 48 56 54 48 59 59 63 67 64 63 65 64 62 63 56 60 56 60 66 57 63 63 64 60 56
81 80 81 81 80 79 77 76 74 72 68 67 68 67 67 63 61 63 56 53 61 50 58 57 60 60 65 68 65 66 62 58 61 57 65 60 58 58 61 67 60 58 53
79 75 78 78 77 77 78 78 75 75 70 68 69 70 70 68 66 66 63 57 62 66 64 64 63 65 59 59 63 68 68 66 62 64 66 68 65 63 63 58 59 56 55
71 67 71 79 77 74 77 78 75 75 72 74 72 70 73 73 72 70 70 65 60 65 64 67 66 68 64 60 62 64 67 69 67 67 70 70 70 73 63 63 60 59 62
66 67 65 72 75 77 75 79 80 80 78 78 77 78 77 77 72 72 72 72 65 66 63 66 64 75 64 58 61 58 60 63 57 64 68 71 67 69 69 65 63 64 65
67 71 71 71 76 77 82 86 82 83 83 81 83 81 82 78 75 76 76 73 67 68 64 68 73 73 67 65 60 59 59 67 68 69 72 72 71 73 70 64 65 66 66
63 66 70 76 81 87 86 86 89 88 87 87 88 88 86 82 79 77 77 74 64 67 63 61 62 74 68 62 61 67 69 70 67 70 69 72 68 66 67 67 71 69 69

GFSSE_250_spd_117.txt.gz
Wind_Speed
50 48 42 42 43 39 38 37 35 32 31 26 26 25 22 22 21 23 22 20 19 19 20 18 19 18 17 15 12 11 13 14 16 18 19 19 17 16 14 16 17 16 15
50 52 52 48 43 41 41 40 38 34 32 29 27 26 26 24 25 23 25 22 21 21 22 20 19 19 20 18 16 15 16 16 18 19 19 19 17 14 14 15 16 16 16
42 46 49 48 46 44 41 39 37 36 35 34 30 30 29 28 27 27 25 26 23 23 21 22 20 22 22 21 19 19 19 19 20 19 19 20 16 15 14 15 16 17 17
38 41 46 48 47 46 44 42 39 36 35 35 34 33 33 31 29 29 29 27 26 24 23 22 22 22 23 23 22 22 23 22 22 21 20 20 16 15 16 19 18 18 17
37 38 44 46 47 49 49 46 43 40 40 39 38 38 36 33 31 32 32 30 29 27 27 25 24 23 24 25 26 26 26 27 25 25 22 21 19 17 18 19 17 19 20
29 32 39 46 49 49 50 50 49 47 44 42 41 40 40 38 33 35 36 34 33 31 29 29 27 26 26 27 28 27 26 25 26 25 23 21 20 21 20 19 17 17 18
30 29 33 38 44 52 55 54 54 55 53 51 48 45 43 42 40 38 39 38 37 35 32 30 30 30 29 28 28 27 25 25 26 25 22 20 18 19 20 21 19 19 20
33 30 26 33 37 41 48 58 61 61 58 58 55 52 49 46 46 44 43 41 39 39 38 35 33 32 31 30 28 27 25 23 23 24 22 19 18 20 22 21 20 22 23
37 34 31 33 32 34 37 42 50 54 58 60 59 57 56 54 51 49 47 46 44 42 43 41 38 35 35 33 31 30 28 25 22 22 23 22 22 23 24 20 20 23 25
40 40 35 31 32 31 29 33 37 46 53 56 59 60 59 58 56 54 53 52 50 46 45 46 44 41 38 36 36 35 33 28 26 24 24 25 25 26 28 28 28 22 24
46 44 42 36 37 35 34 34 33 37 42 51 56 60 62 61 61 60 58 56 55 53 50 49 49 47 45 43 40 39 38 36 32 30 29 28 28 31 31 32 31 30 22
50 47 46 44 37 38 36 34 38 38 38 37 46 53 59 62 63 62 60 58 57 57 55 54 51 50 49 48 46 44 42 41 38 38 35 33 33 36 34 35 37 31 37
57 52 50 49 48 44 42 41 42 39 36 32 34 40 48 53 58 60 60 61 60 59 58 57 57 56 54 53 53 51 50 47 44 44 43 39 38 40 40 40 37 36 41
66 61 55 52 52 52 50 49 47 45 39 40 38 33 32 38 43 49 55 61 61 61 61 62 60 59 58 58 55 54 55 53 50 48 49 45 42 40 43 43 39 41 42
71 68 65 59 55 56 54 59 58 53 48 46 45 38 38 41 45 46 47 55 60 62 63 64 65 65 64 61 63 60 57 56 54 52 47 46 46 44 43 41 44 42 45
75 74 71 67 63 60 57 57 59 60 52 50 48 46 44 42 45 40 37 42 49 57 64 65 67 68 67 69 68 64 62 60 58 56 52 52 48 46 47 46 46 44 47
77 78 77 75 70 68 65 60 60 60 60 54 51 49 45 43 38 38 39 42 44 45 45 54 59 62 69 73 71 69 69 65 62 59 57 54 50 49 47 48 48 46 49
82 78 78 79 75 73 71 70 66 60 59 58 54 54 51 51 47 47 44 42 45 48 53 59 52 54 55 59 62 67 68 68 66 62 60 57 56 53 50 51 52 53 54
84 84 81 78 80 78 75 74 71 67 67 65 63 62 62 58 58 55 50 51 47 50 47 48 47 43 48 51 50 51 61 68 69 66 62 59 60 58 55 56 57 52 49
90 85 85 84 80 79 81 77 73 73 74 72 72 70 67 65 64 62 61 60 57 52 51 44 48 46 42 45 49 56 54 59 66 68 66 62 62 63 61 61 60 64 61
87 84 83 87 85 80 80 79 76 74 74 75 74 72 72 69 68 65 63 61 61 57 55 53 45 48 47 52 57 56 55 52 57 62 65 66 67 67 65 63 67 64 67
82 83 79 81 84 83 79 78 80 79 75 75 76 75 73 70 67 65 66 64 63 61 57 60 54 49 48 47 51 60 60 55 53 57 62 66 68 71 71 65 66 70 67
76 79 80 77 82 81 82 79 78 79 79 79 79 80 75 71 69 68 66 65 64 61 60 63 62 58 54 55 63 66 61 58 59 56 62 62 60 64 61 61 64 71 70
74 77 76 77 76 80 80 78 78 76 81 83 81 81 78 73 71 69 69 68 65 65 67 67 66 62 64 64 59 67 64 57 63 58 57 60 60 63 65 66 73 73 67
66 71 70 70 71 75 79 81 81 83 84 83 83 80 77 74 72 72 71 70 72 72 73 71 71 70 65 67 65 65 68 64 68 63 62 62 62 62 68 71 70 67 67
63 68 69 67 68 71 76 85 87 88 87 84 80 78 78 75 74 73 72 71 72 73 74 77 80 77 72 72 68 64 69 72 69 73 77 67 67 71 73 72 75 74 73